GFSSW_500_temp_000.txt.gz
Temp
-15 -15 -15 -14 -12 -11 -11 -11 -10 -10 -10 -10 -9 -9 -9 -8 -8 -8 -8 -7 -7 -7 -7 -7 -6 -6 -6 -6 -5 -5 -5 -5 -5 -5 -5 -5 -5 -5 -5 -5 -6 -6 -7 -6 -7
-15 -15 -14 -13 -12 -11 -10 -10 -10 -10 -10 -10 -9 -9 -9 -8 -8 -8 -7 -7 -7 -7 -7 -7 -6 -6 -6 -5 -5 -5 -5 -5 -5 -5 -5 -5 -6 -6 -6 -6 -6 -7 -7 -7 -7
-14 -14 -13 -12 -11 -10 -10 -10 -9 -9 -9 -9 -9 -9 -9 -8 -8 -8 -7 -7 -7 -7 -6 -6 -6 -6 -6 -6 -6 -6 -5 -6 -5 -6 -5 -5 -6 -6 -6 -6 -6 -7 -7 -7 -7
-13 -13 -12 -11 -10 -10 -10 -9 -9 -9 -9 -9 -8 -8 -8 -8 -8 -7 -7 -7 -7 -7 -7 -6 -6 -6 -6 -6 -6 -6 -6 -6 -6 -6 -5 -6 -6 -6 -6 -6 -7 -7 -7 -7 -8
-12 -11 -11 -10 -10 -9 -9 -9 -9 -9 -9 -8 -8 -8 -8 -8 -8 -7 -7 -7 -7 -7 -7 -6 -6 -6 -6 -6 -6 -6 -6 -6 -6 -6 -6 -6 -6 -6 -6 -6 -7 -7 -7 -7 -8
-11 -10 -10 -9 -9 -9 -9 -9 -9 -8 -8 -8 -8 -8 -8 -7 -7 -7 -7 -7 -7 -7 -7 -6 -6 -7 -6 -6 -6 -6 -6 -6 -6 -6 -6 -5 -6 -6 -6 -7 -7 -7 -7 -8 -8
-10 -9 -9 -9 -8 -8 -8 -8 -8 -8 -8 -8 -8 -8 -8 -7 -7 -7 -7 -7 -7 -7 -7 -7 -7 -6 -6 -6 -6 -6 -6 -6 -6 -6 -6 -6 -6 -6 -6 -7 -7 -7 -7 -8 -8
-9 -8 -8 -8 -8 -8 -8 -8 -8 -8 -8 -8 -8 -8 -8 -7 -7 -7 -7 -7 -7 -7 -7 -7 -7 -6 -6 -7 -6 -6 -6 -6 -6 -6 -6 -6 -6 -6 -6 -7 -7 -7 -7 -8 -8
-8 -8 -8 -8 -7 -7 -7 -7 -7 -7 -7 -7 -8 -7 -7 -7 -7 -7 -7 -7 -7 -7 -7 -7 -7 -7 -7 -7 -6 -6 -6 -6 -6 -6 -6 -6 -6 -5 -7 -7 -7 -7 -7 -7 -8
-8 -8 -7 -7 -7 -7 -7 -7 -7 -7 -7 -7 -7 -7 -7 -7 -7 -7 -7 -7 -7 -7 -7 -7 -7 -7 -7 -7 -7 -6 -6 -6 -6 -6 -6 -6 -6 -6 -7 -7 -7 -7 -7 -7 -8
-8 -7 -7 -7 -7 -7 -7 -6 -7 -6 -6 -7 -7 -7 -7 -7 -7 -7 -7 -7 -7 -7 -7 -7 -7 -7 -7 -7 -7 -6 -7 -6 -7 -6 -6 -6 -6 -7 -6 -7 -7 -7 -8 -8 -7
-7 -7 -7 -7 -7 -6 -7 -7 -7 -6 -6 -6 -6 -6 -6 -6 -7 -7 -7 -7 -7 -7 -7 -7 -7 -7 -7 -7 -7 -7 -7 -7 -7 -7 -6 -7 -6 -7 -7 -7 -8 -7 -8 -8 -8
-6 -6 -6 -6 -6 -6 -7 -7 -6 -6 -6 -6 -6 -6 -6 -6 -6 -6 -7 -7 -7 -7 -7 -7 -7 -7 -7 -7 -7 -7 -7 -7 -7 -6 -7 -7 -6 -7 -7 -7 -7 -8 -8 -8 -8
-6 -6 -6 -6 -6 -6 -6 -6 -6 -6 -6 -6 -6 -6 -7 -7 -6 -7 -7 -7 -7 -7 -7 -6 -7 -7 -7 -7 -8 -7 -7 -8 -8 -8 -8 -7 -6 -7 -8 -8 -8 -8 -8 -8 -8
-6 -6 -6 -6 -6 -6 -6 -6 -6 -6 -6 -6 -7 -7 -7 -7 -7 -7 -7 -7 -7 -8 -7 -7 -7 -7 -7 -8 -8 -7 -8 -8 -8 -8 -8 -7 -7 -6 -8 -8 -8 -8 -9 -9 -8
-6 -6 -6 -6 -6 -6 -6 -6 -7 -7 -6 -7 -7 -7 -7 -7 -7 -7 -8 -7 -8 -8 -8 -8 -7 -8 -8 -8 -8 -8 -9 -9 -9 -9 -7 -8 -9 -6 -8 -8 -8 -8 -9 -9 -8
-7 -7 -7 -7 -7 -6 -7 -6 -6 -6 -7 -7 -8 -8 -8 -8 -8 -8 -8 -8 -8 -8 -8 -9 -8 -8 -8 -8 -9 -9 -9 -9 -10 -9 -8 -9 -10 -7 -8 -8 -8 -8 -9 -9 -8
-7 -7 -7 -7 -8 -8 -7 -7 -7 -7 -7 -7 -7 -8 -8 -9 -8 -9 -8 -8 -8 -9 -9 -9 -8 -9 -9 -9 -10 -10 -10 -10 -11 -10 -9 -9 -8 -8 -8 -8 -9 -9 -9 -9 -9
-7 -7 -7 -7 -7 -7 -8 -8 -8 -8 -8 -8 -7 -8 -8 -8 -9 -9 -9 -9 -9 -10 -10 -10 -9 -11 -9 -10 -11 -10 -10 -11 -11 -10 -11 -9 -9 -8 -8 -9 -9 -8 -9 -9 -9
-7 -7 -7 -8 -7 -7 -7 -7 -8 -9 -9 -9 -8 -8 -8 -8 -9 -9 -9 -8 -10 -11 -11 -10 -11 -11 -10 -10 -10 -11 -10 -10 -11 -10 -10 -9 -9 -9 -9 -9 -8 -8 -9 -9 -9
-7 -7 -8 -8 -8 -8 -8 -8 -8 -9 -10 -9 -9 -9 -9 -9 -10 -9 -8 -9 -10 -10 -12 -11 -12 -12 -11 -9 -9 -11 -11 -11 -11 -10 -10 -10 -9 -9 -10 -10 -9 -9 -10 -10 -9
-7 -7 -7 -8 -8 -8 -8 -9 -9 -9 -11 -10 -10 -10 -11 -11 -11 -11 -11 -10 -12 -12 -11 -12 -13 -12 -12 -11 -12 -11 -11 -11 -11 -10 -10 -10 -9 -9 -10 -10 -10 -9 -10 -10 -10
-7 -7 -7 -8 -8 -8 -8 -9 -10 -10 -10 -11 -11 -11 -11 -11 -11 -12 -11 -12 -13 -13 -12 -12 -13 -12 -12 -12 -11 -10 -10 -11 -11 -12 -11 -11 -9 -9 -10 -10 -10 -10 -11 -11 -10
-8 -8 -8 -8 -8 -9 -9 -9 -10 -11 -11 -11 -11 -12 -12 -12 -12 -11 -12 -13 -14 -13 -14 -14 -14 -14 -11 -11 -13 -12 -12 -12 -12 -12 -9 -11 -10 -10 -10 -11 -11 -11 -11 -10 -10
-7 -7 -7 -8 -9 -9 -9 -10 -11 -11 -12 -13 -12 -13 -13 -13 -12 -12 -13 -13 -14 -15 -15 -15 -15 -14 -13 -13 -13 -13 -12 -12 -11 -10 -11 -9 -10 -9 -10 -11 -11 -12 -11 -10 -10
-8 -7 -8 -8 -9 -10 -12 -12 -11 -11 -13 -14 -14 -15 -14 -15 -17 -15 -16 -17 -16 -16 -15 -14 -15 -14 -14 -14 -13 -14 -13 -13 -11 -10 -10 -10 -9 -10 -11 -11 -12 -12 -10 -10 -10
-8 -8 -8 -8 -9 -11 -13 -12 -13 -14 -14 -16 -16 -17 -16 -20 -21 -20 -19 -19 -19 -16 -16 -15 -15 -15 -15 -14 -14 -15 -12 -11 -12 -11 -10 -10 -9 -11 -11 -12 -13 -12 -12 -11 -11

GFSSW_500_temp_003.txt.gz
Temp
-15 -14 -15 -15 -14 -12 -11 -11 -11 -10 -11 -10 -10 -9 -9 -9 -9 -8 -8 -8 -8 -7 -7 -7 -7 -7 -6 -6 -6 -6 -5 -5 -5 -5 -5 -5 -5 -5 -5 -5 -5 -6 -6 -6 -6
-15 -15 -15 -14 -13 -11 -11 -11 -10 -10 -11 -10 -9 -9 -9 -9 -8 -8 -8 -8 -8 -7 -7 -7 -7 -7 -6 -6 -6 -6 -6 -5 -5 -5 -5 -5 -5 -5 -5 -5 -5 -6 -6 -6 -6
-15 -15 -14 -13 -12 -10 -10 -10 -10 -10 -10 -10 -9 -9 -9 -9 -8 -8 -8 -8 -7 -7 -7 -7 -7 -7 -6 -6 -6 -6 -6 -6 -5 -5 -5 -5 -5 -5 -5 -5 -6 -6 -6 -7 -7
-14 -13 -13 -11 -11 -10 -10 -10 -9 -10 -9 -9 -9 -9 -9 -8 -8 -8 -8 -7 -7 -7 -7 -7 -7 -6 -6 -6 -6 -6 -6 -6 -6 -5 -5 -5 -5 -6 -5 -6 -6 -6 -6 -7 -7
-13 -12 -11 -10 -10 -10 -10 -9 -9 -9 -9 -9 -9 -8 -8 -8 -8 -8 -8 -7 -7 -7 -7 -7 -6 -6 -6 -6 -6 -6 -6 -6 -6 -5 -5 -5 -5 -5 -5 -6 -6 -6 -6 -6 -7
-11 -10 -10 -10 -9 -9 -9 -9 -8 -9 -8 -8 -8 -8 -8 -8 -8 -7 -7 -7 -7 -7 -7 -7 -7 -7 -6 -6 -6 -6 -6 -6 -6 -6 -6 -5 -5 -5 -6 -6 -6 -6 -6 -6 -7
-10 -9 -9 -9 -9 -8 -8 -8 -8 -8 -8 -8 -8 -8 -8 -8 -8 -7 -7 -7 -7 -7 -7 -7 -7 -6 -6 -6 -6 -6 -6 -6 -6 -6 -6 -5 -5 -6 -5 -5 -6 -6 -6 -6 -7
-9 -9 -8 -8 -8 -8 -8 -8 -8 -8 -8 -8 -8 -8 -8 -7 -8 -7 -7 -7 -7 -7 -7 -7 -6 -6 -6 -6 -6 -6 -6 -6 -6 -6 -6 -5 -6 -6 -6 -6 -6 -6 -6 -7 -7
-8 -8 -8 -8 -7 -7 -7 -7 -7 -7 -7 -7 -7 -7 -7 -7 -7 -7 -7 -7 -7 -7 -7 -6 -6 -6 -6 -6 -6 -7 -6 -6 -6 -6 -6 -6 -6 -6 -6 -6 -6 -6 -6 -7 -7
-8 -8 -8 -7 -7 -7 -7 -7 -7 -7 -6 -7 -7 -7 -7 -7 -7 -7 -7 -7 -6 -6 -6 -6 -6 -6 -6 -7 -7 -7 -6 -6 -6 -6 -6 -6 -6 -6 -6 -6 -6 -6 -7 -7 -7
-7 -7 -7 -7 -7 -7 -7 -7 -7 -6 -6 -6 -6 -6 -6 -7 -7 -7 -7 -7 -7 -7 -7 -7 -6 -7 -7 -7 -7 -6 -6 -7 -7 -6 -6 -6 -6 -6 -6 -6 -6 -7 -6 -7 -7
-7 -7 -7 -7 -6 -6 -6 -6 -6 -6 -6 -6 -6 -6 -6 -6 -6 -6 -6 -6 -7 -7 -7 -6 -6 -7 -7 -7 -7 -7 -7 -7 -7 -6 -6 -6 -5 -6 -6 -6 -6 -7 -7 -7 -7
-7 -7 -7 -7 -7 -6 -6 -6 -6 -6 -6 -6 -6 -6 -6 -6 -6 -6 -7 -6 -7 -6 -7 -6 -6 -7 -7 -7 -6 -7 -7 -7 -7 -7 -6 -6 -5 -6 -6 -6 -6 -7 -7 -7 -7
-7 -7 -7 -7 -7 -7 -7 -7 -6 -6 -6 -6 -6 -6 -6 -6 -6 -6 -7 -6 -6 -7 -7 -6 -6 -7 -7 -7 -8 -7 -7 -7 -8 -8 -7 -7 -5 -5 -6 -6 -6 -7 -7 -8 -8
-6 -7 -7 -6 -6 -7 -7 -7 -7 -7 -7 -6 -7 -7 -7 -7 -7 -7 -7 -7 -7 -7 -7 -6 -6 -7 -7 -8 -8 -7 -8 -8 -8 -8 -8 -7 -6 -4 -6 -7 -7 -7 -8 -8 -8
-7 -7 -7 -7 -7 -7 -7 -7 -6 -6 -7 -7 -7 -7 -7 -7 -7 -7 -7 -7 -7 -7 -7 -7 -7 -7 -8 -8 -8 -8 -8 -9 -9 -8 -7 -6 -9 -4 -6 -6 -8 -8 -8 -8 -9
-6 -6 -6 -7 -7 -7 -7 -7 -7 -7 -7 -6 -7 -7 -7 -8 -8 -7 -7 -7 -8 -8 -8 -8 -8 -8 -8 -8 -8 -9 -9 -10 -9 -9 -7 -8 -9 -6 -6 -7 -7 -8 -8 -9 -9
-6 -6 -6 -6 -6 -6 -7 -7 -8 -8 -8 -7 -7 -8 -8 -8 -8 -8 -7 -7 -8 -9 -9 -8 -8 -9 -9 -9 -10 -10 -10 -10 -10 -9 -9 -9 -8 -6 -8 -8 -8 -8 -9 -9 -8
-6 -6 -6 -6 -6 -6 -7 -7 -8 -8 -7 -8 -7 -7 -7 -8 -8 -8 -8 -8 -9 -11 -10 -10 -8 -10 -9 -10 -11 -10 -9 -10 -11 -10 -10 -8 -8 -8 -8 -9 -9 -9 -9 -9 -10
-6 -6 -7 -7 -6 -6 -6 -7 -7 -8 -8 -8 -7 -7 -8 -8 -9 -9 -9 -9 -10 -11 -12 -10 -11 -11 -10 -10 -9 -10 -10 -11 -11 -10 -10 -8 -8 -8 -9 -10 -9 -9 -9 -9 -10
-6 -7 -6 -7 -7 -7 -8 -7 -8 -8 -9 -9 -8 -8 -8 -9 -10 -10 -9 -10 -11 -12 -13 -11 -13 -10 -12 -10 -10 -11 -11 -11 -12 -12 -11 -9 -8 -8 -8 -9 -10 -10 -10 -9 -10
-7 -7 -7 -7 -7 -7 -7 -7 -8 -8 -9 -9 -9 -9 -9 -10 -9 -10 -10 -12 -12 -15 -14 -15 -15 -11 -12 -12 -12 -13 -13 -13 -12 -10 -11 -11 -9 -9 -9 -9 -10 -10 -10 -10 -11
-7 -7 -7 -7 -7 -7 -7 -8 -8 -9 -10 -10 -10 -10 -10 -10 -10 -10 -10 -10 -13 -15 -16 -16 -15 -15 -12 -12 -12 -12 -12 -12 -12 -13 -12 -11 -8 -9 -10 -11 -11 -11 -11 -11 -11
-7 -7 -7 -7 -7 -7 -7 -8 -9 -9 -10 -11 -11 -11 -11 -10 -10 -9 -9 -10 -12 -14 -16 -17 -16 -16 -15 -13 -15 -15 -14 -14 -14 -14 -10 -11 -9 -9 -10 -11 -11 -11 -11 -11 -11
-7 -7 -7 -7 -7 -7 -8 -8 -8 -8 -11 -12 -11 -13 -12 -11 -11 -10 -10 -10 -10 -12 -16 -17 -17 -16 -16 -16 -16 -16 -16 -15 -14 -13 -13 -10 -11 -9 -11 -12 -11 -11 -12 -11 -11
-7 -7 -7 -7 -7 -7 -8 -8 -9 -9 -10 -10 -11 -13 -14 -15 -17 -13 -13 -14 -13 -16 -18 -16 -15 -17 -16 -15 -15 -15 -15 -14 -14 -14 -13 -12 -10 -11 -11 -12 -12 -12 -12 -13 -11
-7 -7 -8 -7 -8 -8 -9 -9 -9 -11 -12 -15 -15 -15 -17 -18 -19 -20 -22 -21 -20 -20 -21 -21 -19 -17 -16 -16 -16 -16 -15 -15 -15 -15 -15 -14 -10 -13 -12 -12 -12 -13 -13 -12 -11

GFSSW_500_temp_006.txt.gz
Temp
-14 -14 -14 -15 -13 -12 -11 -11 -11 -11 -10 -10 -10 -10 -9 -9 -9 -9 -9 -8 -8 -8 -8 -8 -7 -8 -7 -7 -6 -6 -5 -5 -5 -5 -5 -5 -4 -4 -5 -5 -5 -5 -5 -5 -6
-14 -14 -14 -14 -13 -11 -11 -11 -11 -10 -10 -10 -10 -10 -9 -9 -9 -9 -9 -8 -8 -8 -8 -8 -8 -8 -7 -7 -6 -6 -6 -5 -5 -5 -5 -5 -5 -5 -5 -5 -5 -6 -5 -6 -6
-15 -14 -14 -13 -12 -11 -11 -11 -10 -10 -10 -10 -10 -9 -9 -9 -9 -9 -9 -8 -8 -8 -8 -7 -7 -7 -7 -7 -6 -6 -6 -6 -5 -5 -5 -5 -5 -5 -5 -5 -5 -5 -6 -6 -6
-15 -14 -13 -12 -11 -10 -10 -10 -10 -9 -10 -10 -9 -9 -9 -9 -9 -9 -8 -8 -8 -7 -7 -7 -7 -7 -7 -6 -6 -6 -6 -6 -6 -5 -5 -5 -5 -5 -5 -5 -5 -5 -5 -5 -5
-13 -13 -12 -11 -10 -10 -10 -9 -9 -9 -9 -9 -9 -9 -9 -9 -8 -8 -8 -8 -8 -7 -7 -7 -7 -7 -6 -6 -6 -6 -6 -6 -6 -5 -5 -5 -5 -5 -6 -6 -5 -5 -5 -6 -6
-11 -11 -10 -10 -10 -9 -9 -9 -9 -8 -8 -8 -8 -8 -8 -8 -8 -8 -8 -8 -7 -7 -7 -7 -7 -7 -6 -6 -6 -6 -6 -6 -6 -6 -5 -5 -5 -5 -6 -6 -6 -5 -5 -5 -6
-10 -9 -9 -9 -9 -8 -8 -8 -8 -8 -8 -8 -8 -8 -8 -8 -8 -8 -8 -8 -7 -7 -7 -7 -7 -7 -7 -7 -6 -6 -6 -6 -6 -6 -6 -6 -5 -6 -5 -5 -6 -6 -6 -6 -6
-9 -9 -8 -8 -8 -8 -8 -7 -7 -7 -7 -7 -7 -7 -7 -8 -8 -7 -7 -7 -7 -7 -7 -7 -7 -7 -7 -6 -6 -6 -6 -6 -7 -6 -6 -6 -5 -6 -6 -6 -6 -6 -6 -6 -6
-9 -9 -8 -8 -8 -8 -7 -7 -7 -7 -7 -7 -7 -7 -7 -7 -7 -7 -7 -7 -7 -7 -7 -6 -6 -6 -6 -6 -6 -6 -6 -6 -7 -6 -6 -6 -6 -6 -6 -6 -6 -6 -6 -6 -6
-8 -8 -8 -8 -8 -7 -7 -7 -7 -7 -7 -7 -7 -7 -7 -7 -7 -7 -7 -7 -7 -7 -7 -7 -6 -6 -6 -7 -7 -7 -6 -6 -6 -6 -6 -6 -6 -7 -6 -6 -6 -6 -6 -6 -6
-8 -8 -7 -7 -7 -7 -7 -7 -7 -7 -7 -7 -7 -7 -7 -6 -7 -6 -6 -7 -7 -7 -7 -7 -6 -6 -7 -7 -7 -7 -6 -6 -7 -7 -6 -6 -6 -6 -6 -6 -6 -7 -6 -6 -6
-7 -7 -7 -7 -7 -7 -7 -7 -7 -7 -7 -7 -7 -7 -7 -7 -7 -7 -7 -7 -7 -7 -6 -6 -6 -7 -7 -7 -7 -7 -7 -6 -7 -7 -6 -6 -6 -6 -6 -6 -6 -6 -6 -6 -6
-7 -7 -7 -7 -7 -7 -7 -7 -7 -7 -7 -6 -7 -7 -6 -7 -7 -7 -7 -7 -7 -7 -7 -6 -7 -7 -7 -7 -7 -7 -7 -7 -7 -7 -6 -6 -5 -5 -6 -5 -6 -6 -6 -6 -6
-7 -7 -7 -7 -7 -7 -7 -7 -6 -6 -6 -7 -7 -7 -7 -7 -7 -7 -7 -6 -6 -7 -7 -6 -7 -7 -7 -7 -8 -7 -8 -8 -8 -8 -7 -8 -4 -4 -5 -6 -6 -6 -7 -7 -7
-7 -7 -7 -7 -7 -7 -7 -7 -7 -7 -6 -6 -6 -6 -6 -6 -7 -7 -7 -7 -7 -7 -7 -6 -7 -7 -7 -8 -8 -7 -8 -8 -8 -8 -7 -7 -6 -4 -5 -6 -7 -7 -7 -7 -7
-6 -6 -6 -6 -6 -7 -7 -7 -7 -7 -7 -7 -7 -7 -7 -7 -7 -7 -6 -7 -8 -8 -8 -7 -8 -7 -8 -8 -8 -8 -8 -8 -9 -8 -8 -7 -8 -4 -5 -6 -6 -7 -7 -8 -8
-6 -6 -6 -5 -5 -5 -6 -6 -6 -6 -6 -6 -6 -7 -7 -7 -7 -7 -7 -7 -7 -7 -7 -8 -7 -8 -8 -8 -9 -10 -10 -10 -9 -8 -7 -7 -8 -5 -6 -7 -7 -7 -7 -8 -8
-6 -5 -5 -5 -5 -6 -6 -6 -6 -6 -6 -6 -5 -5 -5 -7 -7 -8 -8 -8 -8 -8 -8 -8 -7 -8 -9 -9 -9 -10 -11 -10 -10 -10 -8 -9 -7 -5 -6 -7 -8 -8 -8 -9 -9
-6 -6 -6 -6 -6 -6 -6 -6 -6 -6 -6 -6 -6 -6 -6 -6 -6 -7 -7 -8 -9 -10 -10 -9 -8 -9 -9 -10 -11 -10 -10 -11 -13 -12 -11 -8 -7 -7 -7 -7 -8 -9 -8 -9 -9
-6 -6 -6 -6 -6 -6 -6 -7 -7 -7 -7 -7 -6 -6 -6 -7 -7 -7 -7 -7 -8 -8 -9 -9 -8 -8 -9 -10 -9 -11 -12 -12 -12 -12 -12 -9 -9 -8 -7 -8 -8 -9 -9 -9 -9
-6 -6 -6 -7 -6 -7 -7 -7 -7 -7 -7 -7 -7 -7 -7 -7 -7 -7 -8 -8 -9 -9 -10 -10 -10 -7 -10 -11 -12 -12 -12 -13 -13 -13 -13 -12 -9 -8 -8 -8 -9 -9 -10 -10 -10
-6 -7 -7 -7 -7 -7 -7 -8 -7 -7 -7 -7 -7 -8 -8 -8 -8 -8 -9 -10 -9 -9 -9 -12 -12 -10 -9 -10 -12 -13 -14 -14 -15 -12 -13 -13 -9 -9 -9 -9 -10 -10 -10 -11 -11
-7 -8 -7 -7 -8 -8 -8 -8 -7 -7 -8 -8 -8 -8 -8 -8 -9 -9 -9 -10 -11 -11 -11 -13 -14 -14 -12 -13 -14 -15 -15 -15 -15 -15 -15 -14 -10 -10 -10 -11 -11 -12 -12 -12 -12
-8 -8 -8 -8 -8 -8 -8 -8 -8 -8 -8 -8 -8 -8 -8 -8 -10 -9 -9 -10 -11 -12 -15 -16 -18 -17 -17 -17 -16 -16 -15 -16 -16 -15 -15 -15 -12 -10 -11 -12 -12 -12 -13 -13 -12
-8 -8 -8 -8 -8 -8 -8 -8 -8 -8 -8 -8 -8 -9 -9 -9 -9 -11 -13 -13 -14 -15 -17 -20 -20 -19 -17 -18 -18 -17 -16 -15 -15 -16 -16 -15 -15 -11 -12 -14 -13 -13 -13 -13 -12
-8 -8 -8 -8 -8 -8 -8 -8 -8 -8 -8 -9 -9 -9 -10 -11 -13 -13 -15 -17 -18 -18 -19 -21 -21 -21 -20 -17 -18 -18 -17 -16 -15 -16 -16 -16 -14 -14 -13 -13 -13 -14 -14 -14 -13
-8 -8 -8 -8 -9 -9 -9 -9 -9 -9 -9 -10 -10 -10 -12 -14 -16 -18 -21 -23 -23 -22 -21 -21 -23 -23 -23 -21 -19 -19 -19 -19 -17 -16 -16 -16 -16 -15 -14 -14 -12 -13 -14 -13 -14

GFSSW_500_temp_009.txt.gz
Temp
-15 -15 -14 -13 -13 -12 -11 -11 -11 -11 -10 -10 -10 -10 -10 -9 -9 -9 -9 -8 -8 -8 -8 -8 -8 -8 -7 -7 -7 -7 -6 -6 -5 -6 -5 -5 -5 -5 -5 -5 -5 -5 -5 -5 -5
-14 -14 -14 -13 -12 -12 -11 -11 -11 -11 -10 -10 -10 -10 -10 -9 -9 -9 -9 -9 -8 -8 -8 -8 -8 -7 -7 -7 -7 -7 -6 -6 -6 -6 -5 -5 -5 -5 -5 -5 -5 -5 -5 -5 -5
-14 -15 -14 -13 -12 -11 -11 -11 -11 -10 -10 -10 -10 -10 -10 -9 -9 -9 -9 -9 -9 -9 -8 -8 -8 -8 -8 -8 -7 -7 -6 -6 -6 -6 -6 -5 -5 -5 -5 -5 -5 -5 -5 -5 -6
-14 -14 -13 -12 -11 -11 -11 -10 -10 -10 -10 -10 -10 -9 -9 -9 -9 -9 -9 -9 -9 -8 -8 -8 -8 -8 -8 -7 -7 -7 -7 -6 -6 -6 -6 -5 -5 -5 -5 -5 -5 -5 -5 -5 -5
-14 -13 -12 -11 -11 -10 -10 -9 -9 -9 -9 -9 -9 -9 -9 -9 -9 -9 -9 -9 -8 -8 -8 -8 -8 -8 -7 -7 -7 -7 -7 -6 -6 -6 -6 -5 -5 -5 -5 -5 -5 -5 -5 -6 -6
-12 -12 -11 -10 -10 -10 -9 -9 -8 -8 -8 -9 -9 -9 -9 -8 -8 -8 -8 -8 -8 -8 -8 -8 -8 -7 -7 -7 -7 -6 -6 -6 -6 -6 -6 -5 -6 -5 -6 -5 -5 -5 -5 -5 -6
-10 -10 -10 -9 -9 -8 -8 -8 -8 -8 -8 -8 -8 -8 -8 -8 -8 -8 -8 -8 -8 -8 -7 -7 -7 -7 -7 -7 -7 -6 -6 -6 -6 -6 -6 -5 -5 -5 -6 -5 -5 -6 -6 -5 -6
-10 -9 -9 -8 -8 -8 -8 -8 -8 -8 -8 -8 -8 -8 -8 -8 -8 -8 -8 -8 -8 -7 -7 -7 -7 -7 -7 -7 -6 -6 -6 -6 -7 -7 -6 -6 -5 -6 -6 -5 -6 -5 -6 -6 -6
-9 -9 -9 -9 -9 -8 -8 -8 -8 -8 -8 -8 -8 -8 -7 -8 -8 -7 -7 -7 -7 -7 -7 -7 -7 -7 -7 -6 -6 -6 -6 -7 -7 -7 -6 -6 -5 -6 -6 -5 -5 -6 -6 -6 -6
-9 -8 -8 -8 -8 -8 -8 -8 -8 -8 -8 -8 -8 -8 -8 -8 -7 -7 -7 -7 -7 -7 -7 -7 -7 -7 -7 -7 -7 -7 -6 -6 -6 -7 -6 -6 -5 -6 -6 -6 -6 -6 -6 -6 -6
-8 -8 -8 -8 -8 -8 -8 -8 -8 -8 -8 -8 -8 -7 -7 -7 -8 -7 -7 -7 -7 -7 -7 -7 -6 -6 -7 -8 -7 -7 -6 -6 -7 -7 -7 -6 -6 -6 -6 -5 -6 -6 -6 -6 -6
-8 -8 -8 -8 -8 -8 -8 -8 -8 -8 -7 -8 -7 -8 -7 -7 -7 -7 -7 -7 -7 -7 -7 -6 -6 -8 -7 -7 -7 -7 -7 -7 -7 -8 -7 -7 -5 -6 -6 -6 -6 -6 -6 -6 -6
-7 -7 -7 -7 -8 -8 -8 -7 -7 -7 -7 -7 -7 -7 -7 -7 -7 -7 -7 -7 -7 -7 -7 -6 -7 -7 -7 -7 -7 -7 -7 -8 -8 -8 -7 -7 -4 -5 -6 -6 -6 -6 -7 -7 -7
-7 -7 -7 -7 -7 -7 -7 -7 -7 -7 -7 -7 -6 -6 -7 -7 -7 -7 -6 -6 -7 -7 -7 -6 -7 -7 -7 -7 -8 -7 -8 -8 -7 -8 -6 -7 -4 -4 -5 -6 -6 -7 -7 -7 -7
-7 -7 -7 -7 -7 -7 -7 -7 -7 -7 -6 -6 -6 -6 -7 -7 -7 -7 -7 -7 -7 -7 -7 -6 -7 -7 -7 -7 -8 -7 -8 -8 -8 -8 -8 -6 -7 -2 -4 -5 -6 -7 -7 -7 -7
-6 -6 -6 -6 -6 -6 -6 -6 -6 -6 -6 -6 -7 -7 -7 -7 -7 -7 -7 -7 -7 -7 -7 -7 -7 -7 -7 -8 -8 -8 -8 -8 -8 -8 -8 -6 -9 -3 -5 -5 -6 -7 -7 -7 -7
-6 -6 -6 -6 -6 -6 -6 -6 -6 -6 -6 -6 -6 -7 -7 -7 -7 -7 -7 -8 -8 -8 -8 -8 -7 -7 -8 -8 -9 -9 -10 -9 -9 -9 -7 -8 -9 -5 -5 -6 -7 -7 -8 -9 -8
-6 -6 -6 -6 -6 -6 -6 -6 -6 -6 -6 -6 -6 -6 -6 -7 -7 -7 -7 -7 -8 -8 -7 -6 -6 -8 -8 -9 -9 -9 -10 -10 -11 -10 -9 -10 -8 -5 -6 -7 -7 -8 -9 -9 -9
-6 -6 -6 -6 -6 -6 -6 -7 -6 -7 -7 -7 -7 -7 -7 -7 -7 -7 -7 -7 -7 -7 -7 -7 -6 -7 -7 -8 -10 -9 -10 -11 -12 -10 -12 -9 -7 -7 -7 -7 -8 -8 -9 -10 -10
-7 -7 -6 -6 -6 -7 -7 -7 -7 -7 -7 -7 -7 -7 -7 -7 -8 -8 -8 -8 -8 -8 -8 -8 -8 -7 -7 -8 -9 -11 -11 -12 -13 -13 -12 -10 -10 -8 -8 -8 -9 -9 -9 -10 -11
-7 -7 -7 -7 -7 -8 -8 -8 -8 -7 -7 -7 -8 -8 -8 -8 -8 -8 -8 -8 -8 -8 -9 -9 -9 -7 -8 -9 -9 -11 -13 -14 -16 -16 -15 -13 -10 -9 -9 -10 -10 -11 -11 -11 -11
-7 -7 -7 -7 -8 -8 -8 -8 -8 -8 -8 -8 -8 -8 -8 -8 -8 -8 -8 -8 -8 -9 -9 -11 -11 -10 -10 -10 -10 -12 -15 -16 -17 -16 -16 -16 -12 -11 -12 -12 -12 -12 -12 -11 -12
-7 -7 -8 -8 -8 -8 -8 -8 -8 -8 -8 -8 -8 -8 -8 -8 -9 -8 -9 -9 -8 -9 -10 -11 -12 -13 -11 -12 -12 -13 -15 -17 -18 -19 -17 -17 -15 -14 -13 -12 -12 -11 -12 -13 -13
-8 -8 -8 -8 -8 -8 -8 -8 -8 -8 -8 -8 -8 -8 -9 -9 -9 -9 -8 -9 -9 -10 -12 -14 -14 -16 -16 -15 -16 -15 -18 -18 -17 -17 -18 -16 -15 -15 -15 -14 -13 -12 -12 -12 -12
-8 -8 -8 -8 -8 -8 -8 -8 -8 -8 -9 -9 -8 -9 -9 -9 -9 -9 -9 -10 -10 -12 -14 -16 -17 -20 -19 -19 -20 -20 -19 -20 -19 -17 -17 -17 -17 -16 -15 -15 -14 -14 -14 -13 -13
-8 -8 -8 -8 -8 -8 -8 -8 -8 -8 -8 -9 -9 -9 -9 -9 -9 -9 -9 -10 -12 -14 -17 -21 -22 -22 -21 -21 -23 -24 -23 -21 -20 -19 -19 -18 -16 -17 -17 -15 -15 -14 -14 -14 -14
-8 -8 -8 -8 -8 -9 -9 -9 -9 -8 -9 -9 -10 -10 -10 -10 -10 -10 -11 -14 -16 -19 -22 -24 -24 -26 -25 -25 -25 -24 -23 -23 -23 -23 -22 -21 -21 -18 -16 -16 -16 -16 -16 -15 -14

GFSSW_500_temp_012.txt.gz
Temp
-14 -14 -13 -12 -12 -12 -12 -11 -11 -11 -10 -10 -10 -10 -9 -9 -9 -8 -8 -8 -8 -8 -8 -8 -8 -8 -8 -7 -7 -7 -6 -7 -6 -6 -6 -6 -5 -5 -5 -5 -5 -5 -5 -5 -5
-14 -13 -13 -12 -12 -12 -12 -11 -11 -11 -10 -10 -10 -10 -9 -9 -9 -8 -8 -8 -8 -8 -8 -8 -8 -8 -7 -7 -7 -7 -6 -7 -6 -6 -6 -5 -5 -5 -5 -5 -5 -5 -5 -5 -5
-14 -13 -13 -13 -12 -12 -11 -11 -11 -10 -10 -10 -10 -9 -9 -9 -9 -9 -8 -8 -8 -8 -8 -8 -8 -7 -7 -8 -7 -7 -7 -7 -6 -6 -6 -6 -5 -5 -5 -5 -5 -5 -5 -5 -5
-14 -13 -13 -12 -12 -12 -11 -11 -10 -10 -10 -9 -9 -9 -9 -9 -9 -9 -8 -9 -9 -9 -8 -8 -8 -8 -8 -7 -7 -7 -7 -7 -7 -6 -6 -6 -6 -5 -5 -5 -5 -5 -5 -5 -5
-13 -13 -12 -12 -11 -11 -10 -10 -10 -9 -9 -9 -9 -9 -9 -9 -9 -8 -8 -8 -9 -9 -8 -8 -8 -8 -8 -8 -7 -7 -7 -7 -7 -6 -6 -6 -6 -5 -5 -5 -5 -5 -5 -6 -6
-13 -13 -12 -11 -11 -10 -10 -9 -9 -9 -8 -9 -9 -9 -9 -9 -8 -8 -8 -8 -8 -8 -8 -8 -8 -8 -7 -7 -7 -7 -7 -7 -6 -6 -6 -6 -6 -5 -6 -6 -5 -5 -6 -6 -6
-12 -11 -11 -10 -10 -9 -9 -9 -8 -8 -8 -9 -9 -9 -8 -8 -9 -9 -8 -8 -8 -8 -8 -8 -8 -8 -7 -7 -7 -7 -7 -7 -6 -6 -6 -6 -6 -6 -6 -6 -6 -6 -5 -5 -6
-10 -10 -10 -9 -9 -9 -9 -9 -9 -9 -9 -9 -9 -9 -9 -8 -8 -8 -8 -8 -8 -8 -8 -7 -7 -7 -7 -7 -7 -7 -7 -7 -7 -7 -7 -6 -4 -6 -6 -6 -6 -6 -6 -6 -6
-10 -10 -10 -10 -9 -9 -9 -9 -9 -9 -9 -9 -9 -9 -8 -8 -8 -8 -8 -8 -8 -8 -8 -7 -7 -7 -7 -7 -7 -7 -7 -7 -7 -7 -6 -6 -5 -6 -6 -6 -6 -6 -6 -6 -6
-9 -9 -9 -9 -9 -8 -8 -9 -8 -8 -8 -8 -8 -8 -8 -8 -8 -8 -8 -8 -8 -8 -8 -7 -7 -7 -7 -7 -7 -7 -6 -6 -6 -7 -7 -6 -5 -6 -6 -6 -6 -6 -6 -6 -6
-8 -8 -8 -8 -8 -8 -8 -8 -8 -8 -8 -8 -8 -8 -8 -8 -8 -8 -8 -8 -8 -8 -8 -7 -7 -7 -8 -7 -7 -7 -7 -6 -7 -7 -7 -6 -5 -6 -6 -5 -6 -6 -6 -6 -6
-8 -8 -8 -8 -8 -8 -8 -8 -8 -8 -8 -8 -7 -8 -7 -7 -7 -7 -7 -7 -7 -7 -7 -7 -7 -7 -7 -7 -7 -7 -7 -7 -7 -8 -7 -6 -4 -5 -5 -5 -6 -6 -6 -6 -7
-8 -8 -8 -8 -8 -8 -8 -8 -8 -7 -7 -7 -7 -7 -7 -7 -7 -7 -7 -7 -7 -7 -7 -6 -7 -7 -7 -7 -7 -7 -7 -7 -7 -8 -7 -6 -3 -5 -5 -5 -5 -6 -7 -7 -7
-7 -7 -7 -7 -7 -7 -7 -7 -7 -7 -7 -7 -7 -7 -7 -7 -7 -7 -7 -7 -7 -7 -7 -6 -8 -8 -7 -7 -8 -7 -8 -8 -7 -7 -6 -7 -4 -4 -4 -5 -6 -6 -7 -7 -7
-7 -7 -7 -7 -7 -7 -7 -7 -7 -7 -7 -6 -7 -7 -7 -7 -7 -7 -7 -7 -7 -7 -7 -7 -7 -7 -7 -8 -8 -7 -8 -8 -8 -8 -8 -6 -7 -3 -4 -5 -6 -7 -7 -8 -7
-7 -7 -7 -7 -7 -7 -6 -6 -6 -7 -7 -7 -8 -8 -8 -7 -7 -7 -7 -8 -8 -7 -7 -7 -7 -7 -7 -8 -8 -8 -8 -8 -8 -9 -8 -6 -9 -4 -5 -6 -6 -7 -7 -8 -8
-7 -7 -6 -6 -6 -7 -7 -7 -7 -7 -7 -7 -7 -7 -8 -8 -8 -8 -8 -8 -8 -7 -7 -7 -7 -8 -8 -8 -8 -9 -9 -8 -8 -8 -7 -8 -10 -5 -5 -6 -7 -7 -8 -9 -9
-7 -7 -7 -7 -7 -7 -6 -6 -7 -7 -7 -7 -7 -7 -7 -7 -7 -7 -8 -8 -7 -8 -7 -7 -7 -7 -8 -8 -8 -8 -8 -10 -11 -9 -9 -9 -8 -6 -7 -7 -7 -8 -9 -9 -10
-7 -7 -7 -7 -7 -7 -7 -7 -7 -7 -7 -7 -8 -7 -7 -7 -7 -7 -7 -7 -7 -8 -8 -8 -7 -7 -8 -8 -9 -9 -10 -11 -12 -10 -12 -8 -8 -8 -8 -8 -8 -8 -9 -10 -11
-7 -7 -7 -7 -7 -7 -7 -7 -7 -8 -7 -7 -7 -7 -7 -7 -7 -7 -7 -8 -8 -8 -9 -8 -8 -8 -8 -8 -9 -10 -11 -12 -13 -14 -12 -11 -10 -9 -9 -9 -9 -8 -9 -10 -10
-8 -8 -7 -7 -7 -7 -8 -8 -8 -8 -7 -7 -7 -7 -7 -7 -7 -8 -8 -8 -8 -9 -9 -9 -9 -8 -8 -9 -9 -10 -11 -14 -15 -16 -18 -16 -12 -11 -11 -10 -10 -10 -11 -13 -12
-7 -8 -8 -8 -8 -8 -8 -8 -8 -8 -8 -8 -8 -8 -8 -8 -8 -8 -8 -9 -9 -9 -9 -9 -9 -8 -8 -9 -10 -12 -13 -15 -17 -18 -18 -18 -15 -13 -15 -14 -13 -13 -12 -12 -15
-7 -7 -8 -8 -8 -8 -8 -8 -8 -8 -8 -8 -8 -8 -8 -8 -8 -8 -9 -9 -10 -10 -10 -10 -9 -9 -8 -9 -11 -13 -14 -17 -21 -20 -20 -19 -18 -16 -15 -15 -16 -15 -13 -13 -14
-8 -8 -8 -8 -8 -8 -8 -8 -8 -8 -8 -8 -8 -8 -8 -8 -9 -9 -9 -10 -10 -10 -10 -10 -10 -11 -11 -12 -13 -14 -17 -19 -22 -22 -21 -19 -18 -17 -18 -17 -17 -17 -16 -15 -14
-8 -8 -8 -8 -8 -8 -8 -8 -8 -8 -9 -9 -8 -9 -9 -9 -9 -9 -10 -10 -10 -10 -10 -11 -11 -13 -14 -18 -20 -21 -21 -21 -23 -24 -25 -23 -23 -21 -20 -18 -18 -17 -17 -17 -16
-9 -9 -9 -9 -9 -9 -9 -8 -9 -9 -9 -9 -9 -9 -9 -9 -10 -10 -10 -10 -11 -10 -10 -12 -13 -18 -17 -23 -24 -24 -24 -25 -25 -25 -25 -25 -24 -24 -23 -21 -20 -19 -18 -17 -16
-9 -9 -9 -10 -10 -9 -9 -9 -9 -9 -9 -9 -9 -9 -10 -10 -10 -11 -11 -11 -11 -11 -12 -14 -17 -22 -22 -25 -26 -26 -25 -25 -25 -25 -25 -25 -25 -25 -24 -24 -22 -20 -19 -18 -17

GFSSW_500_temp_015.txt.gz
Temp
-14 -13 -12 -12 -12 -11 -11 -10 -10 -10 -10 -10 -10 -10 -9 -9 -9 -9 -8 -8 -8 -8 -8 -8 -8 -8 -8 -7 -7 -7 -7 -7 -7 -7 -7 -6 -5 -5 -5 -5 -5 -5 -5 -5 -5
-13 -13 -12 -12 -12 -12 -11 -11 -11 -10 -10 -10 -10 -9 -9 -9 -9 -9 -8 -8 -8 -8 -8 -8 -8 -8 -8 -7 -7 -7 -6 -7 -7 -6 -7 -6 -5 -5 -5 -5 -5 -5 -5 -5 -5
-13 -13 -12 -12 -12 -12 -11 -11 -10 -10 -10 -10 -10 -9 -9 -9 -9 -8 -8 -8 -8 -8 -7 -8 -8 -8 -8 -7 -7 -6 -6 -7 -7 -6 -6 -6 -6 -5 -5 -6 -5 -5 -5 -5 -6
-13 -13 -13 -12 -12 -12 -11 -10 -10 -10 -10 -10 -10 -9 -9 -9 -9 -8 -8 -8 -8 -8 -7 -7 -8 -8 -8 -7 -7 -6 -7 -7 -7 -6 -6 -6 -6 -5 -5 -6 -6 -6 -5 -6 -6
-13 -13 -12 -12 -12 -11 -10 -10 -10 -9 -9 -9 -9 -9 -9 -9 -9 -8 -8 -8 -8 -8 -7 -7 -8 -8 -8 -7 -7 -6 -7 -7 -7 -7 -7 -6 -6 -6 -6 -6 -6 -6 -6 -6 -6
-13 -12 -12 -12 -11 -10 -10 -10 -9 -9 -9 -9 -9 -9 -9 -9 -9 -9 -8 -8 -8 -8 -8 -8 -8 -8 -8 -7 -7 -7 -8 -7 -7 -7 -7 -6 -6 -6 -7 -7 -6 -6 -6 -6 -6
-12 -11 -11 -10 -10 -9 -9 -9 -9 -9 -9 -9 -9 -9 -9 -9 -9 -9 -9 -8 -8 -8 -8 -8 -8 -8 -8 -8 -7 -7 -7 -7 -8 -8 -7 -7 -6 -6 -7 -6 -6 -6 -6 -6 -6
-11 -11 -10 -10 -9 -9 -9 -9 -9 -9 -10 -10 -10 -9 -9 -9 -9 -9 -8 -8 -8 -8 -8 -8 -8 -8 -8 -8 -7 -7 -7 -7 -8 -8 -7 -6 -5 -7 -6 -6 -6 -6 -6 -6 -6
-10 -10 -10 -10 -10 -10 -10 -10 -10 -10 -10 -10 -10 -9 -9 -9 -9 -9 -9 -8 -8 -8 -8 -8 -8 -8 -7 -7 -7 -7 -7 -7 -7 -7 -7 -6 -5 -6 -6 -6 -6 -6 -6 -6 -6
-10 -10 -10 -10 -10 -10 -10 -9 -9 -9 -9 -9 -9 -9 -9 -9 -8 -8 -8 -8 -8 -8 -8 -8 -8 -8 -8 -8 -7 -7 -7 -7 -7 -7 -7 -6 -5 -6 -6 -6 -6 -6 -6 -6 -6
-9 -9 -9 -9 -9 -8 -8 -8 -8 -8 -8 -9 -8 -8 -8 -8 -8 -8 -8 -8 -8 -8 -8 -8 -8 -8 -7 -7 -7 -7 -7 -7 -7 -8 -6 -6 -5 -5 -6 -5 -5 -6 -6 -6 -7
-9 -9 -8 -8 -8 -8 -8 -8 -8 -8 -8 -8 -8 -8 -8 -7 -7 -7 -7 -7 -7 -7 -7 -7 -7 -8 -7 -7 -7 -7 -7 -7 -7 -7 -7 -6 -5 -5 -6 -6 -6 -6 -7 -7 -7
-8 -8 -8 -8 -8 -8 -8 -8 -8 -8 -8 -8 -8 -7 -7 -8 -8 -7 -7 -7 -7 -7 -7 -7 -8 -7 -7 -7 -8 -7 -7 -7 -7 -7 -7 -7 -5 -5 -6 -6 -7 -7 -7 -7 -8
-8 -8 -8 -8 -8 -8 -7 -8 -8 -7 -7 -7 -7 -7 -7 -7 -7 -7 -7 -7 -7 -7 -7 -7 -8 -8 -8 -8 -8 -7 -8 -8 -8 -8 -7 -7 -5 -5 -6 -6 -6 -7 -7 -8 -8
-7 -7 -7 -7 -7 -7 -7 -7 -7 -7 -7 -7 -7 -7 -7 -7 -7 -7 -7 -7 -7 -7 -7 -7 -7 -7 -8 -8 -8 -7 -8 -8 -8 -8 -7 -7 -7 -5 -6 -6 -6 -7 -7 -7 -8
-7 -7 -7 -7 -7 -7 -7 -7 -7 -7 -7 -7 -7 -7 -7 -7 -7 -7 -7 -7 -7 -7 -7 -8 -8 -8 -8 -8 -8 -9 -8 -8 -9 -9 -8 -8 -9 -5 -6 -6 -7 -7 -8 -8 -9
-8 -7 -7 -7 -7 -7 -7 -7 -7 -7 -7 -7 -7 -7 -7 -7 -7 -7 -7 -7 -7 -7 -7 -8 -8 -8 -8 -9 -8 -9 -9 -9 -9 -9 -8 -9 -9 -6 -7 -8 -8 -8 -8 -8 -9
-7 -8 -7 -7 -7 -7 -7 -7 -7 -7 -8 -8 -8 -7 -7 -8 -7 -7 -7 -7 -7 -8 -7 -7 -7 -8 -8 -8 -8 -9 -9 -10 -10 -9 -9 -10 -9 -7 -8 -8 -8 -8 -8 -9 -9
-8 -7 -7 -7 -7 -7 -7 -7 -7 -7 -8 -8 -7 -7 -8 -8 -7 -8 -8 -7 -7 -7 -8 -8 -8 -8 -8 -9 -9 -9 -9 -11 -11 -10 -11 -9 -9 -8 -9 -10 -10 -9 -9 -10 -10
-8 -8 -7 -7 -7 -7 -7 -7 -7 -7 -7 -7 -8 -7 -7 -7 -7 -8 -8 -8 -8 -8 -8 -8 -8 -8 -9 -9 -10 -10 -11 -11 -12 -13 -12 -11 -11 -10 -10 -11 -11 -11 -11 -10 -11
-8 -8 -7 -7 -7 -7 -7 -8 -8 -8 -8 -7 -7 -8 -8 -8 -8 -8 -8 -8 -8 -9 -9 -9 -9 -9 -9 -9 -10 -10 -10 -11 -13 -15 -18 -15 -12 -12 -12 -13 -14 -13 -13 -12 -12
-8 -8 -8 -8 -8 -8 -8 -8 -8 -8 -8 -8 -8 -8 -8 -8 -8 -9 -9 -9 -9 -9 -9 -10 -9 -9 -9 -10 -10 -10 -11 -12 -16 -15 -17 -22 -20 -15 -18 -18 -18 -17 -17 -15 -16
-8 -8 -8 -8 -8 -8 -8 -8 -8 -8 -8 -8 -8 -8 -8 -9 -9 -9 -9 -9 -9 -10 -10 -10 -9 -9 -9 -9 -10 -11 -11 -12 -15 -20 -20 -24 -23 -21 -20 -21 -21 -20 -19 -19 -19
-8 -8 -8 -8 -8 -8 -8 -8 -8 -8 -9 -9 -9 -9 -9 -9 -9 -9 -9 -9 -10 -10 -10 -10 -10 -11 -11 -11 -11 -11 -12 -13 -18 -22 -25 -25 -26 -25 -25 -23 -21 -21 -21 -20 -19
-9 -8 -8 -8 -8 -9 -9 -9 -9 -9 -9 -9 -9 -9 -10 -9 -9 -10 -10 -10 -10 -11 -11 -11 -11 -11 -11 -12 -12 -14 -15 -20 -24 -26 -27 -27 -27 -26 -25 -24 -24 -23 -23 -21 -22
-9 -9 -9 -9 -9 -9 -9 -9 -9 -10 -10 -10 -10 -10 -10 -10 -10 -10 -11 -11 -11 -11 -11 -11 -12 -12 -12 -12 -14 -16 -21 -25 -27 -27 -27 -26 -26 -26 -25 -25 -25 -25 -25 -24 -24
-10 -10 -9 -9 -9 -9 -9 -9 -9 -9 -10 -10 -10 -10 -10 -11 -11 -11 -11 -11 -11 -11 -12 -12 -12 -12 -12 -14 -17 -21 -24 -26 -27 -27 -27 -26 -26 -26 -25 -25 -25 -25 -25 -25 -24

GFSSW_500_temp_018.txt.gz
Temp
-13 -13 -13 -12 -11 -11 -10 -10 -10 -10 -10 -9 -9 -9 -9 -9 -9 -8 -8 -8 -8 -8 -8 -8 -8 -8 -7 -7 -7 -7 -7 -7 -8 -7 -7 -7 -6 -6 -6 -6 -5 -5 -5 -5 -5
-13 -12 -12 -11 -11 -11 -10 -10 -10 -10 -10 -9 -9 -9 -9 -9 -9 -8 -8 -8 -8 -8 -8 -8 -8 -7 -7 -7 -7 -7 -7 -7 -7 -7 -7 -6 -6 -6 -6 -6 -6 -6 -5 -5 -5
-13 -12 -12 -11 -11 -11 -11 -10 -10 -10 -9 -9 -9 -9 -9 -9 -9 -8 -8 -8 -8 -8 -8 -8 -8 -7 -7 -7 -7 -7 -7 -7 -7 -7 -6 -6 -6 -6 -6 -6 -6 -5 -5 -6 -6
-12 -12 -12 -12 -11 -11 -11 -10 -10 -9 -9 -9 -9 -9 -9 -9 -9 -8 -8 -8 -8 -8 -8 -8 -7 -7 -7 -7 -7 -7 -7 -7 -7 -7 -7 -6 -6 -6 -6 -6 -6 -6 -6 -6 -6
-13 -12 -12 -12 -11 -11 -11 -10 -10 -9 -9 -9 -9 -9 -9 -9 -9 -9 -8 -8 -8 -8 -8 -8 -8 -7 -7 -7 -7 -6 -7 -7 -7 -7 -7 -7 -7 -6 -6 -7 -7 -6 -6 -6 -6
-12 -12 -12 -11 -11 -11 -10 -10 -9 -9 -9 -9 -9 -9 -9 -9 -9 -9 -8 -8 -8 -8 -8 -8 -8 -8 -7 -7 -7 -7 -7 -8 -7 -8 -7 -7 -6 -6 -7 -6 -6 -6 -6 -6 -6
-12 -12 -11 -11 -11 -10 -9 -9 -9 -9 -9 -10 -9 -9 -9 -9 -9 -9 -9 -9 -9 -9 -8 -8 -8 -8 -8 -7 -7 -7 -7 -7 -8 -8 -7 -6 -6 -7 -6 -6 -7 -7 -6 -6 -6
-11 -11 -11 -10 -10 -9 -9 -9 -9 -9 -9 -10 -10 -9 -9 -9 -9 -9 -9 -9 -9 -9 -9 -8 -8 -8 -8 -8 -7 -7 -7 -7 -7 -7 -7 -6 -6 -7 -7 -7 -7 -7 -7 -6 -6
-11 -10 -10 -10 -9 -9 -9 -10 -9 -9 -10 -10 -10 -9 -9 -9 -9 -9 -9 -9 -8 -8 -8 -8 -8 -8 -8 -8 -8 -7 -7 -7 -7 -8 -7 -7 -6 -7 -7 -7 -7 -7 -7 -7 -7
-10 -10 -10 -9 -9 -10 -10 -10 -10 -10 -10 -9 -9 -9 -9 -9 -9 -9 -8 -8 -8 -8 -8 -8 -8 -8 -8 -7 -7 -7 -7 -7 -7 -7 -7 -6 -6 -6 -7 -6 -6 -7 -7 -7 -7
-9 -9 -9 -9 -9 -9 -9 -9 -9 -9 -9 -9 -9 -9 -9 -8 -8 -8 -8 -8 -8 -8 -8 -8 -8 -8 -8 -8 -8 -7 -7 -7 -7 -7 -6 -6 -6 -6 -7 -7 -7 -7 -7 -7 -8
-9 -9 -9 -9 -9 -9 -9 -9 -9 -9 -8 -8 -8 -8 -8 -8 -8 -8 -8 -8 -8 -8 -8 -8 -8 -8 -8 -7 -7 -8 -7 -7 -7 -7 -7 -6 -6 -6 -7 -7 -7 -7 -7 -8 -8
-9 -9 -9 -8 -8 -8 -8 -8 -8 -8 -8 -8 -8 -8 -8 -8 -7 -7 -7 -7 -7 -7 -7 -8 -8 -8 -8 -8 -8 -8 -8 -7 -7 -7 -8 -7 -5 -6 -6 -7 -7 -7 -7 -8 -8
-8 -8 -8 -8 -8 -8 -8 -8 -8 -8 -8 -7 -7 -7 -7 -7 -7 -7 -7 -7 -7 -7 -7 -7 -8 -8 -8 -8 -8 -8 -8 -8 -8 -8 -8 -7 -5 -6 -6 -6 -7 -7 -7 -7 -8
-8 -8 -8 -8 -8 -8 -8 -8 -7 -7 -7 -7 -7 -7 -7 -7 -7 -7 -7 -7 -7 -7 -7 -8 -8 -8 -8 -8 -8 -8 -8 -8 -8 -8 -8 -8 -7 -6 -7 -7 -8 -7 -8 -8 -8
-7 -7 -7 -7 -7 -7 -7 -7 -7 -7 -7 -7 -7 -7 -7 -7 -7 -7 -7 -7 -7 -7 -7 -8 -8 -8 -8 -8 -8 -8 -8 -8 -8 -8 -7 -7 -7 -5 -7 -7 -8 -8 -9 -9 -10
-8 -8 -8 -8 -7 -7 -7 -7 -7 -7 -7 -7 -7 -7 -8 -8 -8 -8 -8 -8 -8 -7 -7 -8 -8 -8 -8 -8 -8 -8 -8 -9 -8 -8 -8 -8 -8 -7 -9 -9 -9 -8 -8 -9 -9
-8 -8 -8 -8 -8 -7 -7 -7 -8 -8 -8 -8 -8 -8 -8 -8 -8 -8 -8 -8 -8 -8 -8 -8 -8 -8 -8 -8 -9 -9 -9 -9 -9 -9 -9 -9 -9 -9 -10 -10 -9 -9 -9 -9 -9
-8 -7 -7 -7 -7 -7 -7 -7 -7 -8 -8 -8 -8 -8 -8 -8 -8 -8 -7 -8 -8 -8 -8 -8 -8 -8 -8 -9 -9 -9 -9 -10 -10 -10 -10 -9 -10 -9 -10 -11 -10 -10 -9 -10 -10
-7 -7 -7 -7 -7 -7 -7 -7 -7 -8 -8 -8 -8 -8 -8 -8 -8 -8 -8 -8 -8 -8 -8 -8 -8 -8 -9 -9 -10 -10 -10 -10 -10 -11 -11 -10 -10 -10 -10 -11 -12 -11 -12 -12 -12
-8 -8 -7 -7 -7 -7 -7 -7 -7 -8 -8 -8 -8 -8 -8 -8 -8 -8 -8 -8 -9 -9 -9 -9 -9 -9 -9 -10 -10 -10 -10 -10 -11 -11 -12 -12 -10 -11 -13 -14 -14 -14 -14 -16 -15
-8 -8 -8 -8 -8 -8 -8 -8 -8 -8 -8 -8 -8 -8 -8 -8 -8 -9 -9 -9 -9 -9 -9 -9 -9 -10 -10 -10 -10 -10 -10 -11 -11 -12 -12 -14 -11 -12 -13 -16 -18 -18 -19 -20 -21
-8 -8 -8 -8 -8 -8 -8 -8 -8 -8 -8 -8 -8 -8 -8 -8 -9 -9 -9 -10 -10 -10 -10 -10 -10 -10 -10 -10 -10 -11 -11 -12 -12 -12 -12 -14 -15 -17 -18 -21 -24 -24 -24 -24 -24
-8 -8 -8 -8 -8 -8 -8 -8 -8 -8 -8 -8 -8 -8 -8 -8 -9 -10 -10 -10 -11 -11 -11 -11 -11 -11 -11 -11 -11 -11 -12 -12 -12 -13 -14 -16 -21 -22 -24 -25 -26 -25 -26 -25 -25
-9 -9 -8 -8 -9 -9 -9 -9 -8 -8 -8 -8 -9 -9 -9 -10 -10 -11 -11 -11 -12 -12 -12 -12 -11 -11 -11 -12 -12 -12 -12 -13 -13 -15 -17 -20 -25 -25 -26 -26 -26 -25 -25 -25 -25
-9 -9 -9 -9 -9 -9 -9 -9 -9 -9 -9 -9 -9 -9 -10 -10 -11 -11 -11 -11 -12 -12 -11 -11 -11 -11 -11 -12 -12 -12 -13 -15 -18 -21 -23 -25 -25 -26 -26 -26 -26 -26 -26 -26 -26
-10 -9 -9 -9 -9 -9 -9 -10 -10 -9 -9 -9 -10 -11 -11 -11 -12 -12 -12 -12 -12 -12 -11 -12 -12 -12 -12 -13 -13 -13 -16 -18 -20 -24 -25 -26 -26 -26 -26 -26 -26 -26 -26 -26 -26

GFSSW_500_temp_021.txt.gz
Temp
-13 -13 -12 -11 -10 -10 -9 -10 -10 -10 -9 -9 -9 -9 -9 -9 -9 -8 -8 -8 -8 -8 -8 -8 -8 -8 -7 -7 -7 -7 -7 -7 -7 -7 -7 -6 -7 -6 -6 -6 -6 -6 -5 -5 -5
-13 -12 -11 -11 -10 -10 -10 -10 -10 -10 -9 -9 -9 -9 -9 -9 -9 -9 -8 -8 -8 -8 -8 -8 -8 -8 -7 -7 -7 -7 -7 -8 -7 -7 -7 -7 -7 -7 -6 -6 -6 -6 -5 -5 -5
-13 -12 -11 -11 -10 -10 -10 -10 -10 -10 -9 -9 -9 -9 -9 -9 -9 -9 -8 -8 -8 -8 -8 -8 -8 -8 -7 -7 -7 -7 -7 -7 -7 -7 -7 -7 -7 -7 -6 -6 -7 -6 -6 -6 -6
-12 -12 -11 -11 -11 -10 -10 -10 -10 -10 -9 -9 -9 -9 -9 -9 -9 -8 -8 -8 -8 -8 -8 -8 -8 -8 -8 -7 -7 -7 -7 -7 -7 -7 -7 -7 -6 -7 -6 -6 -6 -7 -6 -6 -6
-12 -12 -11 -11 -11 -10 -10 -10 -10 -10 -9 -9 -9 -9 -9 -9 -9 -8 -8 -8 -8 -8 -8 -8 -8 -8 -7 -7 -7 -7 -7 -7 -7 -7 -7 -7 -7 -6 -6 -7 -6 -6 -6 -6 -6
-12 -12 -11 -11 -11 -11 -10 -10 -10 -9 -9 -9 -9 -9 -9 -9 -9 -8 -8 -8 -8 -8 -8 -8 -8 -8 -7 -7 -7 -7 -7 -7 -7 -7 -7 -6 -7 -6 -7 -7 -8 -7 -7 -6 -6
-12 -12 -11 -11 -11 -10 -10 -9 -9 -9 -9 -9 -9 -9 -9 -9 -9 -9 -9 -9 -9 -9 -9 -9 -9 -9 -8 -8 -8 -8 -7 -7 -7 -7 -7 -6 -6 -7 -7 -7 -7 -8 -7 -7 -7
-11 -11 -11 -10 -10 -10 -9 -9 -9 -9 -9 -9 -9 -9 -9 -9 -9 -9 -9 -9 -9 -9 -9 -9 -9 -9 -8 -8 -8 -8 -8 -7 -7 -7 -7 -7 -6 -7 -7 -7 -7 -7 -8 -8 -7
-11 -11 -11 -11 -10 -10 -10 -10 -10 -10 -10 -10 -10 -10 -10 -9 -9 -9 -9 -9 -8 -8 -8 -8 -8 -8 -8 -8 -8 -8 -7 -8 -7 -7 -7 -7 -6 -7 -7 -7 -7 -7 -7 -8 -8
-11 -11 -10 -10 -10 -10 -10 -10 -10 -10 -10 -10 -10 -9 -9 -9 -9 -8 -8 -8 -8 -8 -8 -8 -8 -8 -8 -8 -8 -8 -7 -7 -7 -8 -6 -7 -7 -7 -7 -7 -7 -7 -7 -8 -8
-9 -9 -9 -9 -9 -9 -9 -9 -9 -9 -9 -9 -9 -8 -8 -8 -8 -8 -8 -8 -8 -8 -8 -8 -8 -8 -8 -7 -8 -8 -7 -7 -7 -8 -7 -7 -6 -7 -7 -7 -7 -7 -7 -7 -8
-9 -9 -9 -9 -9 -9 -9 -9 -9 -9 -9 -8 -8 -8 -8 -8 -8 -8 -8 -8 -8 -8 -8 -8 -8 -8 -8 -8 -7 -7 -7 -7 -7 -7 -7 -7 -6 -7 -7 -8 -8 -8 -8 -8 -8
-9 -9 -9 -9 -9 -9 -9 -9 -9 -9 -8 -8 -8 -8 -8 -7 -7 -7 -7 -7 -7 -7 -7 -8 -7 -7 -7 -7 -7 -7 -7 -7 -7 -7 -7 -7 -6 -7 -7 -7 -7 -7 -7 -7 -8
-9 -9 -9 -9 -9 -9 -9 -9 -9 -8 -8 -8 -8 -8 -7 -7 -7 -7 -7 -7 -7 -7 -7 -7 -7 -7 -7 -7 -7 -7 -7 -8 -8 -7 -7 -8 -7 -7 -8 -8 -7 -7 -7 -8 -8
-8 -9 -8 -8 -8 -8 -8 -8 -8 -8 -8 -8 -7 -7 -7 -7 -7 -7 -7 -7 -7 -7 -8 -8 -7 -8 -8 -8 -8 -8 -8 -8 -8 -8 -8 -8 -8 -8 -9 -8 -8 -8 -8 -8 -8
-8 -8 -8 -8 -8 -8 -8 -8 -8 -8 -8 -8 -8 -8 -8 -8 -7 -7 -7 -7 -7 -8 -7 -8 -7 -8 -8 -8 -8 -8 -8 -8 -8 -8 -8 -8 -8 -8 -11 -10 -9 -9 -9 -9 -9
-8 -8 -8 -8 -8 -8 -7 -7 -7 -8 -8 -8 -8 -8 -8 -8 -8 -7 -7 -8 -8 -8 -7 -8 -7 -8 -8 -8 -8 -8 -8 -8 -8 -9 -9 -9 -8 -9 -13 -10 -10 -9 -9 -9 -9
-8 -8 -8 -8 -7 -7 -7 -7 -8 -8 -8 -8 -8 -8 -8 -8 -8 -8 -8 -8 -8 -8 -8 -8 -8 -8 -8 -9 -9 -9 -9 -9 -9 -10 -9 -10 -10 -10 -13 -11 -10 -10 -10 -9 -9
-8 -7 -7 -7 -7 -7 -7 -7 -7 -8 -8 -8 -8 -8 -8 -8 -7 -7 -8 -8 -8 -8 -8 -8 -8 -8 -8 -9 -9 -9 -9 -10 -10 -10 -10 -9 -10 -10 -12 -11 -12 -12 -12 -12 -12
-8 -7 -7 -7 -7 -7 -7 -7 -8 -8 -8 -8 -8 -8 -7 -8 -7 -7 -7 -8 -8 -8 -8 -8 -8 -9 -9 -9 -10 -10 -10 -10 -11 -11 -11 -10 -11 -11 -11 -12 -12 -12 -15 -15 -14
-8 -7 -7 -7 -7 -7 -7 -7 -8 -8 -8 -8 -8 -8 -8 -8 -8 -8 -8 -8 -8 -8 -9 -9 -9 -10 -9 -10 -10 -10 -11 -11 -10 -11 -12 -11 -9 -12 -13 -13 -13 -13 -12 -14 -14
-8 -8 -8 -7 -7 -7 -7 -8 -8 -8 -8 -8 -8 -8 -8 -8 -8 -8 -8 -8 -9 -9 -9 -9 -10 -10 -10 -10 -10 -10 -10 -11 -11 -11 -11 -13 -11 -11 -12 -12 -13 -14 -16 -18 -20
-8 -8 -8 -8 -8 -8 -8 -8 -8 -8 -8 -8 -8 -8 -8 -8 -8 -8 -8 -9 -9 -9 -9 -10 -10 -10 -10 -10 -10 -11 -11 -11 -12 -12 -12 -13 -12 -13 -12 -13 -14 -16 -23 -25 -25
-9 -8 -8 -8 -8 -8 -8 -8 -8 -8 -8 -8 -8 -8 -8 -8 -9 -9 -9 -9 -10 -10 -10 -10 -11 -11 -11 -11 -11 -11 -12 -12 -13 -13 -13 -13 -14 -14 -17 -19 -19 -23 -25 -25 -25
-9 -9 -9 -9 -9 -9 -9 -9 -9 -8 -8 -8 -8 -9 -9 -9 -9 -10 -10 -10 -11 -11 -12 -12 -12 -12 -12 -12 -12 -12 -12 -13 -13 -13 -13 -13 -15 -17 -21 -25 -25 -25 -25 -26 -26
-9 -10 -10 -10 -10 -9 -9 -9 -9 -9 -9 -9 -9 -9 -9 -10 -10 -11 -11 -11 -12 -12 -12 -12 -12 -12 -12 -13 -13 -12 -13 -13 -13 -13 -14 -17 -17 -23 -23 -25 -25 -26 -26 -26 -26
-10 -10 -10 -10 -10 -10 -10 -10 -9 -10 -9 -9 -10 -10 -10 -11 -11 -11 -12 -12 -13 -13 -13 -13 -13 -13 -13 -13 -13 -13 -13 -14 -15 -15 -16 -20 -21 -24 -25 -25 -26 -26 -26 -26 -26

GFSSW_500_temp_024.txt.gz
Temp
-13 -12 -12 -12 -11 -10 -10 -10 -10 -10 -9 -9 -9 -9 -9 -9 -8 -8 -8 -8 -8 -8 -8 -8 -8 -8 -8 -7 -7 -7 -7 -7 -7 -7 -7 -7 -7 -7 -6 -7 -6 -6 -6 -5 -5
-13 -12 -12 -11 -11 -10 -10 -10 -10 -10 -9 -9 -9 -9 -9 -9 -8 -8 -8 -8 -8 -8 -8 -8 -8 -8 -8 -7 -7 -7 -7 -7 -7 -7 -7 -7 -7 -7 -7 -6 -6 -6 -6 -5 -5
-13 -12 -11 -11 -10 -10 -10 -10 -10 -10 -9 -9 -9 -9 -9 -9 -9 -9 -8 -8 -8 -8 -8 -8 -8 -8 -8 -8 -7 -7 -7 -7 -7 -7 -7 -7 -7 -7 -6 -7 -7 -7 -6 -6 -5
-13 -12 -11 -11 -10 -10 -10 -10 -10 -10 -9 -9 -9 -9 -9 -9 -9 -9 -8 -8 -8 -8 -8 -8 -8 -8 -8 -8 -7 -7 -7 -7 -7 -7 -7 -7 -6 -7 -6 -7 -8 -7 -7 -7 -5
-12 -11 -11 -10 -10 -10 -10 -10 -10 -10 -9 -9 -9 -9 -9 -9 -9 -9 -8 -8 -8 -8 -8 -8 -8 -8 -8 -8 -7 -7 -7 -7 -7 -7 -7 -6 -7 -6 -7 -7 -7 -7 -7 -7 -7
-11 -11 -11 -10 -10 -10 -10 -10 -10 -10 -9 -9 -9 -9 -9 -9 -9 -8 -8 -8 -8 -8 -8 -8 -8 -8 -8 -8 -8 -8 -7 -8 -7 -7 -7 -6 -7 -6 -7 -7 -7 -8 -8 -7 -7
-12 -11 -11 -11 -11 -10 -10 -10 -10 -10 -9 -9 -9 -9 -9 -9 -9 -8 -8 -8 -8 -8 -8 -8 -8 -8 -8 -8 -8 -8 -7 -8 -8 -7 -7 -7 -7 -7 -7 -7 -7 -8 -8 -8 -8
-12 -11 -11 -11 -10 -10 -10 -10 -10 -9 -9 -9 -9 -9 -9 -9 -9 -9 -9 -9 -9 -9 -8 -8 -8 -8 -8 -8 -8 -8 -8 -7 -7 -7 -7 -7 -7 -8 -7 -7 -7 -7 -7 -8 -8
-11 -11 -10 -10 -10 -10 -10 -10 -10 -10 -10 -9 -9 -9 -9 -9 -9 -9 -9 -8 -8 -8 -8 -8 -8 -8 -8 -8 -8 -8 -7 -7 -7 -8 -7 -6 -7 -7 -8 -7 -7 -7 -7 -7 -8
-11 -10 -10 -10 -10 -10 -10 -10 -10 -10 -10 -10 -10 -10 -9 -9 -9 -8 -8 -8 -8 -8 -8 -8 -8 -8 -8 -7 -7 -7 -7 -7 -7 -7 -7 -7 -6 -7 -8 -7 -7 -7 -7 -8 -8
-10 -10 -10 -10 -10 -10 -10 -9 -9 -9 -9 -9 -9 -8 -8 -8 -8 -8 -8 -8 -8 -8 -7 -8 -7 -7 -8 -7 -7 -7 -7 -7 -7 -7 -7 -7 -7 -8 -8 -8 -8 -7 -7 -8 -8
-9 -9 -9 -9 -10 -10 -10 -9 -9 -9 -9 -9 -9 -9 -8 -8 -8 -8 -8 -7 -7 -7 -7 -7 -7 -8 -7 -7 -7 -7 -7 -7 -7 -7 -7 -7 -7 -8 -8 -8 -7 -8 -8 -7 -7
-9 -9 -9 -9 -9 -9 -9 -9 -9 -9 -8 -8 -8 -8 -8 -8 -8 -8 -7 -7 -7 -7 -7 -7 -7 -7 -7 -7 -7 -7 -7 -7 -7 -8 -8 -7 -8 -8 -8 -7 -7 -7 -7 -8 -8
-9 -9 -9 -9 -9 -9 -9 -9 -9 -9 -8 -8 -8 -8 -8 -8 -7 -7 -7 -7 -7 -7 -7 -7 -7 -7 -7 -7 -7 -7 -8 -8 -8 -8 -8 -8 -8 -9 -8 -8 -7 -7 -8 -8 -8
-9 -9 -9 -9 -9 -9 -9 -9 -8 -8 -8 -8 -8 -8 -8 -8 -8 -8 -8 -7 -8 -8 -7 -7 -7 -7 -8 -8 -8 -8 -8 -8 -8 -8 -8 -9 -9 -10 -9 -8 -9 -9 -8 -8 -8
-8 -8 -8 -8 -8 -8 -8 -8 -8 -8 -8 -8 -8 -8 -8 -8 -8 -8 -7 -8 -8 -8 -7 -7 -7 -7 -8 -8 -8 -8 -8 -9 -9 -9 -9 -9 -9 -11 -11 -10 -9 -9 -9 -9 -9
-8 -8 -8 -8 -8 -8 -8 -8 -8 -8 -8 -8 -8 -8 -8 -8 -8 -7 -7 -8 -7 -7 -6 -6 -6 -6 -7 -8 -8 -8 -8 -8 -9 -9 -9 -10 -11 -12 -12 -11 -10 -10 -10 -10 -10
-8 -8 -8 -8 -8 -8 -7 -8 -8 -8 -8 -8 -8 -8 -7 -7 -7 -7 -7 -6 -7 -7 -7 -7 -7 -7 -7 -8 -9 -9 -9 -9 -9 -10 -10 -11 -11 -13 -12 -11 -11 -11 -12 -12 -12
-8 -8 -8 -8 -8 -8 -8 -8 -8 -8 -8 -8 -8 -7 -8 -7 -7 -7 -7 -7 -7 -7 -8 -7 -8 -8 -8 -9 -9 -9 -9 -10 -10 -10 -10 -10 -11 -13 -11 -12 -12 -13 -14 -15 -15
-8 -8 -8 -8 -8 -8 -8 -8 -8 -8 -8 -8 -8 -7 -7 -7 -7 -7 -7 -7 -7 -8 -8 -7 -7 -9 -9 -9 -10 -10 -10 -11 -11 -11 -11 -10 -11 -12 -13 -14 -15 -16 -17 -16 -16
-8 -8 -8 -8 -8 -7 -7 -8 -8 -8 -8 -8 -8 -8 -8 -8 -8 -8 -7 -7 -7 -8 -8 -8 -8 -9 -9 -9 -9 -10 -11 -11 -11 -11 -12 -12 -9 -11 -13 -13 -13 -13 -14 -14 -13
-8 -8 -8 -8 -8 -8 -8 -8 -8 -8 -8 -8 -8 -8 -7 -8 -8 -8 -8 -8 -8 -8 -8 -9 -9 -9 -10 -10 -10 -11 -11 -11 -12 -12 -13 -13 -10 -12 -13 -13 -13 -14 -14 -13 -14
-9 -8 -8 -8 -8 -8 -8 -8 -8 -8 -8 -8 -8 -8 -8 -8 -8 -8 -8 -8 -8 -9 -9 -9 -9 -9 -10 -10 -10 -9 -10 -12 -13 -13 -12 -14 -12 -13 -13 -14 -14 -14 -14 -15 -16
-9 -9 -9 -9 -8 -9 -9 -9 -9 -9 -9 -9 -9 -9 -8 -8 -8 -8 -8 -9 -9 -10 -10 -9 -10 -10 -11 -12 -12 -12 -13 -14 -14 -14 -14 -13 -14 -14 -14 -14 -14 -15 -17 -18 -20
-9 -9 -9 -9 -9 -9 -9 -9 -9 -9 -9 -9 -9 -9 -9 -9 -9 -9 -9 -10 -10 -10 -11 -11 -11 -11 -11 -12 -12 -12 -13 -14 -14 -14 -14 -14 -14 -15 -15 -16 -17 -19 -22 -24 -25
-10 -10 -10 -10 -10 -9 -9 -9 -10 -10 -10 -9 -9 -9 -9 -9 -10 -10 -10 -10 -11 -11 -11 -11 -11 -11 -11 -12 -12 -12 -13 -14 -14 -14 -14 -15 -16 -18 -17 -17 -19 -23 -25 -26 -26
-10 -10 -10 -10 -10 -10 -10 -10 -10 -10 -10 -10 -10 -10 -10 -10 -11 -11 -11 -12 -12 -13 -12 -12 -12 -12 -12 -12 -13 -14 -14 -14 -14 -15 -16 -17 -17 -18 -18 -20 -21 -26 -27 -27 -27

GFSSW_500_temp_027.txt.gz
Temp
-13 -13 -13 -12 -12 -11 -11 -12 -11 -10 -10 -9 -9 -9 -9 -8 -8 -8 -8 -8 -8 -8 -8 -8 -8 -8 -8 -7 -7 -7 -7 -7 -7 -7 -7 -7 -7 -7 -6 -6 -7 -6 -6 -6 -5
-13 -13 -13 -12 -12 -11 -11 -11 -11 -10 -10 -9 -9 -9 -9 -8 -8 -8 -8 -8 -8 -8 -8 -8 -8 -8 -8 -7 -7 -7 -7 -7 -7 -7 -7 -7 -7 -7 -7 -7 -7 -7 -7 -6 -6
-13 -12 -12 -11 -11 -11 -11 -11 -11 -10 -10 -9 -9 -9 -9 -9 -9 -8 -8 -8 -8 -8 -8 -8 -7 -7 -7 -8 -7 -7 -7 -7 -7 -7 -7 -7 -7 -7 -7 -7 -7 -7 -7 -6 -6
-13 -12 -12 -11 -11 -11 -11 -11 -10 -10 -9 -9 -9 -9 -9 -9 -8 -8 -8 -8 -8 -8 -7 -7 -7 -7 -7 -8 -8 -8 -8 -8 -7 -7 -7 -7 -7 -7 -7 -7 -7 -7 -7 -7 -7
-12 -12 -11 -11 -10 -10 -11 -11 -10 -10 -10 -9 -9 -9 -9 -9 -9 -8 -8 -8 -8 -8 -7 -7 -7 -7 -7 -8 -8 -8 -8 -8 -7 -7 -7 -7 -7 -7 -8 -7 -7 -8 -8 -8 -8
-12 -11 -11 -11 -10 -10 -11 -10 -10 -10 -9 -9 -9 -9 -9 -9 -9 -9 -8 -8 -8 -8 -8 -8 -8 -8 -8 -8 -8 -8 -8 -8 -8 -7 -7 -7 -7 -7 -7 -7 -8 -8 -8 -8 -8
-11 -11 -11 -11 -10 -10 -11 -11 -10 -10 -9 -9 -9 -9 -9 -9 -9 -9 -8 -8 -8 -8 -8 -8 -8 -8 -8 -8 -8 -8 -8 -8 -7 -7 -7 -7 -8 -7 -7 -7 -7 -7 -8 -8 -8
-11 -11 -11 -11 -10 -10 -11 -11 -10 -10 -9 -9 -9 -9 -9 -9 -9 -9 -9 -9 -8 -8 -8 -8 -8 -7 -7 -7 -7 -7 -7 -7 -8 -7 -7 -7 -7 -8 -8 -7 -7 -7 -7 -7 -7
-11 -11 -11 -10 -10 -11 -11 -10 -10 -10 -9 -9 -9 -9 -9 -9 -9 -9 -9 -8 -8 -8 -8 -7 -7 -7 -7 -7 -7 -7 -7 -7 -7 -7 -6 -7 -7 -7 -8 -7 -7 -8 -8 -6 -7
-10 -10 -10 -10 -10 -10 -10 -10 -9 -9 -9 -9 -10 -9 -9 -9 -9 -8 -8 -8 -8 -8 -7 -8 -7 -7 -7 -7 -7 -7 -7 -7 -7 -7 -7 -7 -7 -8 -7 -7 -7 -7 -8 -7 -8
-11 -11 -11 -10 -10 -10 -10 -10 -10 -10 -10 -9 -9 -9 -9 -8 -8 -8 -8 -8 -8 -7 -7 -8 -7 -7 -7 -7 -7 -7 -7 -7 -7 -7 -7 -7 -8 -7 -8 -8 -8 -8 -8 -8 -8
-10 -10 -10 -10 -10 -10 -10 -10 -10 -10 -10 -9 -9 -9 -9 -9 -8 -8 -8 -8 -8 -7 -7 -7 -7 -7 -7 -7 -7 -7 -7 -7 -8 -8 -8 -8 -8 -8 -8 -8 -8 -8 -8 -8 -8
-10 -10 -10 -10 -10 -10 -10 -10 -10 -9 -9 -9 -9 -8 -8 -8 -8 -8 -8 -8 -7 -7 -7 -7 -7 -7 -7 -7 -7 -7 -7 -7 -8 -8 -8 -8 -8 -8 -8 -8 -8 -8 -8 -8 -8
-10 -10 -10 -10 -10 -10 -9 -9 -9 -9 -9 -9 -8 -8 -8 -8 -8 -8 -8 -8 -8 -7 -7 -7 -7 -7 -7 -7 -7 -8 -7 -8 -8 -8 -8 -9 -8 -9 -8 -8 -8 -8 -8 -8 -8
-9 -9 -9 -9 -9 -9 -9 -9 -9 -9 -8 -8 -8 -8 -8 -8 -8 -8 -8 -8 -8 -7 -8 -7 -7 -7 -7 -8 -7 -7 -7 -8 -8 -9 -9 -9 -9 -9 -8 -8 -8 -8 -8 -9 -9
-9 -9 -9 -9 -9 -9 -9 -8 -8 -8 -8 -8 -8 -8 -8 -8 -8 -8 -8 -7 -7 -7 -7 -7 -7 -7 -7 -8 -7 -7 -7 -8 -9 -9 -9 -9 -9 -9 -9 -9 -9 -9 -10 -10 -10
-8 -8 -8 -9 -8 -8 -8 -8 -8 -8 -8 -8 -8 -8 -8 -8 -8 -7 -8 -8 -7 -7 -7 -7 -7 -7 -7 -8 -7 -7 -8 -8 -8 -9 -9 -10 -10 -10 -10 -10 -10 -11 -11 -11 -12
-8 -8 -8 -8 -8 -8 -8 -8 -8 -8 -8 -8 -8 -8 -8 -8 -8 -7 -7 -7 -7 -7 -7 -7 -7 -7 -7 -8 -8 -8 -9 -9 -9 -9 -10 -11 -11 -11 -11 -12 -12 -13 -13 -14 -13
-8 -8 -8 -8 -8 -8 -8 -8 -8 -8 -8 -8 -8 -8 -7 -7 -7 -7 -7 -7 -7 -7 -7 -7 -7 -7 -8 -8 -8 -9 -9 -10 -10 -10 -9 -10 -10 -10 -11 -12 -13 -13 -15 -15 -16
-8 -8 -8 -8 -8 -8 -8 -8 -8 -8 -8 -8 -8 -8 -8 -8 -7 -7 -8 -7 -7 -7 -7 -7 -8 -8 -8 -9 -9 -9 -10 -11 -11 -11 -10 -10 -10 -11 -11 -13 -14 -16 -17 -17 -16
-9 -9 -8 -8 -8 -8 -8 -8 -8 -8 -8 -8 -8 -8 -8 -8 -8 -8 -8 -8 -8 -8 -8 -7 -8 -8 -8 -8 -9 -10 -10 -10 -10 -11 -11 -10 -10 -11 -12 -14 -14 -15 -15 -15 -15
-9 -9 -9 -9 -9 -9 -9 -9 -9 -8 -8 -8 -8 -8 -8 -8 -8 -8 -8 -8 -8 -8 -8 -8 -8 -9 -9 -10 -10 -10 -11 -11 -11 -11 -11 -12 -10 -12 -13 -14 -14 -14 -14 -14 -15
-9 -9 -9 -9 -9 -9 -9 -9 -9 -8 -9 -9 -9 -9 -9 -9 -9 -9 -9 -9 -8 -8 -8 -8 -8 -8 -9 -9 -9 -10 -11 -11 -12 -12 -12 -14 -13 -14 -14 -14 -14 -15 -15 -15 -15
-9 -9 -9 -9 -9 -9 -9 -9 -9 -9 -9 -9 -9 -9 -9 -9 -9 -9 -9 -9 -9 -9 -9 -9 -10 -9 -10 -11 -11 -11 -12 -12 -14 -13 -13 -14 -14 -15 -15 -14 -14 -14 -16 -17 -17
-10 -10 -10 -10 -10 -9 -9 -9 -9 -9 -9 -10 -10 -10 -10 -10 -10 -10 -10 -9 -9 -10 -10 -10 -10 -10 -11 -11 -11 -12 -12 -13 -14 -14 -15 -14 -15 -15 -15 -15 -16 -17 -18 -19 -19
-11 -10 -10 -10 -10 -10 -10 -10 -10 -10 -10 -10 -10 -10 -10 -10 -10 -10 -10 -10 -10 -10 -11 -10 -11 -10 -11 -12 -12 -13 -13 -13 -14 -15 -15 -15 -15 -16 -16 -17 -17 -18 -21 -22 -23
-11 -11 -11 -10 -10 -11 -11 -11 -11 -10 -10 -10 -10 -11 -10 -10 -11 -11 -11 -11 -11 -11 -12 -12 -11 -11 -12 -12 -13 -14 -14 -14 -15 -15 -16 -16 -16 -16 -17 -17 -18 -20 -22 -23 -24

GFSSW_500_temp_030.txt.gz
Temp
-15 -13 -13 -13 -12 -12 -12 -12 -11 -10 -10 -9 -9 -9 -8 -8 -8 -8 -8 -8 -7 -7 -7 -7 -7 -7 -7 -7 -7 -7 -8 -7 -7 -7 -7 -7 -7 -7 -6 -6 -7 -7 -6 -6 -6
-15 -13 -13 -13 -12 -12 -12 -12 -11 -10 -10 -9 -9 -9 -9 -9 -8 -8 -8 -8 -8 -7 -7 -7 -7 -7 -7 -7 -7 -7 -7 -7 -7 -7 -7 -7 -7 -7 -7 -8 -7 -6 -6 -6 -6
-14 -13 -13 -13 -12 -11 -12 -12 -11 -10 -10 -9 -9 -9 -9 -9 -8 -8 -8 -8 -8 -7 -7 -7 -7 -7 -7 -7 -7 -7 -8 -8 -8 -7 -7 -7 -7 -7 -7 -8 -7 -7 -7 -6 -6
-13 -13 -12 -12 -11 -12 -12 -12 -11 -10 -10 -9 -9 -9 -9 -9 -9 -8 -8 -8 -7 -7 -7 -7 -7 -7 -7 -7 -8 -8 -8 -8 -8 -8 -8 -7 -7 -7 -7 -7 -7 -7 -7 -7 -6
-13 -13 -12 -12 -11 -11 -12 -11 -11 -10 -10 -9 -9 -9 -9 -9 -9 -8 -8 -8 -7 -7 -7 -7 -7 -7 -7 -7 -7 -8 -8 -8 -8 -8 -7 -7 -8 -7 -7 -7 -7 -7 -7 -6 -6
-13 -12 -12 -11 -11 -11 -11 -11 -10 -10 -9 -9 -10 -10 -9 -9 -9 -8 -8 -8 -8 -8 -8 -8 -8 -7 -7 -7 -7 -7 -8 -8 -7 -7 -7 -8 -8 -7 -7 -7 -7 -7 -7 -6 -6
-12 -11 -11 -11 -11 -11 -11 -11 -10 -10 -9 -9 -10 -10 -9 -9 -9 -9 -9 -8 -8 -8 -8 -8 -7 -7 -7 -7 -7 -7 -7 -7 -7 -7 -7 -7 -8 -8 -8 -8 -8 -7 -7 -7 -7
-11 -11 -11 -11 -11 -11 -11 -11 -10 -10 -10 -10 -10 -10 -9 -9 -9 -9 -9 -9 -8 -8 -8 -7 -7 -7 -7 -7 -7 -7 -7 -7 -7 -7 -7 -7 -8 -8 -7 -7 -7 -7 -7 -7 -7
-11 -11 -11 -11 -11 -11 -11 -10 -10 -10 -10 -10 -10 -10 -10 -9 -9 -9 -9 -8 -8 -8 -8 -7 -7 -7 -7 -7 -7 -7 -7 -7 -7 -6 -7 -7 -7 -7 -7 -7 -8 -8 -8 -8 -8
-11 -11 -10 -11 -11 -11 -11 -10 -10 -10 -10 -9 -10 -10 -10 -9 -9 -9 -9 -8 -8 -8 -8 -8 -7 -7 -7 -7 -7 -7 -7 -7 -7 -7 -7 -7 -7 -7 -7 -7 -7 -8 -8 -8 -8
-11 -10 -10 -11 -11 -11 -10 -10 -10 -10 -9 -10 -10 -10 -9 -9 -9 -9 -9 -8 -8 -8 -8 -8 -7 -7 -7 -7 -7 -7 -7 -7 -7 -7 -7 -7 -7 -7 -8 -8 -8 -8 -8 -8 -8
-11 -11 -11 -11 -11 -11 -11 -10 -10 -10 -10 -10 -10 -9 -9 -9 -9 -9 -8 -8 -8 -8 -8 -7 -7 -7 -7 -7 -7 -7 -7 -7 -7 -7 -7 -7 -7 -7 -7 -8 -8 -8 -8 -8 -8
-10 -10 -11 -10 -10 -10 -10 -10 -10 -10 -10 -10 -9 -9 -9 -9 -9 -8 -8 -8 -8 -7 -7 -7 -7 -8 -7 -7 -7 -7 -7 -7 -7 -8 -8 -8 -7 -7 -7 -8 -8 -8 -9 -9 -9
-10 -10 -10 -10 -10 -10 -10 -10 -10 -10 -10 -9 -9 -9 -9 -9 -8 -8 -8 -8 -8 -8 -7 -7 -7 -7 -7 -7 -7 -7 -8 -8 -7 -7 -8 -8 -7 -7 -7 -7 -8 -8 -9 -9 -9
-10 -10 -10 -10 -10 -10 -10 -10 -10 -10 -9 -9 -9 -9 -9 -8 -8 -8 -8 -8 -8 -7 -7 -7 -7 -8 -8 -7 -7 -7 -7 -7 -8 -8 -7 -8 -8 -7 -7 -8 -9 -9 -9 -10 -10
-10 -10 -10 -10 -10 -10 -9 -9 -9 -9 -9 -9 -9 -8 -8 -8 -8 -8 -8 -8 -7 -8 -7 -7 -7 -7 -7 -7 -7 -7 -8 -8 -8 -8 -8 -8 -8 -7 -8 -9 -9 -9 -9 -10 -10
-9 -9 -9 -9 -9 -9 -9 -9 -9 -9 -9 -8 -8 -8 -8 -8 -8 -8 -8 -8 -8 -7 -7 -7 -7 -7 -7 -7 -7 -7 -7 -8 -7 -7 -8 -8 -8 -8 -9 -9 -10 -10 -10 -10 -10
-9 -8 -9 -9 -8 -8 -9 -9 -9 -8 -8 -8 -8 -8 -8 -8 -8 -8 -8 -8 -8 -8 -7 -7 -7 -7 -7 -7 -7 -8 -8 -8 -8 -8 -8 -10 -9 -9 -10 -11 -11 -12 -12 -11 -12
-9 -9 -9 -9 -9 -9 -9 -9 -8 -9 -9 -8 -8 -9 -8 -8 -8 -8 -8 -8 -8 -7 -7 -7 -7 -8 -7 -8 -8 -8 -8 -8 -8 -8 -8 -9 -9 -9 -10 -11 -11 -12 -12 -12 -13
-9 -9 -9 -9 -9 -9 -9 -9 -9 -9 -9 -9 -9 -9 -8 -8 -8 -8 -8 -8 -8 -8 -8 -8 -7 -7 -7 -8 -8 -9 -9 -9 -10 -10 -9 -9 -9 -10 -11 -11 -12 -13 -13 -14 -14
-9 -9 -9 -9 -9 -9 -9 -9 -9 -9 -9 -9 -9 -9 -9 -8 -8 -8 -8 -8 -8 -8 -8 -8 -8 -8 -8 -8 -9 -9 -9 -9 -10 -10 -10 -10 -10 -11 -12 -13 -14 -14 -14 -15 -15
-9 -9 -9 -9 -9 -9 -9 -9 -9 -9 -9 -9 -9 -9 -8 -8 -8 -8 -8 -8 -8 -8 -8 -8 -8 -8 -9 -9 -9 -10 -10 -10 -10 -11 -11 -12 -10 -12 -13 -13 -14 -14 -15 -15 -15
-10 -10 -9 -9 -9 -9 -9 -9 -9 -9 -9 -9 -9 -9 -9 -9 -9 -9 -9 -9 -9 -9 -9 -9 -9 -9 -9 -9 -10 -10 -10 -11 -11 -12 -12 -13 -13 -14 -14 -15 -15 -15 -15 -15 -15
-10 -10 -10 -10 -10 -10 -9 -9 -9 -9 -9 -9 -9 -9 -9 -9 -9 -9 -9 -9 -9 -9 -9 -9 -10 -10 -10 -10 -10 -11 -12 -12 -13 -13 -13 -14 -13 -15 -15 -15 -15 -15 -15 -16 -16
-10 -10 -10 -10 -10 -10 -10 -10 -10 -10 -10 -10 -10 -10 -10 -10 -10 -10 -10 -10 -10 -10 -10 -10 -10 -10 -11 -11 -11 -12 -12 -13 -13 -14 -14 -14 -15 -15 -15 -16 -16 -16 -16 -17 -18
-11 -11 -11 -11 -11 -11 -11 -11 -10 -10 -10 -10 -10 -10 -10 -10 -10 -10 -10 -10 -11 -11 -11 -11 -11 -10 -11 -12 -12 -12 -13 -13 -14 -14 -15 -15 -15 -16 -16 -16 -16 -17 -18 -18 -18
-12 -11 -11 -11 -11 -11 -11 -11 -11 -11 -11 -11 -11 -11 -11 -11 -11 -11 -11 -11 -11 -11 -11 -11 -11 -11 -11 -12 -12 -13 -13 -14 -14 -15 -16 -16 -16 -16 -17 -17 -17 -17 -18 -19 -19

GFSSW_500_temp_033.txt.gz
Temp
-15 -15 -14 -13 -13 -12 -12 -12 -12 -11 -10 -9 -9 -9 -8 -8 -8 -7 -7 -7 -7 -7 -7 -7 -7 -7 -7 -7 -7 -8 -8 -8 -8 -8 -8 -7 -7 -7 -7 -7 -6 -6 -6 -6 -5
-15 -16 -13 -13 -13 -13 -13 -12 -12 -11 -10 -9 -9 -9 -9 -9 -8 -8 -7 -7 -7 -7 -7 -7 -7 -7 -7 -7 -7 -8 -8 -8 -8 -7 -8 -8 -7 -7 -7 -7 -6 -6 -6 -6 -6
-16 -15 -13 -13 -14 -13 -13 -12 -12 -11 -10 -10 -9 -9 -9 -9 -8 -8 -8 -8 -7 -7 -7 -7 -7 -7 -7 -7 -8 -8 -7 -7 -7 -7 -8 -8 -8 -7 -7 -7 -7 -7 -7 -6 -6
-15 -14 -13 -13 -13 -13 -13 -12 -11 -11 -10 -10 -9 -9 -9 -9 -9 -8 -8 -8 -8 -7 -7 -7 -7 -7 -8 -7 -7 -8 -8 -7 -8 -7 -7 -8 -8 -7 -7 -7 -7 -7 -6 -7 -6
-15 -14 -13 -13 -13 -13 -13 -12 -11 -10 -10 -10 -10 -10 -9 -9 -9 -9 -8 -8 -7 -7 -7 -7 -7 -7 -7 -7 -7 -8 -8 -7 -7 -7 -8 -8 -8 -8 -7 -7 -6 -6 -6 -6 -6
-14 -13 -13 -12 -12 -12 -12 -12 -11 -10 -10 -10 -10 -10 -9 -9 -9 -9 -8 -8 -8 -8 -7 -8 -8 -8 -7 -7 -7 -7 -8 -7 -7 -8 -8 -8 -8 -8 -7 -6 -6 -6 -6 -7 -7
-13 -13 -12 -12 -12 -12 -12 -11 -11 -10 -10 -10 -10 -10 -9 -9 -9 -9 -9 -8 -8 -8 -8 -8 -8 -8 -7 -7 -7 -7 -7 -7 -7 -7 -7 -8 -8 -7 -7 -6 -6 -6 -7 -7 -7
-12 -12 -11 -11 -11 -12 -12 -11 -11 -10 -10 -10 -10 -10 -10 -9 -9 -9 -9 -9 -9 -8 -8 -8 -8 -7 -7 -7 -7 -7 -7 -8 -8 -7 -7 -8 -8 -7 -7 -6 -7 -7 -7 -7 -7
-11 -11 -11 -11 -11 -12 -11 -11 -11 -10 -10 -10 -10 -10 -10 -10 -9 -9 -9 -9 -9 -8 -8 -8 -8 -8 -8 -8 -7 -7 -7 -7 -7 -7 -7 -7 -7 -7 -7 -7 -7 -7 -7 -7 -7
-11 -11 -11 -11 -11 -11 -11 -11 -10 -10 -10 -10 -10 -10 -10 -10 -10 -9 -9 -9 -9 -8 -8 -8 -8 -8 -8 -8 -7 -7 -7 -7 -7 -7 -7 -6 -7 -7 -7 -7 -7 -7 -8 -8 -8
-11 -11 -12 -12 -12 -11 -11 -11 -10 -10 -10 -10 -10 -10 -10 -10 -10 -9 -9 -9 -9 -9 -8 -8 -8 -8 -8 -7 -7 -7 -7 -7 -7 -7 -7 -7 -7 -7 -7 -8 -8 -8 -8 -8 -9
-11 -11 -11 -11 -11 -11 -11 -11 -11 -11 -11 -10 -10 -10 -10 -10 -9 -9 -9 -9 -9 -9 -8 -8 -8 -8 -7 -7 -7 -7 -7 -7 -7 -7 -7 -7 -7 -7 -7 -8 -8 -8 -8 -9 -9
-11 -11 -11 -11 -11 -11 -10 -11 -11 -11 -11 -10 -10 -10 -10 -10 -9 -9 -9 -9 -9 -8 -8 -8 -8 -8 -7 -7 -7 -7 -7 -7 -7 -7 -7 -7 -7 -7 -8 -8 -8 -9 -9 -9 -9
-11 -11 -11 -11 -11 -11 -11 -11 -11 -11 -11 -10 -10 -10 -10 -9 -9 -9 -9 -8 -8 -8 -8 -8 -8 -8 -8 -7 -7 -7 -7 -7 -7 -7 -7 -7 -6 -7 -7 -8 -8 -9 -9 -9 -9
-10 -11 -11 -11 -11 -11 -11 -11 -10 -10 -10 -10 -10 -10 -9 -9 -9 -8 -8 -8 -8 -8 -8 -8 -8 -8 -7 -7 -7 -7 -7 -7 -7 -7 -7 -8 -7 -7 -8 -7 -8 -8 -8 -8 -8
-10 -10 -11 -10 -10 -11 -10 -10 -10 -10 -10 -10 -9 -9 -9 -9 -9 -8 -8 -8 -8 -8 -8 -8 -8 -8 -7 -7 -7 -7 -7 -7 -8 -8 -7 -7 -7 -7 -7 -7 -8 -8 -8 -8 -9
-10 -10 -10 -10 -10 -10 -10 -10 -10 -10 -10 -9 -9 -9 -9 -9 -9 -9 -8 -9 -8 -8 -8 -8 -8 -8 -7 -7 -8 -8 -8 -7 -7 -7 -7 -7 -6 -7 -7 -8 -9 -9 -9 -9 -10
-10 -10 -10 -10 -10 -10 -10 -10 -9 -9 -9 -9 -9 -9 -9 -9 -9 -9 -9 -8 -8 -8 -8 -8 -8 -8 -8 -8 -8 -8 -8 -8 -7 -7 -7 -8 -7 -8 -9 -9 -9 -9 -10 -10 -11
-9 -9 -9 -10 -10 -9 -9 -9 -9 -9 -9 -9 -9 -9 -9 -9 -9 -9 -9 -8 -8 -8 -8 -8 -8 -8 -8 -9 -8 -8 -8 -8 -8 -8 -7 -7 -8 -8 -10 -10 -10 -10 -10 -11 -11
-9 -9 -9 -9 -9 -9 -9 -9 -9 -9 -9 -9 -9 -9 -9 -9 -9 -9 -9 -9 -9 -9 -9 -8 -9 -9 -9 -8 -8 -8 -8 -8 -8 -8 -8 -8 -8 -9 -10 -10 -10 -11 -12 -12 -13
-10 -10 -9 -9 -9 -9 -9 -9 -9 -9 -9 -9 -9 -9 -9 -9 -9 -9 -9 -9 -9 -9 -9 -9 -9 -9 -8 -9 -9 -9 -9 -9 -9 -10 -9 -9 -9 -11 -11 -11 -11 -12 -13 -14 -14
-10 -10 -9 -9 -9 -9 -9 -9 -9 -9 -9 -9 -9 -9 -9 -9 -9 -9 -9 -9 -9 -9 -9 -9 -9 -9 -9 -9 -9 -9 -10 -10 -10 -10 -10 -11 -10 -12 -12 -12 -13 -13 -14 -15 -16
-10 -10 -10 -10 -10 -10 -10 -10 -10 -9 -9 -9 -10 -9 -9 -9 -9 -9 -9 -9 -9 -9 -9 -9 -9 -9 -9 -9 -10 -10 -10 -10 -10 -11 -11 -11 -12 -13 -13 -13 -14 -15 -16 -16 -16
-10 -10 -10 -10 -10 -10 -10 -10 -10 -10 -10 -10 -10 -10 -10 -10 -10 -10 -10 -10 -10 -10 -10 -10 -10 -10 -10 -10 -10 -11 -11 -11 -11 -11 -12 -12 -12 -15 -14 -15 -15 -15 -16 -16 -17
-11 -11 -10 -10 -10 -11 -11 -10 -10 -10 -10 -10 -10 -10 -10 -10 -10 -10 -10 -10 -10 -10 -10 -10 -10 -10 -11 -11 -11 -11 -12 -12 -12 -13 -13 -13 -13 -15 -15 -15 -15 -16 -16 -17 -18
-12 -12 -11 -11 -11 -11 -10 -11 -11 -11 -11 -11 -11 -11 -11 -11 -11 -11 -11 -11 -11 -11 -11 -11 -11 -11 -11 -12 -12 -12 -13 -13 -13 -13 -14 -14 -14 -15 -15 -16 -16 -17 -18 -18 -18
-12 -12 -12 -12 -12 -12 -11 -11 -11 -11 -11 -11 -11 -11 -11 -11 -11 -11 -11 -11 -11 -11 -11 -11 -11 -11 -11 -12 -12 -13 -13 -13 -13 -14 -15 -15 -15 -15 -16 -16 -17 -18 -18 -18 -19

GFSSW_500_temp_036.txt.gz
Temp
-16 -15 -14 -14 -13 -13 -12 -12 -11 -11 -10 -10 -9 -9 -9 -9 -8 -7 -7 -7 -7 -7 -7 -7 -7 -8 -8 -8 -8 -8 -8 -8 -8 -8 -8 -7 -7 -7 -7 -7 -7 -6 -6 -7 -6
-16 -15 -14 -14 -13 -13 -13 -12 -11 -11 -11 -10 -9 -9 -9 -9 -8 -8 -7 -7 -7 -7 -7 -7 -7 -7 -7 -7 -8 -8 -8 -8 -8 -8 -8 -8 -8 -7 -7 -6 -7 -6 -6 -6 -7
-16 -15 -15 -14 -13 -13 -13 -12 -12 -11 -11 -10 -9 -9 -9 -9 -8 -8 -8 -7 -7 -7 -7 -7 -7 -7 -7 -7 -8 -8 -8 -8 -8 -8 -8 -8 -8 -7 -7 -7 -7 -7 -7 -7 -7
-16 -15 -15 -14 -14 -14 -13 -12 -12 -11 -11 -10 -10 -9 -9 -9 -8 -8 -8 -8 -8 -7 -7 -7 -7 -7 -7 -7 -7 -8 -7 -8 -7 -7 -8 -8 -8 -6 -6 -6 -7 -7 -7 -7 -7
-16 -15 -16 -14 -14 -14 -13 -13 -12 -11 -10 -10 -10 -10 -10 -9 -9 -9 -8 -8 -8 -8 -8 -7 -7 -7 -7 -7 -7 -8 -7 -7 -7 -7 -8 -8 -7 -6 -7 -7 -6 -6 -7 -7 -7
-15 -16 -15 -14 -14 -14 -13 -12 -12 -11 -10 -10 -10 -10 -9 -9 -9 -9 -9 -8 -8 -8 -8 -7 -7 -7 -7 -7 -7 -7 -8 -7 -7 -8 -8 -8 -6 -6 -6 -6 -6 -6 -7 -7 -7
-16 -16 -15 -14 -14 -14 -13 -12 -11 -11 -10 -10 -10 -10 -10 -9 -9 -9 -9 -9 -8 -8 -8 -8 -7 -8 -7 -7 -7 -7 -8 -8 -8 -8 -8 -8 -6 -6 -6 -6 -6 -6 -7 -7 -7
-15 -14 -13 -13 -14 -13 -13 -12 -11 -11 -11 -10 -10 -10 -10 -9 -9 -9 -9 -9 -9 -9 -8 -8 -8 -8 -8 -7 -8 -8 -8 -8 -8 -7 -7 -7 -7 -7 -7 -7 -7 -7 -7 -7 -7
-14 -13 -13 -13 -13 -13 -12 -11 -11 -11 -11 -11 -10 -10 -10 -10 -10 -10 -9 -9 -9 -9 -9 -8 -8 -8 -8 -8 -8 -8 -7 -8 -7 -7 -7 -7 -7 -7 -7 -7 -7 -7 -8 -8 -8
-12 -12 -12 -12 -12 -12 -12 -11 -11 -11 -11 -11 -11 -10 -10 -10 -10 -10 -10 -9 -9 -9 -9 -9 -8 -8 -8 -8 -8 -7 -7 -7 -7 -7 -7 -7 -7 -7 -7 -7 -8 -8 -8 -8 -8
-12 -12 -12 -12 -12 -12 -12 -11 -11 -11 -11 -11 -11 -11 -10 -10 -10 -10 -10 -9 -9 -9 -9 -9 -8 -8 -8 -8 -7 -7 -7 -7 -7 -7 -7 -7 -7 -7 -7 -7 -8 -8 -8 -8 -8
-12 -12 -12 -12 -12 -12 -12 -11 -11 -11 -11 -11 -11 -11 -10 -10 -10 -10 -10 -9 -9 -9 -9 -8 -8 -8 -8 -8 -8 -7 -7 -7 -7 -7 -7 -7 -7 -7 -7 -7 -7 -7 -8 -8 -8
-11 -12 -12 -12 -12 -12 -11 -11 -11 -11 -11 -11 -11 -10 -10 -10 -10 -10 -10 -9 -9 -9 -9 -8 -8 -8 -8 -8 -8 -7 -7 -7 -7 -7 -7 -7 -7 -7 -7 -8 -8 -8 -8 -9 -9
-12 -12 -11 -11 -11 -11 -11 -11 -11 -10 -10 -10 -10 -10 -10 -10 -10 -10 -9 -9 -9 -9 -9 -8 -8 -8 -8 -7 -7 -7 -7 -7 -7 -7 -7 -7 -7 -7 -8 -9 -8 -9 -9 -8 -8
-12 -12 -12 -12 -11 -11 -11 -11 -11 -11 -11 -11 -10 -10 -10 -10 -10 -9 -9 -9 -9 -9 -8 -9 -8 -8 -8 -8 -8 -8 -7 -7 -7 -7 -7 -7 -7 -8 -9 -9 -8 -7 -7 -7 -8
-11 -11 -11 -11 -11 -11 -11 -11 -11 -10 -10 -10 -10 -10 -10 -9 -9 -9 -9 -9 -9 -9 -8 -8 -8 -8 -8 -8 -8 -8 -7 -7 -7 -7 -8 -8 -8 -8 -8 -8 -7 -7 -7 -8 -8
-11 -11 -11 -11 -11 -11 -11 -11 -11 -10 -10 -10 -10 -10 -10 -9 -9 -9 -9 -9 -9 -9 -9 -8 -8 -8 -8 -8 -8 -8 -8 -8 -8 -8 -8 -8 -7 -8 -8 -8 -8 -8 -8 -9 -9
-11 -11 -11 -11 -11 -11 -11 -11 -10 -10 -10 -10 -10 -10 -9 -9 -9 -9 -9 -9 -9 -9 -9 -9 -9 -8 -8 -8 -8 -8 -8 -9 -9 -8 -8 -8 -8 -8 -9 -8 -8 -9 -9 -10 -10
-10 -10 -10 -10 -10 -10 -10 -10 -10 -10 -10 -10 -10 -10 -10 -9 -9 -9 -9 -9 -9 -9 -9 -9 -9 -9 -9 -9 -8 -9 -9 -9 -9 -8 -8 -8 -8 -8 -9 -9 -9 -9 -10 -10 -11
-11 -10 -10 -10 -10 -10 -10 -10 -10 -10 -10 -10 -10 -10 -10 -10 -9 -9 -9 -9 -9 -9 -9 -9 -9 -9 -9 -9 -9 -10 -10 -9 -9 -9 -8 -8 -9 -10 -10 -10 -10 -11 -11 -11 -12
-10 -10 -10 -10 -10 -10 -10 -10 -10 -10 -10 -10 -10 -10 -10 -10 -10 -9 -9 -9 -9 -9 -9 -9 -9 -9 -9 -9 -9 -10 -10 -9 -10 -10 -10 -10 -9 -11 -11 -11 -11 -11 -12 -12 -12
-11 -10 -10 -10 -10 -10 -10 -10 -10 -10 -10 -10 -10 -10 -10 -10 -10 -10 -9 -9 -9 -9 -9 -9 -9 -9 -9 -10 -10 -10 -10 -10 -10 -10 -11 -11 -9 -12 -11 -11 -12 -12 -12 -13 -14
-11 -11 -11 -11 -11 -11 -11 -11 -11 -11 -10 -10 -10 -10 -10 -10 -10 -10 -10 -10 -10 -10 -10 -10 -10 -10 -10 -10 -10 -10 -11 -11 -11 -11 -11 -11 -12 -12 -12 -12 -12 -13 -13 -14 -15
-11 -11 -11 -11 -11 -11 -11 -11 -11 -11 -10 -10 -10 -10 -10 -10 -10 -10 -10 -10 -10 -10 -10 -10 -10 -10 -11 -10 -11 -11 -11 -12 -12 -12 -12 -12 -12 -14 -13 -13 -14 -14 -15 -16 -16
-11 -11 -11 -11 -11 -11 -11 -11 -11 -11 -11 -11 -11 -11 -11 -11 -11 -11 -11 -11 -11 -11 -11 -11 -11 -11 -11 -11 -11 -12 -12 -12 -12 -13 -13 -13 -13 -14 -14 -14 -15 -15 -16 -16 -16
-12 -12 -12 -11 -11 -11 -11 -11 -11 -11 -11 -11 -11 -11 -11 -11 -11 -11 -11 -11 -11 -11 -11 -11 -11 -11 -12 -12 -12 -12 -13 -13 -13 -13 -13 -14 -13 -14 -15 -15 -15 -16 -16 -16 -17
-13 -13 -12 -12 -12 -12 -12 -12 -12 -12 -12 -12 -12 -11 -11 -11 -11 -11 -11 -11 -11 -12 -12 -12 -12 -12 -12 -13 -12 -12 -13 -14 -14 -14 -15 -14 -15 -15 -15 -15 -16 -16 -17 -17 -17

GFSSW_500_temp_039.txt.gz
Temp
-17 -16 -15 -14 -13 -13 -13 -12 -11 -11 -10 -10 -9 -9 -9 -8 -8 -8 -7 -7 -7 -7 -8 -8 -8 -8 -8 -8 -8 -8 -8 -8 -8 -7 -7 -7 -7 -7 -7 -7 -7 -7 -7 -7 -7
-17 -16 -15 -14 -14 -13 -13 -12 -12 -11 -11 -10 -9 -9 -9 -8 -8 -8 -8 -7 -7 -7 -7 -8 -7 -7 -8 -8 -8 -8 -8 -8 -8 -8 -8 -7 -7 -7 -7 -7 -7 -7 -7 -7 -7
-16 -16 -15 -14 -14 -13 -13 -12 -12 -11 -11 -10 -10 -9 -9 -9 -8 -9 -8 -8 -7 -8 -8 -8 -8 -7 -8 -8 -8 -8 -7 -8 -8 -8 -8 -7 -7 -7 -7 -8 -8 -8 -7 -7 -7
-16 -15 -15 -15 -14 -14 -13 -13 -12 -12 -11 -10 -10 -9 -9 -9 -9 -8 -8 -8 -8 -7 -8 -8 -7 -7 -7 -7 -7 -7 -7 -8 -7 -7 -7 -7 -7 -7 -7 -7 -7 -7 -7 -8 -8
-16 -15 -15 -15 -14 -14 -13 -13 -12 -12 -11 -10 -10 -9 -9 -9 -9 -8 -8 -8 -8 -8 -8 -8 -7 -8 -8 -7 -7 -8 -7 -7 -7 -7 -6 -7 -7 -7 -7 -7 -7 -7 -7 -7 -8
-16 -16 -15 -16 -14 -14 -13 -13 -12 -12 -11 -10 -10 -10 -10 -9 -9 -9 -9 -8 -8 -8 -8 -8 -8 -8 -7 -7 -7 -8 -7 -7 -7 -7 -6 -7 -7 -7 -7 -7 -7 -7 -7 -7 -7
-16 -15 -16 -15 -14 -13 -13 -13 -12 -11 -11 -10 -10 -10 -10 -9 -9 -9 -9 -9 -9 -9 -8 -8 -8 -8 -7 -7 -8 -8 -7 -7 -7 -7 -7 -6 -7 -7 -7 -7 -7 -7 -7 -7 -7
-16 -16 -16 -15 -14 -13 -13 -12 -12 -11 -11 -11 -11 -10 -10 -10 -9 -9 -9 -9 -9 -9 -9 -8 -8 -8 -8 -8 -8 -8 -8 -7 -7 -7 -7 -7 -7 -7 -7 -7 -7 -7 -7 -8 -8
-16 -16 -15 -14 -14 -13 -13 -12 -11 -11 -11 -11 -11 -10 -10 -10 -10 -10 -9 -9 -9 -9 -9 -9 -8 -8 -8 -8 -8 -8 -8 -8 -7 -7 -7 -7 -7 -7 -7 -7 -7 -7 -7 -7 -7
-15 -15 -14 -14 -14 -13 -12 -12 -11 -11 -11 -11 -11 -11 -10 -10 -10 -10 -10 -9 -9 -9 -9 -9 -9 -8 -8 -8 -8 -8 -8 -8 -7 -7 -7 -7 -7 -7 -7 -7 -7 -7 -7 -7 -7
-13 -13 -13 -13 -13 -13 -12 -12 -11 -11 -11 -11 -11 -11 -11 -10 -10 -10 -10 -10 -10 -9 -9 -9 -9 -9 -8 -8 -8 -8 -8 -8 -7 -7 -7 -7 -7 -7 -7 -7 -7 -7 -7 -7 -7
-12 -12 -12 -13 -13 -13 -12 -12 -12 -12 -12 -12 -11 -11 -11 -11 -10 -10 -10 -10 -10 -9 -9 -9 -9 -9 -8 -8 -8 -8 -8 -8 -7 -7 -7 -7 -7 -7 -7 -7 -7 -7 -7 -7 -8
-12 -12 -13 -13 -13 -13 -12 -12 -12 -12 -12 -12 -11 -11 -11 -10 -10 -10 -10 -10 -10 -9 -9 -9 -9 -9 -8 -8 -8 -8 -8 -8 -7 -7 -7 -7 -7 -7 -7 -7 -8 -7 -7 -8 -8
-12 -12 -13 -13 -12 -12 -12 -11 -11 -11 -11 -11 -11 -11 -10 -10 -10 -10 -10 -10 -9 -9 -9 -9 -9 -9 -8 -8 -8 -8 -8 -8 -7 -7 -7 -7 -7 -7 -7 -8 -8 -8 -8 -9 -8
-12 -12 -12 -12 -12 -11 -11 -11 -11 -11 -11 -11 -11 -11 -10 -10 -10 -10 -10 -10 -9 -9 -9 -9 -9 -9 -8 -8 -8 -8 -8 -8 -7 -7 -7 -7 -7 -7 -8 -8 -8 -8 -8 -9 -8
-12 -12 -12 -12 -12 -12 -11 -11 -11 -11 -11 -11 -11 -10 -10 -10 -10 -10 -10 -9 -9 -9 -9 -9 -9 -9 -9 -8 -8 -8 -8 -8 -8 -8 -8 -7 -8 -8 -8 -9 -8 -8 -9 -9 -9
-12 -12 -12 -11 -11 -11 -11 -11 -11 -11 -11 -11 -11 -10 -10 -10 -10 -10 -9 -9 -9 -9 -9 -9 -9 -9 -9 -8 -8 -8 -8 -8 -8 -8 -8 -8 -8 -9 -9 -9 -9 -9 -9 -9 -9
-12 -11 -11 -11 -11 -11 -11 -11 -11 -11 -11 -11 -10 -10 -10 -10 -10 -10 -9 -9 -9 -9 -9 -9 -9 -9 -9 -9 -9 -9 -9 -9 -8 -8 -8 -9 -9 -9 -9 -9 -9 -9 -9 -10 -10
-11 -11 -11 -11 -11 -11 -11 -11 -11 -11 -11 -10 -10 -10 -10 -10 -10 -10 -10 -9 -9 -9 -9 -9 -9 -9 -9 -9 -9 -9 -9 -9 -9 -9 -9 -9 -9 -9 -10 -10 -9 -9 -10 -10 -11
-11 -11 -11 -11 -11 -11 -11 -11 -11 -11 -11 -10 -10 -10 -10 -10 -10 -10 -10 -10 -10 -9 -9 -9 -9 -9 -9 -9 -9 -9 -9 -9 -9 -9 -9 -9 -9 -10 -10 -10 -10 -10 -11 -12 -12
-11 -11 -11 -11 -11 -11 -11 -11 -11 -11 -11 -11 -11 -11 -10 -10 -10 -10 -10 -10 -10 -10 -10 -10 -9 -10 -10 -10 -10 -10 -10 -10 -10 -10 -10 -10 -10 -12 -11 -11 -11 -11 -12 -12 -13
-11 -11 -11 -11 -11 -11 -11 -11 -11 -11 -11 -11 -11 -11 -11 -11 -11 -11 -11 -10 -10 -10 -10 -10 -10 -10 -10 -10 -10 -10 -10 -10 -10 -11 -11 -11 -10 -12 -12 -12 -12 -13 -13 -14 -14
-11 -11 -11 -11 -11 -11 -11 -11 -11 -11 -11 -11 -11 -11 -11 -11 -11 -11 -11 -11 -11 -11 -10 -10 -10 -10 -10 -11 -11 -11 -11 -11 -11 -11 -11 -12 -12 -12 -13 -13 -13 -14 -14 -14 -14
-12 -11 -11 -11 -11 -11 -12 -11 -11 -11 -11 -11 -11 -11 -11 -11 -11 -11 -11 -11 -11 -11 -11 -11 -11 -11 -11 -11 -11 -11 -11 -11 -12 -12 -12 -12 -12 -14 -14 -13 -14 -15 -15 -15 -15
-13 -12 -12 -12 -12 -12 -11 -11 -11 -11 -12 -12 -11 -11 -11 -11 -11 -11 -11 -11 -11 -11 -11 -11 -11 -11 -11 -11 -11 -12 -12 -12 -13 -13 -13 -13 -13 -15 -14 -14 -15 -16 -16 -16 -16
-13 -13 -13 -13 -13 -12 -12 -12 -12 -12 -12 -12 -12 -12 -12 -12 -11 -11 -11 -11 -12 -12 -12 -12 -12 -12 -12 -12 -12 -11 -12 -13 -13 -14 -13 -14 -14 -15 -15 -16 -16 -16 -16 -16 -16
-14 -13 -13 -13 -13 -13 -13 -13 -13 -13 -13 -13 -12 -12 -12 -12 -12 -12 -12 -12 -12 -12 -12 -12 -12 -12 -12 -12 -12 -12 -14 -14 -14 -14 -15 -14 -15 -15 -15 -16 -16 -16 -16 -16 -17

GFSSW_500_temp_042.txt.gz
Temp
-17 -16 -15 -15 -14 -13 -12 -12 -12 -11 -10 -10 -9 -9 -9 -8 -8 -8 -8 -8 -8 -8 -8 -8 -8 -8 -8 -8 -8 -7 -7 -7 -7 -7 -7 -7 -7 -7 -7 -7 -7 -7 -7 -7 -8
-17 -16 -16 -15 -14 -14 -12 -12 -12 -11 -11 -10 -9 -9 -9 -8 -8 -8 -8 -8 -8 -8 -8 -8 -7 -8 -8 -8 -8 -7 -7 -7 -7 -6 -7 -7 -7 -7 -7 -7 -7 -7 -8 -8 -8
-18 -16 -16 -15 -14 -14 -13 -13 -12 -12 -11 -10 -10 -9 -9 -9 -9 -8 -8 -8 -8 -8 -8 -7 -7 -7 -8 -8 -8 -7 -7 -7 -6 -7 -7 -7 -7 -7 -7 -7 -7 -7 -7 -7 -8
-17 -16 -16 -15 -14 -14 -13 -13 -12 -12 -11 -10 -10 -9 -9 -9 -9 -8 -8 -8 -8 -8 -7 -8 -8 -8 -8 -7 -7 -7 -7 -7 -6 -7 -7 -7 -7 -7 -8 -8 -8 -7 -7 -7 -8
-17 -16 -15 -15 -14 -15 -14 -13 -12 -12 -11 -11 -10 -10 -9 -9 -9 -9 -8 -8 -8 -8 -8 -8 -8 -8 -8 -8 -8 -8 -7 -6 -6 -7 -7 -7 -7 -7 -7 -7 -8 -8 -8 -8 -8
-16 -16 -15 -15 -15 -15 -13 -13 -12 -12 -11 -11 -10 -10 -9 -9 -9 -9 -9 -9 -9 -9 -8 -8 -8 -8 -8 -7 -8 -8 -7 -6 -6 -7 -7 -7 -7 -7 -7 -7 -7 -7 -7 -7 -7
-16 -16 -15 -15 -15 -14 -13 -13 -12 -12 -11 -11 -10 -10 -9 -10 -9 -9 -9 -9 -9 -9 -9 -9 -8 -8 -8 -8 -8 -8 -7 -7 -6 -7 -7 -7 -7 -7 -7 -7 -7 -7 -7 -7 -7
-16 -16 -15 -15 -15 -14 -13 -13 -12 -11 -11 -11 -10 -10 -10 -9 -9 -10 -9 -9 -9 -9 -9 -9 -8 -8 -8 -8 -8 -7 -7 -7 -7 -7 -7 -7 -7 -7 -7 -7 -7 -7 -7 -7 -7
-16 -16 -15 -15 -14 -13 -13 -12 -12 -11 -11 -10 -10 -10 -10 -10 -9 -9 -9 -9 -9 -9 -9 -9 -9 -8 -8 -8 -8 -8 -7 -8 -7 -7 -7 -7 -7 -7 -7 -7 -7 -7 -7 -7 -7
-16 -16 -15 -14 -14 -13 -13 -12 -11 -11 -11 -11 -11 -10 -10 -10 -10 -10 -10 -9 -9 -9 -9 -9 -9 -8 -8 -8 -8 -8 -8 -8 -7 -8 -8 -7 -7 -7 -7 -7 -7 -7 -7 -7 -7
-16 -15 -15 -14 -13 -13 -12 -12 -12 -11 -11 -11 -11 -11 -11 -11 -10 -10 -10 -10 -10 -10 -9 -9 -9 -9 -8 -8 -8 -8 -8 -8 -8 -8 -8 -8 -7 -7 -7 -7 -7 -7 -7 -7 -7
-15 -15 -14 -14 -13 -12 -12 -12 -12 -12 -11 -11 -11 -11 -11 -11 -11 -10 -10 -10 -10 -10 -10 -9 -9 -9 -9 -8 -8 -8 -8 -8 -8 -8 -8 -8 -8 -7 -7 -7 -8 -8 -7 -7 -7
-14 -13 -13 -13 -13 -12 -12 -12 -12 -12 -12 -12 -11 -11 -11 -11 -11 -10 -10 -10 -10 -10 -9 -9 -9 -9 -9 -9 -8 -8 -8 -8 -8 -8 -8 -8 -8 -8 -8 -8 -8 -8 -8 -8 -8
-13 -13 -13 -13 -13 -12 -12 -12 -12 -12 -12 -12 -11 -11 -11 -11 -11 -10 -10 -10 -10 -10 -10 -9 -9 -9 -9 -9 -9 -8 -8 -8 -8 -8 -7 -8 -8 -8 -8 -8 -8 -8 -8 -8 -8
-12 -13 -13 -13 -12 -12 -12 -11 -11 -11 -11 -11 -11 -11 -11 -11 -11 -10 -10 -10 -10 -10 -10 -9 -9 -9 -9 -9 -9 -8 -8 -8 -8 -8 -8 -8 -8 -8 -8 -8 -8 -8 -8 -8 -8
-13 -13 -13 -12 -12 -12 -12 -11 -11 -12 -12 -11 -11 -11 -11 -11 -10 -10 -10 -10 -10 -10 -10 -9 -9 -9 -9 -9 -9 -9 -8 -8 -8 -8 -8 -8 -8 -8 -8 -8 -8 -8 -8 -9 -9
-13 -13 -13 -12 -12 -12 -12 -12 -12 -12 -12 -11 -11 -11 -11 -10 -10 -10 -10 -10 -10 -10 -9 -9 -9 -9 -9 -9 -9 -9 -9 -9 -8 -8 -8 -8 -8 -9 -9 -9 -9 -9 -9 -9 -9
-12 -12 -12 -12 -12 -12 -11 -11 -11 -11 -11 -11 -11 -11 -11 -10 -10 -10 -10 -10 -10 -10 -10 -9 -9 -9 -9 -9 -9 -9 -9 -9 -9 -9 -9 -8 -8 -9 -9 -9 -9 -9 -9 -9 -10
-12 -12 -12 -12 -12 -12 -12 -12 -11 -12 -11 -11 -11 -11 -11 -11 -10 -10 -10 -10 -10 -10 -10 -10 -10 -10 -9 -9 -9 -9 -9 -9 -9 -9 -9 -9 -9 -9 -10 -10 -10 -10 -10 -10 -11
-12 -12 -12 -12 -12 -12 -12 -12 -12 -12 -11 -11 -11 -11 -11 -11 -10 -10 -10 -10 -10 -10 -10 -10 -10 -10 -10 -10 -10 -10 -10 -10 -10 -10 -9 -9 -9 -10 -10 -10 -10 -10 -10 -11 -11
-12 -12 -12 -12 -12 -12 -12 -12 -11 -11 -11 -11 -11 -11 -11 -11 -11 -11 -11 -11 -10 -10 -10 -10 -10 -10 -10 -10 -10 -10 -10 -10 -10 -11 -10 -10 -10 -10 -11 -11 -11 -11 -11 -11 -12
-12 -12 -12 -12 -12 -12 -11 -11 -11 -11 -11 -11 -11 -11 -11 -11 -11 -11 -11 -11 -11 -11 -11 -11 -11 -11 -11 -11 -11 -11 -11 -11 -11 -11 -11 -11 -10 -11 -11 -12 -12 -12 -12 -13 -13
-12 -12 -12 -12 -12 -12 -12 -12 -12 -12 -12 -12 -11 -11 -11 -11 -11 -11 -11 -11 -11 -11 -11 -11 -11 -11 -11 -11 -11 -11 -11 -11 -11 -11 -11 -12 -11 -12 -13 -13 -12 -13 -13 -14 -14
-12 -12 -12 -12 -12 -12 -12 -12 -12 -12 -12 -12 -12 -12 -12 -12 -12 -11 -12 -11 -11 -11 -11 -11 -11 -11 -11 -11 -11 -11 -11 -12 -12 -12 -12 -11 -12 -13 -14 -13 -13 -14 -14 -14 -15
-13 -13 -13 -13 -13 -12 -12 -12 -12 -12 -12 -12 -12 -12 -12 -12 -12 -12 -12 -12 -12 -12 -12 -11 -11 -12 -12 -12 -12 -12 -12 -12 -13 -13 -12 -13 -13 -14 -14 -14 -14 -15 -15 -15 -16
-13 -13 -13 -13 -13 -13 -13 -13 -13 -13 -13 -13 -13 -13 -12 -12 -12 -12 -12 -12 -12 -12 -12 -12 -12 -12 -12 -12 -12 -12 -13 -13 -13 -13 -13 -14 -13 -15 -14 -15 -15 -16 -16 -16 -17
-14 -14 -14 -13 -13 -13 -13 -13 -13 -13 -13 -13 -13 -13 -13 -13 -13 -13 -13 -13 -13 -13 -13 -13 -13 -13 -12 -13 -13 -13 -13 -14 -14 -14 -14 -14 -14 -14 -14 -15 -16 -16 -17 -17 -17

GFSSW_500_temp_048.txt.gz
Temp
-17 -17 -16 -14 -14 -13 -12 -12 -12 -11 -10 -10 -10 -9 -9 -9 -8 -8 -8 -8 -9 -9 -9 -9 -9 -9 -8 -8 -8 -8 -8 -8 -6 -7 -8 -8 -7 -8 -7 -7 -7 -7 -7 -7 -7
-18 -17 -17 -15 -14 -14 -13 -12 -12 -11 -10 -10 -10 -10 -9 -9 -9 -8 -8 -8 -8 -9 -9 -9 -9 -9 -9 -8 -8 -8 -8 -7 -7 -7 -7 -7 -7 -7 -7 -7 -7 -7 -7 -7 -7
-18 -18 -17 -16 -15 -14 -13 -13 -13 -12 -11 -11 -10 -10 -9 -9 -9 -9 -9 -8 -9 -9 -9 -9 -9 -9 -9 -8 -8 -8 -8 -8 -7 -7 -7 -7 -7 -7 -6 -7 -7 -7 -7 -7 -7
-17 -17 -17 -16 -15 -14 -14 -13 -13 -12 -11 -11 -11 -10 -10 -9 -9 -9 -9 -9 -9 -9 -9 -9 -8 -8 -9 -8 -8 -8 -8 -7 -8 -7 -7 -7 -7 -7 -6 -6 -7 -7 -7 -7 -7
-18 -17 -17 -16 -15 -14 -14 -14 -13 -13 -12 -11 -11 -11 -10 -9 -9 -9 -9 -9 -9 -9 -9 -9 -8 -8 -8 -8 -8 -7 -8 -7 -7 -7 -7 -7 -7 -7 -7 -7 -7 -7 -7 -7 -7
-18 -18 -17 -16 -15 -15 -14 -14 -14 -13 -12 -12 -11 -11 -10 -10 -10 -9 -9 -9 -9 -9 -9 -9 -8 -9 -8 -9 -8 -8 -7 -7 -7 -7 -7 -7 -7 -7 -7 -7 -7 -7 -7 -7 -7
-18 -18 -17 -16 -15 -15 -14 -14 -14 -14 -12 -12 -11 -11 -10 -10 -10 -9 -9 -9 -9 -9 -9 -9 -9 -9 -9 -8 -8 -8 -7 -7 -7 -7 -7 -7 -7 -7 -7 -7 -7 -7 -7 -7 -7
-17 -17 -16 -16 -16 -15 -15 -14 -15 -14 -12 -12 -11 -11 -11 -10 -10 -10 -10 -9 -9 -9 -9 -9 -9 -9 -9 -9 -8 -8 -8 -7 -7 -7 -7 -7 -7 -7 -7 -7 -7 -7 -7 -7 -7
-16 -16 -16 -16 -15 -15 -15 -15 -14 -13 -12 -12 -11 -11 -10 -10 -10 -10 -10 -10 -9 -9 -9 -9 -9 -9 -9 -9 -9 -9 -8 -8 -7 -7 -7 -7 -7 -7 -7 -7 -7 -7 -7 -7 -7
-16 -16 -15 -15 -15 -15 -15 -15 -14 -13 -12 -12 -11 -11 -11 -11 -10 -10 -10 -10 -10 -10 -10 -10 -9 -9 -9 -9 -9 -8 -8 -8 -8 -6 -7 -7 -7 -7 -8 -8 -8 -8 -7 -7 -7
-16 -16 -16 -16 -15 -15 -15 -14 -13 -12 -12 -10 -10 -11 -10 -10 -10 -10 -10 -10 -10 -10 -9 -9 -9 -9 -9 -9 -9 -9 -9 -9 -9 -7 -8 -7 -7 -7 -8 -8 -8 -8 -7 -7 -7
-16 -16 -15 -15 -15 -15 -14 -13 -12 -12 -12 -12 -11 -11 -11 -11 -11 -10 -10 -11 -10 -10 -10 -10 -10 -9 -9 -9 -9 -9 -9 -9 -8 -8 -8 -8 -8 -8 -8 -8 -8 -8 -7 -7 -7
-15 -15 -15 -15 -14 -14 -13 -13 -13 -12 -12 -12 -11 -11 -11 -11 -11 -11 -11 -10 -10 -10 -10 -10 -9 -10 -9 -9 -9 -9 -9 -9 -9 -8 -9 -8 -8 -8 -8 -8 -8 -8 -8 -8 -8
-15 -15 -14 -14 -13 -13 -13 -13 -13 -12 -12 -12 -11 -11 -11 -11 -11 -11 -11 -11 -10 -10 -10 -10 -9 -10 -9 -9 -9 -9 -9 -9 -9 -9 -9 -9 -8 -9 -9 -8 -8 -8 -8 -9 -9
-14 -14 -13 -13 -13 -13 -13 -13 -13 -12 -12 -12 -12 -11 -11 -11 -11 -11 -11 -11 -10 -10 -10 -10 -10 -10 -10 -9 -10 -9 -9 -9 -9 -9 -9 -9 -9 -8 -8 -9 -9 -9 -9 -9 -9
-14 -13 -13 -12 -12 -13 -12 -12 -12 -12 -12 -12 -12 -11 -11 -11 -11 -11 -11 -11 -11 -10 -10 -10 -10 -10 -10 -10 -9 -9 -10 -10 -10 -9 -9 -9 -9 -9 -8 -9 -9 -9 -9 -9 -9
-14 -14 -13 -13 -13 -12 -12 -12 -12 -12 -12 -12 -12 -12 -11 -11 -11 -11 -11 -11 -11 -10 -10 -10 -10 -10 -10 -10 -10 -10 -10 -10 -10 -10 -10 -9 -9 -10 -9 -10 -9 -10 -10 -10 -10
-14 -13 -13 -13 -13 -12 -12 -12 -13 -12 -12 -12 -12 -12 -12 -11 -11 -11 -11 -10 -10 -10 -10 -10 -9 -10 -10 -10 -10 -10 -10 -10 -10 -11 -11 -10 -10 -10 -10 -10 -10 -10 -10 -10 -10
-13 -13 -12 -12 -12 -12 -12 -13 -12 -12 -12 -12 -12 -12 -11 -11 -11 -11 -11 -10 -11 -11 -11 -10 -10 -10 -11 -11 -10 -10 -10 -11 -10 -11 -11 -11 -11 -10 -10 -10 -11 -11 -10 -10 -10
-12 -12 -12 -12 -12 -12 -12 -12 -12 -12 -12 -12 -12 -12 -11 -11 -11 -11 -11 -11 -11 -11 -11 -11 -11 -11 -11 -11 -11 -11 -11 -11 -11 -11 -11 -11 -12 -12 -12 -12 -12 -12 -11 -10 -11
-12 -12 -12 -12 -12 -12 -12 -11 -12 -12 -12 -12 -12 -11 -11 -11 -11 -11 -11 -11 -11 -11 -11 -11 -11 -11 -11 -11 -11 -11 -11 -12 -12 -12 -11 -11 -11 -12 -12 -13 -12 -12 -11 -11 -12
-12 -12 -12 -12 -12 -12 -12 -12 -12 -12 -12 -12 -12 -12 -12 -11 -11 -11 -11 -11 -11 -11 -11 -11 -11 -11 -11 -12 -11 -11 -12 -12 -12 -12 -12 -12 -11 -12 -13 -13 -13 -12 -12 -13 -14
-13 -13 -13 -13 -12 -12 -12 -12 -12 -12 -12 -12 -12 -12 -12 -12 -12 -12 -12 -12 -12 -12 -12 -12 -12 -12 -12 -12 -12 -12 -12 -13 -13 -12 -12 -13 -12 -13 -14 -13 -12 -12 -13 -13 -14
-12 -12 -12 -12 -12 -12 -12 -12 -12 -12 -12 -12 -12 -12 -12 -12 -12 -12 -12 -12 -12 -12 -12 -12 -12 -12 -12 -12 -12 -12 -12 -12 -13 -12 -13 -13 -13 -14 -14 -14 -14 -15 -15 -15 -15
-13 -13 -12 -12 -12 -12 -12 -12 -12 -12 -12 -12 -12 -12 -12 -12 -12 -12 -12 -12 -12 -12 -12 -12 -12 -12 -13 -13 -12 -12 -13 -13 -13 -13 -13 -13 -14 -14 -14 -14 -15 -16 -16 -15 -16
-13 -13 -13 -13 -13 -13 -13 -13 -13 -13 -13 -13 -12 -12 -12 -13 -13 -13 -12 -12 -12 -13 -13 -13 -13 -13 -13 -13 -13 -13 -14 -14 -14 -14 -14 -14 -14 -15 -15 -15 -15 -16 -16 -16 -17
-14 -14 -14 -14 -14 -13 -13 -13 -13 -13 -13 -13 -13 -13 -13 -13 -13 -13 -13 -13 -13 -13 -13 -13 -13 -13 -13 -13 -13 -13 -13 -14 -14 -14 -14 -14 -15 -15 -16 -16 -16 -17 -17 -17 -17

GFSSW_500_temp_051.txt.gz
Temp
-16 -16 -15 -15 -14 -13 -12 -11 -11 -11 -11 -9 -9 -9 -9 -9 -8 -8 -8 -8 -8 -9 -9 -9 -9 -9 -9 -9 -9 -9 -8 -8 -7 -7 -8 -8 -8 -7 -7 -8 -7 -7 -7 -7 -7
-17 -17 -17 -16 -15 -14 -13 -12 -12 -11 -11 -10 -10 -10 -9 -9 -8 -8 -8 -9 -8 -9 -9 -9 -9 -9 -9 -9 -9 -9 -9 -8 -8 -7 -8 -8 -7 -7 -7 -8 -7 -7 -7 -7 -7
-18 -18 -18 -17 -16 -14 -14 -13 -12 -12 -12 -11 -10 -10 -10 -9 -9 -9 -9 -9 -8 -9 -8 -9 -9 -9 -9 -9 -9 -9 -9 -9 -8 -8 -7 -8 -8 -6 -6 -7 -7 -7 -7 -7 -7
-18 -18 -18 -17 -16 -15 -14 -14 -13 -13 -12 -12 -11 -10 -10 -10 -9 -9 -9 -9 -9 -9 -9 -9 -9 -8 -9 -9 -9 -8 -8 -9 -8 -8 -7 -7 -8 -7 -6 -6 -6 -6 -6 -6 -7
-18 -18 -18 -17 -17 -15 -14 -14 -13 -13 -13 -12 -11 -11 -10 -10 -10 -9 -9 -9 -9 -9 -9 -9 -8 -8 -8 -8 -8 -8 -8 -8 -8 -8 -8 -7 -7 -7 -7 -6 -6 -6 -6 -6 -7
-18 -18 -17 -17 -16 -15 -15 -14 -14 -13 -13 -13 -12 -11 -11 -10 -10 -10 -9 -9 -9 -9 -9 -9 -9 -9 -8 -9 -9 -8 -8 -8 -8 -8 -7 -7 -7 -7 -7 -7 -6 -6 -6 -6 -7
-18 -18 -17 -17 -16 -15 -15 -14 -14 -14 -14 -14 -12 -11 -11 -11 -10 -10 -9 -9 -9 -9 -9 -9 -9 -9 -9 -9 -9 -8 -8 -8 -8 -8 -7 -7 -7 -7 -7 -7 -6 -7 -7 -7 -7
-18 -18 -18 -17 -16 -16 -15 -15 -14 -14 -14 -14 -12 -12 -11 -11 -10 -10 -10 -9 -9 -9 -9 -9 -9 -9 -9 -9 -9 -8 -8 -8 -8 -7 -7 -7 -7 -8 -7 -7 -7 -7 -7 -7 -7
-17 -17 -17 -17 -16 -16 -15 -15 -15 -15 -14 -13 -12 -12 -11 -11 -10 -10 -10 -10 -9 -9 -9 -9 -9 -9 -9 -9 -9 -9 -8 -7 -7 -7 -8 -8 -7 -7 -7 -7 -7 -7 -7 -8 -8
-17 -17 -17 -16 -16 -15 -15 -16 -15 -15 -14 -13 -12 -12 -11 -11 -10 -10 -10 -10 -10 -9 -9 -9 -9 -9 -9 -9 -9 -8 -9 -8 -7 -7 -7 -7 -7 -7 -7 -7 -7 -7 -8 -8 -8
-16 -16 -16 -16 -15 -16 -16 -16 -15 -14 -13 -12 -11 -11 -12 -11 -11 -10 -10 -10 -10 -10 -10 -10 -10 -10 -9 -9 -10 -9 -9 -8 -8 -7 -7 -7 -7 -7 -7 -8 -8 -8 -8 -8 -8
-16 -16 -16 -16 -16 -16 -15 -15 -14 -14 -13 -13 -12 -12 -11 -11 -11 -11 -10 -10 -11 -10 -10 -10 -9 -9 -9 -9 -9 -9 -9 -9 -8 -8 -8 -8 -7 -8 -8 -8 -8 -8 -8 -8 -8
-16 -16 -16 -16 -16 -15 -15 -14 -14 -14 -13 -13 -12 -12 -11 -11 -11 -11 -11 -11 -11 -11 -10 -10 -10 -10 -10 -10 -9 -9 -9 -9 -9 -9 -8 -8 -8 -8 -8 -9 -8 -8 -8 -8 -8
-16 -15 -15 -15 -15 -15 -15 -15 -14 -14 -14 -13 -12 -11 -11 -11 -11 -11 -11 -11 -11 -10 -10 -10 -10 -10 -10 -10 -10 -9 -10 -9 -9 -9 -9 -9 -7 -9 -9 -9 -9 -9 -9 -9 -9
-15 -14 -14 -14 -14 -14 -14 -14 -14 -14 -13 -13 -12 -12 -11 -11 -11 -11 -11 -11 -11 -11 -10 -10 -10 -10 -10 -10 -10 -10 -10 -9 -9 -9 -9 -10 -8 -9 -9 -10 -10 -10 -10 -10 -10
-14 -14 -14 -14 -14 -14 -14 -14 -14 -13 -13 -13 -12 -12 -11 -11 -11 -11 -11 -11 -11 -11 -11 -10 -10 -10 -10 -10 -10 -10 -10 -10 -10 -10 -9 -10 -9 -9 -10 -10 -10 -10 -10 -10 -10
-14 -14 -13 -13 -13 -13 -13 -13 -13 -13 -13 -12 -12 -12 -12 -11 -12 -11 -11 -11 -11 -11 -10 -10 -10 -10 -10 -10 -10 -10 -10 -10 -10 -10 -10 -10 -10 -10 -10 -10 -10 -11 -11 -11 -11
-14 -13 -13 -13 -13 -13 -13 -13 -13 -12 -12 -12 -12 -12 -12 -12 -12 -11 -11 -11 -11 -11 -10 -10 -10 -11 -11 -10 -10 -11 -11 -11 -11 -10 -10 -10 -10 -11 -11 -11 -11 -11 -11 -11 -11
-13 -13 -13 -13 -13 -13 -13 -13 -12 -13 -13 -12 -12 -12 -12 -11 -11 -11 -11 -11 -11 -11 -10 -10 -10 -11 -11 -11 -11 -11 -11 -11 -11 -11 -11 -11 -11 -11 -12 -12 -12 -11 -11 -11 -11
-13 -13 -13 -12 -13 -12 -12 -12 -12 -13 -12 -12 -12 -12 -12 -12 -11 -11 -11 -11 -11 -11 -11 -11 -11 -11 -11 -11 -11 -11 -11 -11 -11 -11 -11 -11 -12 -12 -13 -13 -13 -12 -12 -12 -12
-13 -13 -13 -13 -12 -12 -12 -12 -13 -12 -12 -12 -12 -12 -11 -11 -11 -11 -11 -11 -11 -11 -11 -11 -11 -11 -11 -11 -11 -11 -11 -12 -12 -12 -12 -12 -12 -12 -12 -12 -12 -12 -12 -13 -13
-13 -13 -13 -13 -13 -13 -12 -13 -13 -12 -12 -12 -12 -12 -12 -12 -12 -11 -12 -12 -11 -11 -11 -11 -11 -11 -12 -12 -12 -12 -12 -12 -12 -12 -13 -13 -12 -13 -13 -12 -13 -13 -13 -14 -14
-13 -13 -13 -13 -13 -13 -13 -13 -13 -13 -12 -12 -12 -12 -12 -12 -12 -12 -12 -12 -12 -12 -12 -12 -12 -12 -12 -12 -12 -12 -12 -13 -12 -12 -12 -13 -13 -14 -14 -14 -14 -14 -14 -15 -15
-13 -13 -13 -13 -13 -13 -13 -13 -13 -13 -12 -12 -12 -12 -12 -12 -12 -12 -12 -12 -12 -12 -12 -12 -12 -12 -12 -12 -12 -12 -13 -13 -13 -13 -13 -13 -14 -15 -15 -15 -15 -15 -15 -16 -16
-13 -13 -13 -13 -13 -13 -13 -13 -13 -13 -13 -13 -13 -13 -13 -13 -13 -13 -13 -12 -13 -13 -13 -12 -12 -12 -13 -13 -12 -13 -13 -13 -13 -14 -13 -14 -14 -15 -15 -15 -16 -16 -16 -16 -16
-13 -13 -13 -13 -13 -13 -13 -13 -13 -13 -13 -13 -13 -13 -13 -13 -13 -13 -13 -13 -13 -13 -13 -13 -13 -13 -13 -13 -13 -13 -14 -14 -14 -14 -14 -14 -15 -15 -16 -16 -16 -17 -16 -16 -16
-14 -14 -14 -13 -13 -13 -14 -13 -14 -13 -13 -13 -13 -13 -13 -13 -13 -13 -13 -13 -13 -14 -14 -14 -14 -13 -13 -13 -13 -14 -14 -14 -15 -14 -14 -15 -15 -16 -16 -17 -17 -17 -17 -17 -17

GFSSW_500_temp_057.txt.gz
Temp
-11 -11 -11 -11 -11 -10 -10 -10 -10 -10 -10 -10 -9 -9 -9 -8 -8 -9 -9 -9 -8 -8 -8 -9 -9 -9 -9 -9 -9 -9 -9 -8 -8 -8 -8 -8 -8 -8 -7 -7 -7 -7 -7 -7 -6
-13 -14 -14 -14 -13 -13 -12 -11 -11 -11 -10 -10 -10 -10 -10 -9 -8 -9 -9 -9 -9 -9 -8 -9 -8 -9 -9 -9 -9 -10 -10 -8 -8 -8 -8 -8 -8 -8 -8 -8 -7 -7 -7 -6 -6
-15 -15 -15 -15 -15 -15 -14 -13 -13 -12 -11 -11 -10 -10 -10 -10 -9 -9 -9 -9 -9 -9 -9 -8 -8 -9 -8 -8 -9 -9 -9 -9 -8 -8 -8 -8 -8 -8 -8 -8 -8 -7 -7 -7 -6
-16 -16 -17 -17 -16 -16 -16 -15 -14 -13 -12 -11 -11 -11 -10 -10 -10 -9 -9 -9 -10 -9 -9 -9 -9 -9 -8 -8 -8 -9 -9 -9 -8 -8 -8 -8 -8 -7 -8 -8 -8 -7 -7 -7 -6
-17 -17 -18 -18 -18 -17 -17 -16 -15 -14 -13 -12 -12 -11 -11 -10 -10 -10 -10 -9 -10 -10 -9 -9 -10 -9 -9 -8 -8 -9 -9 -9 -9 -8 -8 -8 -8 -7 -7 -7 -7 -7 -6 -6 -7
-18 -18 -19 -19 -18 -18 -17 -17 -16 -15 -13 -13 -12 -12 -11 -11 -11 -10 -10 -10 -9 -9 -10 -10 -9 -8 -9 -9 -8 -8 -8 -8 -9 -9 -8 -7 -7 -7 -7 -7 -7 -7 -6 -6 -6
-18 -19 -19 -19 -19 -19 -18 -17 -16 -15 -14 -14 -13 -12 -12 -12 -11 -11 -10 -10 -10 -10 -10 -10 -9 -10 -9 -10 -8 -8 -8 -8 -9 -8 -8 -8 -8 -8 -7 -7 -7 -7 -6 -6 -7
-18 -19 -19 -19 -19 -18 -18 -18 -17 -16 -15 -14 -14 -13 -12 -12 -12 -11 -10 -10 -10 -10 -10 -10 -10 -10 -10 -9 -8 -8 -8 -8 -8 -8 -8 -8 -9 -7 -7 -7 -7 -7 -7 -7 -7
-18 -18 -18 -18 -19 -19 -18 -18 -17 -16 -15 -15 -14 -13 -13 -12 -12 -11 -10 -10 -10 -10 -10 -10 -10 -10 -9 -9 -8 -8 -8 -8 -8 -8 -8 -8 -8 -8 -8 -7 -7 -7 -7 -7 -7
-18 -18 -19 -19 -19 -18 -18 -17 -17 -16 -16 -15 -14 -14 -13 -13 -12 -11 -11 -10 -10 -10 -10 -10 -10 -9 -9 -9 -9 -9 -8 -8 -8 -8 -8 -8 -9 -8 -8 -8 -8 -8 -8 -8 -8
-18 -18 -18 -18 -18 -18 -17 -17 -17 -16 -16 -15 -15 -14 -13 -13 -12 -12 -11 -11 -10 -10 -10 -10 -10 -9 -10 -9 -9 -9 -9 -9 -9 -8 -8 -8 -8 -9 -9 -8 -8 -8 -8 -8 -8
-17 -17 -17 -17 -17 -17 -17 -16 -16 -16 -16 -15 -15 -14 -14 -13 -12 -11 -11 -11 -10 -10 -10 -10 -10 -10 -10 -10 -9 -9 -9 -9 -9 -9 -8 -8 -8 -9 -9 -8 -8 -8 -9 -9 -9
-17 -17 -17 -17 -17 -16 -16 -16 -16 -16 -16 -15 -15 -14 -14 -13 -12 -12 -11 -11 -11 -10 -10 -10 -10 -10 -10 -10 -10 -10 -10 -9 -9 -9 -9 -9 -8 -9 -9 -8 -8 -8 -9 -9 -9
-16 -17 -17 -17 -16 -16 -16 -16 -16 -16 -15 -15 -14 -14 -13 -13 -12 -12 -11 -11 -11 -10 -10 -10 -11 -11 -11 -10 -10 -10 -10 -9 -9 -9 -9 -9 -8 -9 -9 -9 -9 -9 -9 -9 -10
-16 -17 -17 -17 -17 -16 -16 -16 -16 -16 -15 -15 -14 -14 -13 -13 -12 -11 -11 -11 -11 -11 -11 -11 -11 -11 -10 -10 -10 -10 -10 -10 -10 -10 -9 -10 -9 -9 -10 -10 -10 -10 -10 -10 -10
-16 -16 -16 -16 -17 -16 -16 -16 -16 -16 -15 -15 -14 -14 -14 -13 -12 -12 -12 -11 -11 -11 -11 -11 -11 -11 -11 -11 -11 -11 -11 -10 -10 -10 -9 -10 -10 -10 -10 -10 -10 -10 -10 -11 -11
-15 -16 -16 -16 -16 -16 -16 -16 -16 -16 -15 -14 -14 -14 -14 -13 -13 -12 -12 -12 -11 -11 -11 -11 -11 -11 -11 -11 -11 -11 -11 -11 -10 -10 -10 -10 -10 -11 -11 -11 -11 -11 -11 -11 -11
-15 -15 -15 -15 -15 -16 -16 -16 -16 -15 -14 -14 -14 -14 -14 -13 -13 -12 -12 -12 -12 -12 -11 -11 -11 -11 -11 -11 -11 -11 -11 -11 -10 -10 -10 -10 -10 -11 -11 -11 -11 -12 -12 -12 -12
-14 -14 -14 -14 -15 -15 -15 -15 -15 -14 -14 -14 -14 -14 -13 -13 -13 -13 -12 -12 -12 -12 -12 -11 -11 -11 -11 -11 -11 -11 -11 -11 -11 -11 -11 -11 -11 -11 -12 -12 -12 -12 -13 -13 -13
-14 -14 -14 -14 -15 -14 -14 -15 -15 -14 -14 -14 -14 -14 -13 -13 -13 -12 -12 -12 -12 -12 -12 -11 -11 -11 -11 -11 -11 -11 -12 -12 -12 -12 -11 -11 -12 -12 -12 -12 -13 -13 -13 -13 -13
-14 -14 -14 -14 -14 -14 -14 -14 -14 -14 -14 -14 -13 -13 -13 -13 -13 -12 -12 -12 -12 -12 -12 -12 -12 -12 -12 -12 -12 -12 -12 -12 -12 -12 -12 -12 -12 -13 -13 -13 -13 -13 -13 -13 -14
-14 -14 -14 -14 -14 -14 -14 -14 -14 -14 -14 -13 -13 -13 -13 -13 -13 -12 -12 -12 -12 -12 -12 -12 -12 -12 -12 -12 -12 -12 -13 -13 -13 -13 -13 -13 -13 -14 -14 -13 -13 -13 -14 -14 -14
-14 -14 -14 -14 -14 -14 -14 -14 -14 -14 -14 -13 -13 -13 -13 -13 -13 -12 -12 -12 -12 -12 -12 -13 -12 -13 -13 -13 -13 -13 -13 -13 -13 -13 -13 -14 -14 -14 -14 -14 -14 -14 -14 -14 -14
-14 -14 -14 -14 -14 -14 -14 -14 -14 -14 -13 -13 -13 -13 -13 -13 -13 -13 -13 -13 -13 -13 -13 -13 -13 -13 -13 -13 -13 -13 -14 -13 -13 -13 -14 -14 -14 -14 -14 -14 -15 -15 -15 -15 -15
-14 -14 -14 -14 -14 -14 -14 -14 -14 -14 -14 -13 -13 -13 -13 -13 -13 -13 -13 -13 -13 -13 -13 -13 -13 -13 -13 -13 -13 -14 -14 -14 -14 -14 -14 -14 -14 -15 -15 -15 -15 -16 -16 -16 -16
-14 -14 -14 -14 -14 -14 -14 -14 -14 -14 -14 -14 -14 -14 -13 -13 -13 -13 -13 -13 -13 -13 -13 -14 -14 -14 -14 -14 -14 -14 -14 -14 -14 -15 -15 -15 -15 -15 -16 -16 -17 -17 -17 -17 -17
-14 -14 -14 -14 -14 -14 -14 -14 -14 -14 -14 -14 -14 -14 -14 -14 -14 -14 -14 -14 -14 -14 -14 -14 -14 -14 -14 -14 -14 -14 -14 -15 -15 -15 -15 -16 -16 -16 -17 -17 -17 -17 -17 -17 -17

GFSSW_500_temp_060.txt.gz
Temp
-10 -9 -9 -9 -9 -9 -9 -9 -10 -10 -10 -10 -9 -9 -9 -9 -8 -8 -8 -8 -8 -9 -9 -8 -9 -10 -10 -10 -10 -9 -9 -8 -8 -9 -9 -9 -8 -8 -8 -8 -7 -7 -7 -7 -7
-10 -10 -11 -11 -11 -11 -11 -10 -10 -10 -10 -10 -10 -10 -9 -9 -9 -9 -9 -8 -8 -9 -9 -9 -9 -9 -9 -10 -10 -10 -9 -9 -8 -9 -8 -9 -9 -8 -8 -7 -7 -7 -7 -6 -6
-12 -12 -13 -13 -13 -13 -13 -13 -12 -12 -11 -11 -11 -10 -10 -10 -9 -10 -9 -9 -9 -9 -9 -9 -9 -9 -9 -9 -10 -10 -9 -8 -8 -8 -8 -8 -8 -8 -8 -8 -7 -7 -6 -6 -6
-14 -14 -15 -15 -15 -15 -15 -14 -14 -13 -12 -12 -11 -11 -10 -10 -10 -10 -10 -9 -9 -9 -9 -10 -9 -9 -9 -9 -9 -9 -9 -9 -8 -8 -8 -8 -8 -8 -8 -8 -7 -7 -6 -6 -6
-15 -15 -16 -16 -16 -16 -16 -16 -16 -15 -14 -13 -12 -11 -11 -10 -10 -10 -10 -10 -9 -9 -10 -10 -10 -9 -10 -9 -9 -9 -9 -9 -8 -8 -8 -8 -8 -8 -8 -8 -8 -7 -7 -7 -6
-15 -16 -16 -17 -17 -18 -18 -17 -17 -16 -15 -14 -13 -12 -11 -11 -11 -10 -10 -10 -10 -9 -9 -10 -10 -9 -9 -10 -9 -9 -9 -9 -9 -9 -8 -8 -8 -8 -8 -8 -8 -7 -7 -7 -6
-16 -17 -18 -18 -18 -19 -19 -18 -17 -16 -16 -15 -14 -13 -12 -12 -11 -11 -11 -10 -10 -9 -9 -10 -10 -10 -10 -10 -9 -9 -9 -9 -9 -9 -8 -8 -8 -8 -8 -8 -7 -7 -7 -7 -7
-17 -18 -18 -19 -19 -19 -19 -18 -18 -17 -16 -15 -14 -14 -13 -12 -12 -11 -11 -11 -10 -10 -10 -10 -10 -10 -10 -9 -10 -9 -9 -9 -9 -9 -8 -8 -9 -8 -8 -8 -8 -7 -7 -7 -7
-18 -18 -18 -19 -19 -19 -19 -19 -18 -17 -16 -16 -15 -15 -13 -13 -12 -12 -11 -11 -11 -10 -10 -10 -11 -10 -9 -9 -9 -9 -9 -9 -9 -9 -8 -8 -8 -8 -8 -8 -8 -8 -8 -8 -8
-18 -18 -18 -18 -19 -19 -19 -19 -18 -17 -17 -16 -16 -15 -14 -13 -13 -12 -12 -11 -11 -10 -10 -10 -10 -10 -10 -9 -10 -10 -9 -9 -9 -9 -8 -8 -9 -8 -8 -8 -8 -8 -8 -8 -8
-17 -18 -19 -19 -19 -19 -19 -18 -18 -17 -17 -17 -16 -15 -14 -14 -13 -13 -12 -12 -11 -11 -10 -10 -10 -10 -10 -10 -10 -9 -9 -9 -9 -9 -8 -9 -9 -9 -9 -9 -9 -9 -9 -9 -8
-17 -17 -18 -18 -19 -18 -18 -18 -18 -18 -17 -17 -16 -15 -14 -14 -13 -13 -12 -12 -12 -11 -10 -10 -10 -10 -10 -10 -10 -9 -9 -9 -9 -9 -8 -8 -9 -9 -9 -9 -9 -9 -9 -9 -9
-17 -17 -18 -18 -18 -18 -18 -18 -18 -17 -17 -16 -16 -15 -15 -14 -13 -13 -13 -12 -12 -11 -11 -11 -11 -10 -10 -10 -10 -10 -9 -9 -9 -9 -9 -9 -9 -10 -9 -9 -9 -9 -9 -9 -9
-16 -17 -17 -17 -18 -18 -18 -17 -17 -17 -17 -16 -15 -15 -14 -14 -13 -13 -13 -12 -11 -11 -11 -10 -11 -11 -11 -10 -10 -10 -10 -10 -10 -9 -9 -10 -8 -10 -9 -9 -9 -9 -10 -10 -10
-17 -17 -17 -17 -17 -18 -17 -17 -17 -17 -16 -16 -15 -15 -14 -14 -14 -13 -13 -12 -12 -12 -11 -11 -11 -11 -11 -11 -11 -10 -10 -10 -10 -10 -9 -10 -9 -10 -10 -10 -10 -10 -10 -10 -11
-17 -17 -17 -17 -17 -17 -17 -17 -17 -16 -16 -16 -16 -15 -14 -14 -13 -13 -13 -12 -12 -12 -11 -11 -11 -11 -11 -11 -11 -11 -11 -10 -10 -10 -10 -10 -10 -10 -10 -10 -10 -11 -11 -11 -11
-16 -16 -17 -17 -17 -17 -17 -17 -17 -17 -16 -16 -15 -14 -14 -14 -14 -13 -13 -13 -12 -12 -12 -12 -12 -12 -12 -11 -11 -11 -11 -11 -10 -10 -10 -10 -10 -11 -11 -11 -11 -12 -12 -12 -12
-16 -16 -16 -17 -17 -17 -17 -16 -16 -16 -15 -15 -15 -15 -15 -14 -14 -14 -14 -13 -13 -12 -12 -12 -12 -12 -12 -12 -11 -11 -11 -11 -11 -11 -11 -11 -11 -11 -12 -12 -12 -12 -12 -12 -13
-15 -16 -16 -16 -16 -16 -16 -16 -16 -16 -15 -15 -15 -14 -14 -14 -14 -14 -14 -13 -13 -13 -12 -12 -12 -12 -12 -12 -11 -11 -11 -11 -11 -11 -11 -11 -12 -12 -12 -12 -12 -13 -13 -13 -13
-15 -15 -15 -16 -16 -16 -16 -16 -16 -15 -15 -15 -14 -14 -14 -14 -14 -14 -14 -13 -13 -13 -12 -12 -12 -12 -12 -12 -12 -12 -12 -12 -12 -12 -12 -12 -12 -12 -13 -13 -13 -13 -13 -13 -13
-15 -15 -15 -15 -15 -16 -16 -16 -15 -15 -15 -15 -14 -14 -14 -14 -13 -13 -13 -13 -13 -12 -12 -12 -12 -12 -12 -12 -12 -12 -12 -12 -12 -12 -12 -12 -13 -13 -13 -13 -13 -13 -14 -14 -14
-14 -15 -15 -15 -15 -15 -15 -15 -15 -15 -15 -15 -15 -14 -14 -14 -14 -13 -13 -13 -13 -13 -13 -12 -12 -12 -12 -12 -12 -12 -13 -13 -13 -13 -13 -13 -13 -13 -14 -14 -14 -14 -14 -14 -14
-15 -14 -14 -15 -15 -15 -15 -15 -15 -15 -15 -15 -14 -14 -14 -14 -13 -13 -13 -13 -13 -13 -12 -13 -13 -13 -13 -13 -13 -13 -13 -13 -13 -13 -13 -14 -14 -14 -14 -14 -14 -14 -14 -14 -15
-14 -14 -14 -14 -15 -15 -15 -15 -15 -14 -14 -14 -14 -14 -14 -13 -13 -13 -13 -13 -13 -13 -13 -13 -13 -13 -13 -13 -13 -13 -13 -14 -14 -14 -14 -14 -15 -15 -14 -15 -15 -15 -15 -15 -15
-14 -14 -14 -14 -15 -15 -15 -15 -15 -15 -14 -14 -14 -14 -14 -13 -13 -13 -13 -13 -13 -13 -13 -13 -13 -13 -13 -14 -14 -14 -14 -14 -14 -14 -14 -15 -15 -15 -15 -15 -15 -16 -16 -16 -16
-14 -15 -15 -15 -15 -15 -15 -15 -15 -15 -14 -14 -14 -14 -14 -14 -14 -14 -14 -14 -14 -14 -14 -14 -14 -14 -14 -14 -14 -14 -15 -15 -15 -15 -15 -15 -15 -15 -16 -16 -17 -17 -17 -17 -17
-15 -15 -15 -15 -15 -15 -15 -14 -15 -15 -14 -14 -14 -14 -14 -14 -14 -14 -14 -14 -14 -14 -14 -14 -14 -14 -14 -15 -15 -14 -15 -15 -15 -15 -16 -16 -16 -16 -16 -17 -17 -18 -17 -18 -18

GFSSW_500_temp_063.txt.gz
Temp
-9 -9 -9 -9 -9 -9 -9 -9 -9 -9 -9 -9 -9 -9 -9 -9 -8 -8 -8 -9 -8 -8 -8 -9 -9 -10 -10 -10 -10 -10 -9 -9 -9 -9 -9 -9 -8 -8 -8 -7 -7 -7 -7 -8 -8
-9 -10 -9 -9 -9 -9 -9 -9 -9 -9 -10 -9 -9 -9 -9 -9 -9 -9 -9 -9 -8 -8 -8 -9 -9 -9 -10 -10 -10 -10 -10 -9 -9 -8 -9 -9 -8 -8 -8 -7 -7 -7 -7 -7 -7
-10 -10 -10 -10 -10 -11 -10 -10 -10 -10 -10 -10 -10 -10 -10 -10 -9 -10 -9 -9 -9 -9 -9 -9 -9 -9 -9 -10 -10 -10 -10 -9 -9 -9 -9 -9 -8 -8 -8 -8 -7 -7 -7 -7 -7
-11 -11 -12 -12 -13 -13 -13 -13 -13 -12 -12 -11 -11 -11 -10 -10 -10 -10 -9 -9 -9 -9 -9 -9 -9 -10 -9 -9 -10 -10 -10 -9 -9 -9 -8 -8 -8 -8 -8 -8 -7 -7 -7 -7 -7
-12 -13 -14 -14 -15 -15 -15 -15 -15 -14 -14 -14 -13 -12 -12 -11 -10 -10 -10 -10 -10 -9 -9 -9 -9 -10 -10 -10 -10 -10 -10 -9 -9 -9 -9 -8 -8 -8 -8 -8 -7 -7 -7 -7 -7
-14 -15 -15 -16 -16 -16 -16 -16 -16 -16 -15 -15 -14 -13 -12 -11 -11 -11 -10 -10 -10 -10 -9 -10 -10 -10 -10 -10 -10 -10 -10 -9 -9 -9 -9 -9 -8 -8 -8 -8 -8 -8 -7 -7 -7
-15 -15 -16 -17 -17 -18 -18 -18 -18 -17 -16 -16 -15 -14 -12 -13 -12 -11 -11 -11 -10 -10 -10 -10 -10 -10 -10 -10 -10 -10 -10 -10 -9 -9 -9 -8 -8 -8 -8 -8 -7 -8 -7 -7 -7
-15 -16 -17 -18 -18 -18 -19 -19 -19 -18 -18 -17 -16 -15 -14 -13 -13 -12 -11 -11 -11 -10 -10 -10 -10 -10 -10 -10 -11 -10 -10 -10 -10 -9 -9 -8 -8 -8 -8 -8 -8 -8 -8 -8 -8
-15 -16 -17 -18 -19 -19 -19 -19 -19 -19 -18 -17 -16 -16 -16 -14 -13 -13 -12 -12 -11 -11 -10 -10 -10 -11 -11 -11 -11 -10 -10 -10 -10 -9 -9 -8 -9 -9 -8 -8 -8 -8 -8 -8 -8
-16 -17 -18 -18 -19 -19 -19 -19 -19 -19 -18 -17 -17 -16 -16 -15 -14 -13 -12 -12 -12 -11 -11 -11 -11 -11 -10 -11 -10 -10 -10 -10 -10 -9 -9 -8 -9 -9 -9 -9 -9 -9 -8 -8 -8
-16 -17 -18 -19 -19 -19 -19 -19 -19 -19 -18 -18 -17 -17 -16 -16 -15 -14 -13 -12 -12 -12 -11 -11 -11 -10 -11 -10 -11 -10 -10 -10 -10 -9 -9 -9 -9 -10 -9 -9 -9 -9 -9 -9 -9
-16 -17 -18 -19 -19 -19 -19 -19 -19 -18 -18 -18 -17 -17 -16 -15 -14 -14 -13 -13 -12 -12 -12 -11 -11 -11 -11 -11 -10 -10 -10 -10 -9 -9 -9 -9 -10 -10 -10 -10 -9 -9 -9 -9 -10
-16 -17 -17 -18 -19 -19 -19 -19 -19 -18 -18 -18 -17 -16 -16 -15 -14 -14 -13 -13 -12 -12 -12 -12 -12 -11 -11 -11 -10 -10 -10 -10 -9 -9 -9 -9 -9 -10 -10 -10 -10 -10 -10 -10 -10
-17 -17 -17 -18 -18 -19 -19 -19 -18 -18 -18 -17 -17 -16 -16 -15 -14 -14 -14 -13 -13 -12 -12 -12 -11 -11 -11 -11 -11 -10 -10 -10 -10 -10 -10 -10 -9 -10 -10 -10 -10 -10 -10 -10 -10
-17 -17 -17 -18 -18 -18 -18 -18 -18 -18 -17 -17 -16 -16 -16 -15 -15 -14 -14 -14 -13 -13 -12 -12 -12 -12 -12 -11 -11 -11 -11 -11 -10 -10 -10 -10 -10 -10 -10 -10 -10 -10 -10 -10 -11
-17 -17 -17 -17 -18 -18 -18 -18 -17 -17 -17 -17 -16 -16 -15 -15 -14 -14 -14 -14 -13 -13 -12 -12 -12 -12 -12 -11 -11 -11 -11 -11 -11 -10 -10 -11 -10 -10 -11 -11 -11 -11 -11 -11 -11
-16 -17 -17 -17 -18 -17 -17 -17 -16 -17 -17 -16 -16 -16 -15 -15 -14 -14 -14 -13 -13 -13 -12 -12 -12 -12 -12 -12 -12 -12 -12 -11 -11 -11 -11 -11 -11 -11 -11 -11 -12 -12 -12 -12 -12
-16 -17 -17 -17 -17 -17 -17 -17 -17 -16 -16 -16 -16 -15 -15 -15 -15 -14 -14 -14 -13 -13 -13 -13 -13 -12 -12 -12 -12 -12 -12 -12 -11 -11 -11 -11 -11 -11 -12 -12 -12 -12 -12 -13 -13
-16 -16 -16 -17 -17 -17 -16 -17 -16 -16 -16 -16 -15 -15 -15 -15 -15 -15 -14 -14 -13 -13 -13 -13 -13 -13 -12 -12 -12 -12 -12 -12 -12 -11 -11 -12 -12 -12 -12 -12 -13 -13 -13 -13 -13
-15 -16 -16 -16 -17 -16 -16 -16 -16 -16 -16 -16 -15 -15 -15 -15 -14 -14 -14 -14 -14 -13 -13 -13 -13 -12 -12 -12 -12 -12 -12 -12 -12 -12 -12 -12 -12 -13 -13 -13 -13 -13 -14 -14 -14
-15 -15 -16 -16 -16 -16 -17 -16 -16 -16 -16 -15 -15 -15 -15 -14 -14 -14 -14 -14 -13 -13 -13 -13 -13 -13 -12 -12 -12 -12 -13 -12 -13 -13 -13 -13 -13 -13 -13 -14 -14 -14 -14 -14 -14
-15 -15 -16 -16 -16 -16 -16 -16 -16 -16 -16 -16 -16 -15 -15 -14 -14 -14 -14 -14 -13 -13 -13 -13 -13 -13 -13 -13 -13 -13 -13 -13 -13 -13 -13 -13 -13 -14 -14 -14 -14 -14 -14 -14 -15
-15 -15 -15 -16 -16 -16 -16 -16 -16 -16 -16 -15 -15 -15 -15 -14 -14 -14 -14 -14 -13 -13 -13 -13 -13 -13 -13 -13 -13 -13 -13 -13 -13 -14 -14 -14 -14 -14 -14 -14 -14 -14 -15 -15 -15
-15 -15 -15 -15 -16 -16 -16 -16 -16 -15 -15 -15 -15 -14 -14 -14 -14 -14 -14 -13 -13 -13 -13 -13 -13 -13 -13 -13 -13 -14 -14 -14 -14 -14 -14 -14 -15 -15 -14 -15 -15 -15 -15 -16 -16
-15 -15 -15 -15 -15 -15 -15 -16 -16 -15 -15 -15 -15 -14 -14 -14 -14 -14 -14 -14 -14 -14 -14 -14 -14 -14 -14 -14 -14 -14 -14 -14 -14 -14 -14 -14 -15 -15 -15 -15 -15 -16 -16 -17 -17
-15 -15 -15 -15 -15 -15 -15 -15 -15 -15 -15 -15 -15 -15 -14 -14 -14 -14 -14 -14 -14 -14 -14 -14 -14 -14 -14 -14 -14 -14 -15 -14 -14 -15 -14 -15 -15 -15 -16 -16 -17 -17 -17 -18 -18
-15 -15 -15 -15 -15 -15 -15 -15 -15 -15 -15 -15 -15 -15 -15 -14 -14 -14 -14 -14 -14 -14 -14 -14 -14 -14 -14 -14 -14 -14 -14 -14 -14 -15 -15 -15 -16 -16 -17 -17 -17 -18 -18 -18 -18

GFSSW_500_temp_066.txt.gz
Temp
-9 -9 -9 -9 -9 -8 -8 -8 -8 -8 -8 -8 -8 -8 -8 -8 -8 -8 -8 -9 -8 -8 -8 -8 -9 -9 -9 -9 -9 -9 -9 -9 -9 -9 -9 -8 -8 -8 -8 -8 -8 -8 -8 -8 -7
-9 -9 -9 -9 -9 -9 -9 -9 -9 -9 -9 -9 -8 -8 -9 -9 -9 -8 -9 -9 -9 -8 -8 -9 -9 -9 -10 -10 -9 -9 -9 -9 -9 -9 -9 -9 -9 -8 -8 -8 -8 -7 -7 -8 -8
-9 -9 -9 -10 -9 -9 -9 -9 -9 -9 -9 -9 -9 -9 -9 -9 -9 -10 -9 -9 -9 -9 -9 -9 -9 -9 -10 -10 -10 -9 -9 -9 -9 -9 -9 -9 -9 -9 -8 -8 -8 -8 -8 -8 -7
-10 -10 -10 -10 -10 -10 -10 -10 -10 -9 -9 -9 -9 -9 -9 -9 -10 -10 -10 -9 -9 -9 -9 -9 -9 -9 -9 -10 -10 -10 -9 -9 -9 -9 -9 -9 -9 -9 -9 -8 -8 -8 -8 -8 -7
-11 -11 -11 -11 -12 -12 -13 -12 -12 -12 -12 -11 -10 -10 -10 -9 -10 -10 -10 -10 -10 -9 -9 -9 -10 -10 -10 -9 -10 -10 -10 -9 -9 -9 -9 -9 -9 -8 -9 -9 -8 -8 -8 -8 -8
-12 -12 -13 -14 -14 -14 -15 -15 -15 -14 -14 -14 -13 -12 -11 -10 -11 -11 -11 -10 -10 -10 -10 -9 -10 -10 -10 -10 -10 -10 -10 -10 -9 -9 -9 -9 -9 -8 -9 -8 -8 -8 -8 -8 -8
-13 -14 -14 -14 -15 -15 -16 -17 -17 -17 -16 -16 -15 -14 -13 -13 -12 -11 -11 -11 -10 -10 -10 -10 -10 -10 -10 -10 -10 -9 -10 -10 -10 -9 -9 -9 -9 -9 -9 -8 -8 -8 -8 -8 -8
-14 -14 -14 -15 -16 -17 -18 -18 -18 -18 -18 -17 -16 -15 -15 -14 -13 -12 -12 -12 -11 -11 -11 -10 -10 -11 -11 -10 -10 -10 -10 -10 -10 -10 -10 -9 -9 -9 -9 -8 -8 -8 -8 -8 -8
-14 -14 -15 -16 -17 -18 -18 -19 -19 -19 -18 -18 -17 -16 -16 -15 -14 -14 -13 -12 -12 -11 -11 -11 -11 -11 -11 -11 -10 -10 -10 -10 -10 -10 -10 -9 -9 -9 -9 -9 -8 -8 -8 -8 -8
-15 -15 -16 -17 -18 -19 -19 -19 -19 -19 -19 -18 -18 -17 -16 -16 -15 -15 -13 -13 -12 -12 -11 -11 -11 -11 -11 -11 -11 -10 -10 -11 -11 -10 -10 -9 -10 -9 -9 -9 -9 -9 -9 -9 -9
-15 -15 -16 -17 -18 -19 -19 -19 -19 -19 -19 -19 -18 -18 -17 -16 -16 -15 -14 -13 -13 -12 -12 -11 -11 -10 -11 -11 -11 -11 -11 -11 -11 -10 -10 -10 -10 -10 -9 -9 -9 -9 -9 -9 -9
-15 -16 -16 -17 -18 -19 -19 -19 -19 -19 -19 -19 -18 -18 -17 -17 -16 -16 -14 -13 -13 -13 -12 -12 -11 -11 -12 -11 -11 -11 -11 -11 -11 -10 -11 -10 -10 -10 -10 -9 -9 -9 -9 -9 -9
-16 -16 -16 -17 -18 -19 -19 -19 -19 -19 -19 -18 -18 -18 -17 -17 -16 -15 -14 -14 -13 -13 -13 -12 -12 -12 -11 -12 -11 -11 -11 -10 -11 -11 -10 -10 -10 -10 -10 -10 -10 -10 -10 -10 -10
-16 -16 -17 -17 -18 -18 -18 -19 -19 -19 -19 -18 -18 -17 -17 -16 -16 -15 -15 -14 -13 -13 -13 -13 -12 -12 -12 -12 -12 -11 -11 -11 -10 -10 -10 -10 -10 -10 -10 -10 -10 -10 -10 -10 -10
-16 -16 -17 -17 -17 -18 -18 -19 -19 -18 -19 -18 -18 -17 -17 -16 -16 -15 -15 -14 -14 -13 -13 -13 -12 -13 -12 -12 -12 -11 -11 -11 -11 -11 -10 -11 -11 -10 -10 -10 -10 -10 -10 -10 -10
-16 -17 -16 -17 -17 -17 -18 -18 -18 -18 -18 -17 -17 -17 -16 -16 -15 -15 -15 -14 -14 -14 -14 -13 -13 -13 -12 -12 -12 -12 -12 -11 -11 -11 -11 -11 -11 -11 -11 -11 -10 -11 -11 -11 -11
-16 -17 -16 -17 -17 -17 -18 -17 -17 -17 -17 -17 -17 -16 -16 -16 -15 -15 -15 -14 -14 -14 -13 -13 -13 -12 -12 -12 -12 -12 -12 -12 -12 -12 -11 -11 -11 -11 -11 -11 -11 -11 -11 -12 -12
-16 -16 -16 -16 -17 -17 -17 -16 -16 -17 -17 -17 -16 -16 -16 -15 -15 -15 -15 -14 -14 -14 -14 -13 -13 -13 -12 -12 -12 -12 -12 -12 -12 -11 -11 -11 -11 -11 -12 -12 -12 -12 -12 -13 -13
-16 -16 -16 -16 -17 -17 -16 -17 -17 -16 -16 -16 -16 -16 -16 -15 -14 -14 -15 -15 -14 -14 -14 -13 -13 -13 -13 -12 -12 -12 -12 -12 -12 -12 -12 -12 -12 -12 -12 -12 -13 -13 -13 -13 -14
-15 -15 -16 -16 -16 -17 -17 -17 -17 -16 -16 -15 -15 -16 -15 -15 -15 -15 -15 -14 -14 -14 -14 -13 -13 -13 -13 -12 -12 -12 -12 -12 -12 -12 -12 -12 -12 -13 -13 -13 -13 -13 -14 -14 -14
-15 -15 -15 -16 -16 -17 -17 -17 -17 -17 -17 -16 -17 -16 -16 -16 -15 -15 -15 -14 -14 -14 -13 -13 -13 -13 -13 -13 -13 -13 -13 -13 -13 -13 -13 -13 -13 -13 -13 -13 -13 -14 -14 -14 -14
-15 -15 -15 -16 -16 -16 -17 -17 -17 -17 -17 -16 -16 -16 -15 -15 -15 -14 -14 -14 -14 -13 -13 -13 -13 -13 -13 -13 -13 -13 -13 -13 -13 -13 -13 -13 -13 -14 -14 -14 -14 -14 -14 -15 -15
-15 -15 -15 -15 -16 -16 -16 -16 -16 -16 -16 -16 -16 -16 -15 -15 -15 -15 -14 -14 -14 -14 -13 -13 -13 -13 -13 -13 -13 -13 -13 -13 -13 -13 -14 -14 -14 -14 -14 -14 -14 -14 -15 -15 -15
-15 -15 -15 -15 -16 -16 -16 -16 -16 -16 -16 -16 -16 -15 -15 -15 -15 -14 -14 -14 -14 -13 -13 -13 -13 -13 -13 -13 -13 -13 -13 -14 -14 -14 -14 -14 -14 -14 -14 -14 -15 -15 -15 -15 -16
-15 -15 -15 -15 -16 -16 -16 -16 -16 -16 -16 -15 -15 -15 -15 -15 -14 -14 -14 -14 -14 -14 -14 -14 -14 -14 -14 -13 -14 -14 -14 -14 -14 -14 -14 -14 -14 -14 -15 -15 -15 -15 -16 -16 -17
-15 -15 -15 -15 -15 -15 -15 -16 -16 -16 -16 -15 -15 -15 -15 -14 -14 -14 -14 -14 -14 -14 -14 -14 -14 -14 -14 -14 -14 -14 -14 -14 -14 -14 -14 -14 -14 -15 -15 -15 -16 -16 -17 -17 -17
-15 -15 -15 -15 -15 -15 -15 -16 -15 -15 -15 -15 -15 -15 -15 -15 -15 -15 -14 -14 -14 -14 -14 -14 -14 -14 -14 -14 -14 -14 -14 -14 -14 -14 -14 -15 -15 -15 -16 -16 -16 -17 -17 -17 -18

GFSSW_500_temp_069.txt.gz
Temp
-8 -8 -8 -8 -8 -8 -8 -8 -8 -8 -8 -8 -7 -7 -7 -7 -7 -7 -7 -8 -8 -8 -8 -8 -9 -9 -9 -9 -9 -9 -9 -9 -9 -9 -9 -9 -8 -8 -8 -8 -8 -7 -7 -7 -7
-9 -9 -9 -9 -9 -8 -8 -8 -8 -8 -8 -8 -8 -8 -8 -8 -7 -7 -9 -8 -8 -8 -8 -8 -9 -9 -9 -9 -9 -9 -9 -10 -10 -9 -9 -9 -9 -9 -9 -8 -8 -8 -8 -8 -7
-9 -9 -9 -9 -9 -9 -9 -9 -9 -9 -9 -9 -9 -8 -8 -8 -8 -9 -8 -9 -8 -8 -8 -9 -9 -9 -9 -10 -9 -9 -9 -10 -9 -9 -9 -10 -10 -9 -9 -9 -8 -8 -8 -8 -8
-10 -10 -10 -10 -10 -10 -10 -10 -9 -9 -9 -9 -9 -9 -9 -9 -9 -8 -9 -9 -9 -9 -9 -9 -9 -9 -9 -9 -10 -10 -10 -10 -9 -9 -10 -10 -10 -10 -9 -9 -9 -9 -8 -8 -8
-10 -11 -11 -10 -10 -10 -10 -10 -10 -10 -10 -9 -9 -9 -9 -9 -9 -9 -9 -9 -9 -9 -9 -9 -9 -10 -10 -10 -10 -9 -9 -10 -10 -10 -10 -10 -10 -10 -9 -9 -9 -8 -8 -8 -8
-11 -11 -11 -11 -12 -13 -13 -13 -13 -13 -13 -12 -11 -11 -10 -9 -11 -10 -10 -10 -9 -10 -10 -9 -9 -10 -10 -10 -10 -10 -9 -10 -10 -10 -10 -10 -10 -9 -9 -9 -9 -8 -8 -8 -8
-12 -12 -13 -13 -13 -13 -14 -14 -14 -15 -15 -14 -14 -13 -12 -12 -12 -10 -10 -10 -10 -10 -10 -10 -9 -9 -10 -10 -10 -10 -10 -10 -10 -10 -10 -10 -10 -10 -9 -9 -9 -9 -8 -8 -8
-13 -13 -13 -13 -13 -14 -15 -16 -17 -17 -17 -17 -17 -16 -14 -15 -13 -12 -11 -11 -11 -11 -10 -10 -10 -10 -10 -10 -10 -10 -10 -10 -10 -10 -10 -10 -10 -10 -9 -10 -9 -9 -8 -8 -8
-13 -14 -14 -14 -14 -16 -17 -18 -18 -18 -19 -18 -18 -17 -17 -16 -15 -14 -13 -12 -12 -11 -11 -11 -11 -10 -10 -11 -11 -11 -10 -10 -10 -10 -11 -10 -10 -10 -10 -9 -9 -9 -9 -8 -8
-14 -14 -14 -15 -16 -17 -18 -19 -19 -19 -19 -19 -19 -18 -17 -17 -16 -15 -14 -13 -13 -12 -12 -11 -11 -11 -11 -11 -11 -11 -11 -11 -10 -9 -10 -11 -10 -10 -10 -9 -9 -9 -9 -9 -9
-14 -14 -15 -15 -16 -17 -18 -19 -19 -19 -19 -19 -19 -19 -18 -17 -16 -16 -15 -14 -14 -13 -12 -12 -12 -11 -11 -11 -12 -11 -11 -11 -10 -10 -10 -10 -11 -11 -10 -10 -10 -9 -9 -9 -9
-15 -15 -15 -15 -16 -17 -18 -19 -19 -19 -19 -19 -19 -19 -18 -17 -17 -17 -16 -15 -14 -13 -13 -12 -12 -12 -12 -12 -11 -12 -12 -11 -11 -11 -10 -11 -11 -10 -10 -10 -10 -10 -10 -10 -10
-15 -15 -15 -15 -16 -17 -18 -18 -19 -19 -19 -19 -18 -18 -18 -17 -18 -17 -16 -15 -15 -14 -13 -13 -13 -12 -11 -11 -12 -12 -12 -11 -11 -11 -11 -10 -10 -13 -11 -10 -10 -9 -10 -10 -10
-15 -15 -16 -16 -16 -17 -17 -18 -18 -19 -19 -19 -18 -18 -18 -18 -17 -17 -16 -16 -15 -14 -14 -14 -12 -12 -12 -12 -12 -12 -12 -11 -11 -11 -10 -11 -11 -11 -10 -11 -10 -10 -10 -10 -10
-16 -16 -16 -16 -16 -17 -18 -18 -18 -19 -18 -18 -18 -18 -18 -18 -17 -17 -16 -16 -15 -14 -14 -13 -13 -12 -12 -12 -12 -12 -12 -12 -12 -11 -12 -12 -11 -11 -11 -11 -11 -11 -10 -10 -11
-16 -16 -16 -16 -17 -17 -17 -18 -17 -17 -18 -18 -18 -18 -18 -17 -17 -16 -16 -15 -14 -14 -14 -13 -13 -13 -12 -13 -13 -13 -12 -12 -12 -12 -11 -11 -12 -12 -11 -11 -11 -11 -11 -11 -11
-15 -16 -16 -16 -16 -16 -17 -17 -17 -17 -17 -17 -17 -17 -17 -17 -16 -16 -15 -15 -15 -14 -14 -14 -13 -13 -13 -13 -13 -13 -13 -12 -12 -12 -12 -11 -11 -11 -12 -11 -11 -11 -11 -12 -12
-15 -16 -16 -16 -16 -16 -16 -17 -17 -17 -17 -16 -16 -17 -17 -16 -16 -15 -15 -15 -15 -14 -14 -14 -13 -13 -13 -13 -13 -13 -13 -13 -13 -14 -14 -12 -12 -11 -12 -12 -12 -12 -12 -12 -12
-15 -15 -16 -16 -16 -16 -16 -16 -17 -16 -16 -16 -15 -16 -16 -15 -15 -15 -15 -14 -14 -14 -14 -14 -13 -13 -13 -13 -13 -13 -13 -13 -13 -12 -12 -13 -11 -12 -12 -12 -12 -12 -13 -13 -13
-15 -15 -16 -16 -16 -16 -16 -16 -17 -16 -15 -16 -15 -15 -15 -15 -15 -15 -15 -14 -14 -14 -14 -14 -13 -13 -13 -13 -13 -13 -13 -13 -13 -13 -13 -14 -13 -12 -12 -13 -13 -13 -13 -13 -13
-15 -15 -15 -15 -16 -16 -16 -17 -17 -17 -17 -17 -16 -16 -15 -15 -15 -15 -15 -15 -14 -14 -14 -14 -14 -14 -13 -13 -13 -13 -13 -13 -13 -13 -13 -13 -14 -13 -13 -13 -13 -13 -14 -14 -14
-15 -15 -15 -15 -16 -16 -16 -16 -17 -17 -17 -17 -17 -16 -17 -17 -16 -15 -15 -15 -15 -14 -14 -14 -14 -13 -13 -13 -13 -13 -13 -13 -13 -13 -13 -13 -13 -13 -13 -13 -14 -14 -14 -14 -15
-15 -15 -15 -15 -16 -16 -16 -16 -16 -16 -16 -16 -17 -16 -16 -16 -15 -15 -15 -15 -14 -14 -14 -14 -14 -13 -13 -13 -13 -13 -13 -13 -13 -13 -13 -14 -14 -13 -14 -14 -14 -14 -15 -15 -15
-15 -15 -15 -15 -16 -16 -16 -16 -16 -16 -16 -16 -16 -16 -16 -15 -15 -15 -15 -14 -14 -14 -14 -14 -13 -13 -13 -13 -13 -13 -13 -13 -13 -13 -14 -14 -14 -14 -14 -14 -14 -15 -15 -15 -15
-15 -15 -15 -15 -15 -16 -16 -16 -16 -16 -16 -16 -16 -16 -15 -15 -15 -15 -15 -14 -14 -14 -14 -14 -14 -13 -13 -13 -13 -13 -14 -14 -14 -14 -14 -15 -14 -15 -14 -14 -14 -15 -15 -15 -15
-16 -15 -15 -15 -16 -16 -16 -16 -16 -16 -16 -16 -16 -15 -15 -15 -15 -15 -14 -14 -14 -14 -14 -14 -14 -14 -14 -14 -14 -14 -14 -14 -14 -14 -14 -14 -14 -14 -14 -14 -14 -14 -15 -15 -15
-15 -16 -15 -15 -15 -15 -15 -16 -16 -16 -16 -16 -16 -15 -15 -15 -15 -15 -15 -14 -14 -14 -14 -14 -14 -14 -14 -14 -14 -14 -14 -14 -14 -14 -14 -14 -14 -14 -14 -14 -14 -15 -15 -15 -16

GFSSW_500_temp_072.txt.gz
Temp
-9 -9 -8 -8 -8 -8 -8 -9 -8 -8 -8 -8 -8 -8 -7 -7 -7 -7 -7 -8 -8 -8 -8 -8 -8 -9 -8 -9 -9 -9 -9 -9 -9 -9 -9 -8 -9 -9 -9 -9 -8 -8 -8 -7 -7
-9 -9 -9 -9 -9 -9 -9 -9 -9 -8 -8 -8 -8 -8 -8 -8 -8 -7 -8 -8 -8 -8 -8 -8 -8 -8 -9 -9 -9 -9 -9 -10 -10 -9 -8 -9 -9 -10 -9 -9 -9 -8 -8 -8 -7
-10 -9 -9 -9 -9 -9 -9 -9 -9 -9 -9 -9 -9 -8 -8 -8 -8 -8 -8 -8 -8 -8 -8 -8 -8 -8 -9 -9 -9 -9 -9 -10 -10 -9 -9 -9 -10 -10 -10 -9 -9 -9 -9 -9 -8
-10 -10 -9 -9 -9 -9 -10 -10 -9 -9 -9 -9 -9 -9 -9 -9 -8 -8 -8 -8 -8 -8 -8 -8 -9 -9 -9 -9 -9 -9 -9 -10 -9 -9 -10 -10 -10 -10 -10 -10 -10 -9 -8 -9 -8
-10 -10 -10 -10 -10 -10 -10 -10 -10 -10 -9 -9 -9 -9 -9 -9 -9 -9 -9 -9 -9 -9 -9 -9 -9 -9 -9 -9 -9 -9 -10 -9 -9 -10 -10 -10 -10 -10 -10 -10 -10 -9 -9 -9 -8
-10 -10 -11 -11 -11 -11 -11 -11 -12 -12 -11 -11 -10 -10 -9 -8 -10 -9 -9 -10 -9 -9 -9 -9 -9 -9 -9 -10 -10 -10 -9 -9 -9 -10 -10 -10 -10 -10 -10 -10 -10 -10 -9 -9 -9
-11 -11 -11 -12 -12 -12 -13 -13 -13 -13 -13 -13 -12 -11 -10 -10 -11 -10 -9 -9 -10 -9 -9 -10 -10 -10 -10 -10 -10 -10 -10 -10 -10 -10 -10 -10 -9 -10 -10 -10 -10 -10 -9 -9 -9
-12 -12 -12 -13 -13 -13 -13 -14 -15 -15 -16 -16 -16 -15 -13 -13 -12 -11 -11 -10 -10 -10 -10 -10 -10 -10 -10 -10 -10 -10 -10 -10 -10 -10 -10 -10 -11 -9 -10 -10 -10 -10 -9 -9 -9
-13 -13 -13 -13 -13 -14 -15 -16 -17 -18 -18 -18 -18 -18 -17 -16 -15 -14 -12 -12 -11 -11 -11 -11 -11 -10 -10 -10 -10 -10 -10 -11 -11 -10 -10 -10 -10 -10 -11 -10 -10 -10 -10 -9 -9
-13 -13 -13 -13 -14 -14 -15 -16 -17 -18 -19 -19 -19 -19 -19 -18 -17 -16 -15 -14 -13 -12 -12 -11 -11 -11 -10 -10 -10 -11 -11 -11 -11 -10 -10 -10 -10 -10 -10 -10 -11 -10 -10 -10 -9
-13 -13 -13 -14 -14 -14 -15 -16 -17 -18 -18 -19 -19 -19 -19 -18 -18 -17 -16 -15 -14 -13 -13 -12 -12 -11 -10 -11 -11 -12 -12 -12 -11 -10 -10 -11 -10 -10 -10 -10 -11 -10 -11 -10 -10
-14 -14 -14 -14 -15 -15 -15 -16 -17 -17 -18 -19 -19 -19 -19 -18 -18 -17 -17 -16 -15 -14 -14 -13 -12 -12 -12 -12 -12 -13 -12 -12 -11 -10 -11 -10 -10 -10 -10 -10 -10 -11 -11 -11 -11
-14 -14 -14 -15 -15 -15 -16 -16 -17 -17 -18 -19 -19 -19 -18 -18 -18 -17 -17 -17 -16 -15 -15 -14 -13 -13 -12 -13 -12 -12 -12 -12 -12 -11 -11 -11 -10 -10 -10 -10 -11 -11 -11 -11 -11
-14 -14 -15 -15 -15 -16 -16 -16 -17 -18 -18 -18 -18 -19 -18 -18 -18 -17 -18 -17 -16 -16 -15 -16 -14 -13 -13 -12 -12 -12 -12 -12 -12 -12 -12 -11 -11 -11 -10 -11 -11 -11 -11 -11 -11
-14 -14 -15 -15 -16 -16 -16 -16 -17 -17 -18 -18 -18 -18 -18 -18 -18 -17 -17 -17 -16 -16 -15 -14 -14 -13 -13 -13 -13 -13 -12 -12 -12 -12 -12 -11 -11 -11 -11 -11 -11 -11 -11 -11 -11
-14 -14 -15 -16 -16 -16 -16 -16 -17 -17 -17 -18 -18 -18 -18 -18 -18 -17 -17 -17 -16 -16 -16 -15 -14 -14 -13 -13 -13 -12 -13 -13 -12 -12 -12 -12 -12 -12 -11 -12 -11 -11 -11 -11 -11
-14 -15 -15 -16 -16 -16 -16 -16 -16 -16 -17 -17 -17 -18 -18 -18 -18 -17 -17 -17 -16 -15 -15 -15 -14 -13 -13 -13 -13 -13 -13 -13 -13 -12 -13 -12 -12 -11 -12 -12 -12 -12 -12 -12 -12
-14 -15 -15 -16 -16 -16 -17 -16 -15 -17 -16 -16 -17 -17 -17 -17 -17 -16 -16 -16 -16 -16 -15 -15 -14 -14 -13 -13 -13 -13 -13 -13 -13 -13 -14 -13 -12 -11 -12 -12 -12 -12 -12 -12 -12
-15 -14 -15 -15 -16 -16 -17 -16 -17 -16 -16 -16 -16 -16 -16 -17 -16 -16 -16 -16 -15 -15 -15 -15 -14 -14 -14 -14 -13 -13 -13 -13 -13 -13 -13 -13 -13 -12 -12 -12 -12 -12 -13 -13 -13
-15 -14 -15 -15 -16 -16 -17 -17 -16 -17 -17 -16 -16 -15 -15 -16 -16 -16 -15 -15 -15 -15 -15 -14 -15 -14 -14 -14 -13 -13 -13 -13 -13 -13 -13 -13 -13 -12 -12 -12 -13 -13 -13 -13 -13
-15 -15 -15 -15 -16 -16 -16 -17 -17 -17 -17 -17 -17 -16 -15 -16 -16 -15 -15 -15 -15 -15 -15 -15 -15 -14 -14 -14 -13 -13 -13 -13 -13 -13 -13 -13 -13 -13 -13 -14 -13 -13 -14 -14 -14
-15 -15 -15 -15 -15 -16 -16 -17 -17 -17 -17 -17 -17 -17 -17 -16 -15 -15 -15 -15 -14 -14 -14 -14 -14 -14 -14 -14 -14 -14 -13 -13 -13 -13 -13 -13 -13 -13 -13 -13 -14 -14 -14 -14 -14
-15 -15 -15 -15 -15 -16 -16 -16 -17 -17 -16 -17 -16 -17 -17 -17 -17 -15 -15 -15 -15 -15 -15 -15 -14 -14 -14 -14 -14 -13 -13 -13 -13 -13 -14 -14 -13 -14 -13 -14 -14 -14 -14 -14 -14
-15 -15 -15 -15 -16 -16 -16 -16 -16 -16 -16 -16 -16 -16 -16 -16 -16 -16 -16 -15 -15 -15 -15 -14 -14 -14 -14 -13 -13 -13 -13 -13 -13 -14 -14 -14 -13 -14 -14 -14 -14 -14 -14 -14 -14
-15 -15 -15 -15 -16 -16 -16 -16 -16 -16 -16 -16 -16 -16 -16 -16 -15 -15 -15 -15 -15 -14 -14 -14 -14 -14 -14 -14 -14 -14 -14 -13 -14 -14 -14 -14 -14 -14 -13 -13 -13 -14 -14 -14 -14
-15 -15 -15 -15 -15 -16 -16 -16 -16 -16 -16 -16 -16 -16 -16 -15 -15 -15 -15 -14 -15 -14 -14 -14 -14 -14 -14 -14 -14 -14 -14 -14 -14 -14 -14 -14 -14 -14 -14 -14 -14 -14 -14 -14 -14
-15 -15 -15 -15 -15 -15 -16 -16 -16 -16 -16 -16 -16 -16 -16 -15 -15 -15 -15 -15 -15 -15 -15 -14 -14 -14 -14 -14 -14 -14 -14 -14 -14 -14 -14 -14 -14 -14 -14 -14 -14 -14 -14 -14 -14

GFSSW_500_temp_075.txt.gz
Temp
-9 -9 -9 -9 -8 -8 -8 -8 -8 -8 -8 -8 -8 -8 -8 -7 -7 -7 -8 -8 -7 -7 -8 -8 -8 -8 -8 -8 -8 -8 -8 -9 -10 -9 -9 -9 -9 -9 -10 -9 -9 -8 -8 -8 -8
-10 -9 -9 -9 -9 -8 -8 -8 -9 -9 -9 -9 -8 -8 -8 -8 -8 -8 -8 -8 -8 -8 -8 -8 -8 -8 -8 -8 -8 -8 -8 -10 -10 -10 -9 -9 -9 -10 -10 -9 -9 -9 -9 -9 -8
-10 -10 -10 -10 -9 -9 -9 -9 -9 -9 -9 -9 -9 -9 -8 -8 -8 -8 -8 -8 -8 -8 -8 -8 -8 -8 -8 -8 -8 -8 -8 -10 -10 -9 -9 -10 -9 -10 -9 -10 -10 -10 -9 -9 -9
-10 -10 -10 -10 -10 -10 -9 -10 -10 -10 -10 -10 -9 -9 -9 -9 -8 -8 -9 -9 -9 -9 -8 -8 -8 -8 -8 -8 -9 -8 -9 -9 -9 -9 -9 -9 -9 -9 -10 -10 -9 -10 -9 -9 -9
-11 -11 -11 -10 -10 -10 -10 -10 -10 -10 -10 -9 -9 -9 -9 -9 -10 -9 -9 -9 -9 -9 -9 -9 -9 -8 -9 -9 -9 -8 -9 -9 -9 -9 -10 -9 -9 -9 -10 -10 -10 -9 -9 -9 -9
-11 -11 -11 -11 -11 -11 -11 -11 -11 -10 -10 -10 -9 -9 -9 -8 -11 -10 -9 -9 -9 -9 -9 -9 -9 -9 -9 -9 -9 -9 -9 -10 -10 -10 -9 -9 -9 -10 -10 -10 -10 -10 -10 -10 -9
-12 -12 -12 -12 -12 -12 -12 -12 -12 -12 -12 -12 -12 -10 -10 -10 -10 -10 -9 -10 -10 -10 -9 -9 -10 -10 -10 -9 -9 -9 -9 -10 -10 -9 -9 -10 -10 -10 -9 -10 -10 -10 -10 -10 -9
-12 -12 -12 -12 -12 -12 -13 -13 -13 -13 -14 -15 -16 -15 -14 -13 -12 -12 -11 -10 -10 -10 -10 -10 -10 -10 -10 -9 -9 -10 -9 -10 -10 -10 -10 -10 -10 -10 -9 -9 -10 -9 -9 -10 -10
-13 -13 -13 -13 -13 -13 -13 -13 -13 -14 -15 -16 -17 -18 -18 -17 -16 -15 -12 -12 -11 -11 -11 -11 -11 -10 -10 -9 -10 -10 -9 -10 -10 -10 -10 -11 -11 -10 -10 -10 -10 -10 -10 -10 -10
-13 -13 -13 -13 -13 -13 -13 -13 -14 -14 -15 -16 -17 -18 -19 -19 -18 -17 -16 -14 -13 -13 -13 -12 -11 -11 -10 -9 -9 -9 -10 -10 -10 -11 -11 -11 -11 -11 -11 -11 -10 -10 -10 -10 -10
-13 -14 -14 -13 -13 -13 -13 -14 -15 -16 -16 -17 -18 -19 -19 -19 -19 -18 -18 -16 -16 -15 -13 -12 -12 -11 -10 -10 -10 -11 -11 -11 -11 -11 -11 -11 -11 -11 -11 -11 -11 -10 -10 -10 -10
-13 -14 -14 -14 -14 -13 -14 -14 -15 -16 -17 -17 -18 -18 -19 -19 -19 -19 -18 -18 -17 -15 -14 -14 -12 -12 -11 -11 -11 -12 -12 -11 -11 -11 -11 -12 -11 -11 -11 -11 -10 -11 -10 -10 -10
-13 -14 -14 -14 -14 -14 -14 -14 -15 -16 -17 -17 -18 -18 -19 -19 -19 -19 -18 -18 -17 -16 -16 -14 -13 -13 -13 -13 -12 -12 -12 -12 -12 -11 -11 -12 -11 -12 -11 -11 -10 -10 -12 -11 -11
-14 -14 -14 -15 -15 -14 -15 -15 -16 -16 -17 -17 -18 -18 -19 -19 -18 -18 -18 -17 -17 -16 -16 -15 -14 -14 -13 -13 -13 -13 -12 -12 -12 -12 -12 -12 -11 -12 -11 -10 -10 -11 -11 -11 -11
-15 -15 -15 -15 -15 -15 -16 -16 -16 -16 -17 -17 -18 -18 -18 -18 -18 -18 -18 -17 -17 -17 -16 -15 -15 -15 -14 -13 -12 -12 -13 -13 -13 -12 -12 -11 -12 -12 -11 -11 -11 -11 -11 -11 -11
-15 -15 -15 -15 -16 -16 -16 -16 -16 -16 -16 -17 -17 -18 -18 -18 -18 -18 -17 -18 -17 -17 -16 -15 -14 -15 -14 -14 -13 -13 -13 -13 -13 -13 -12 -13 -12 -11 -11 -11 -11 -11 -11 -12 -11
-15 -15 -16 -15 -16 -16 -16 -16 -16 -16 -16 -16 -17 -17 -18 -18 -17 -18 -17 -17 -17 -17 -15 -15 -15 -15 -14 -14 -13 -14 -14 -14 -13 -13 -12 -13 -12 -12 -11 -11 -11 -12 -12 -12 -12
-15 -15 -16 -16 -16 -16 -16 -16 -16 -16 -16 -16 -16 -17 -17 -17 -17 -17 -17 -17 -17 -16 -16 -16 -16 -15 -14 -14 -14 -13 -14 -13 -13 -13 -12 -12 -12 -12 -12 -12 -12 -12 -13 -13 -13
-14 -15 -16 -16 -15 -16 -16 -16 -17 -17 -17 -17 -16 -16 -16 -17 -17 -16 -17 -17 -16 -16 -16 -15 -15 -15 -14 -14 -14 -14 -13 -14 -14 -14 -13 -13 -12 -12 -12 -12 -13 -13 -13 -13 -13
-14 -15 -15 -16 -16 -16 -16 -17 -17 -17 -17 -17 -17 -16 -16 -16 -17 -16 -16 -16 -16 -16 -16 -15 -15 -15 -15 -14 -14 -14 -14 -14 -13 -13 -13 -13 -12 -12 -12 -12 -13 -13 -13 -13 -13
-14 -15 -15 -16 -16 -16 -16 -17 -17 -17 -17 -17 -17 -16 -17 -17 -16 -16 -16 -16 -16 -16 -15 -15 -15 -15 -14 -14 -14 -14 -14 -14 -14 -13 -13 -14 -13 -12 -13 -13 -13 -13 -13 -13 -13
-15 -15 -15 -15 -16 -16 -16 -16 -17 -17 -17 -17 -17 -17 -17 -16 -16 -16 -15 -16 -16 -15 -15 -15 -15 -15 -15 -15 -14 -14 -14 -14 -14 -13 -13 -13 -13 -13 -13 -13 -13 -14 -13 -13 -13
-15 -15 -15 -15 -16 -16 -16 -16 -17 -16 -17 -17 -17 -17 -17 -17 -17 -17 -16 -16 -16 -15 -15 -15 -14 -15 -15 -15 -14 -14 -14 -14 -14 -13 -13 -13 -13 -13 -13 -13 -13 -13 -13 -14 -14
-15 -15 -14 -15 -15 -16 -15 -16 -16 -17 -17 -17 -17 -17 -17 -17 -17 -17 -16 -16 -16 -16 -16 -15 -15 -14 -14 -14 -14 -14 -14 -14 -13 -14 -14 -13 -13 -13 -13 -14 -14 -14 -14 -14 -14
-15 -15 -15 -15 -15 -15 -16 -16 -16 -16 -16 -17 -17 -17 -16 -16 -16 -16 -16 -16 -15 -15 -15 -15 -15 -14 -14 -14 -14 -14 -14 -14 -14 -14 -14 -14 -14 -14 -14 -14 -14 -14 -14 -14 -14
-15 -15 -15 -15 -15 -15 -16 -16 -16 -16 -16 -17 -17 -16 -16 -16 -15 -15 -15 -15 -15 -15 -15 -15 -15 -14 -14 -14 -14 -14 -14 -14 -14 -14 -14 -14 -14 -14 -13 -13 -13 -13 -14 -14 -14
-15 -15 -15 -15 -15 -15 -16 -16 -16 -16 -16 -16 -16 -16 -16 -16 -16 -15 -15 -15 -15 -15 -15 -15 -15 -15 -15 -15 -14 -14 -14 -14 -14 -14 -14 -14 -14 -14 -14 -13 -14 -14 -14 -14 -14

GFSSW_500_temp_078.txt.gz
Temp
-10 -10 -10 -9 -9 -9 -9 -8 -8 -8 -8 -8 -8 -8 -8 -8 -8 -8 -8 -8 -8 -8 -8 -8 -8 -8 -8 -8 -8 -8 -8 -9 -10 -9 -9 -8 -8 -8 -8 -8 -8 -8 -8 -8 -7
-10 -10 -10 -10 -9 -9 -9 -9 -9 -9 -9 -8 -8 -8 -8 -8 -8 -8 -8 -8 -8 -8 -8 -8 -8 -8 -8 -8 -8 -8 -8 -9 -10 -9 -9 -9 -8 -8 -8 -8 -9 -9 -8 -8 -8
-10 -10 -10 -10 -10 -10 -10 -10 -9 -9 -9 -9 -9 -9 -9 -9 -9 -9 -8 -8 -8 -8 -8 -9 -8 -8 -8 -8 -8 -8 -8 -9 -9 -9 -9 -9 -9 -9 -9 -9 -9 -9 -9 -8 -8
-11 -10 -10 -10 -10 -10 -10 -10 -10 -10 -10 -9 -9 -9 -9 -9 -9 -9 -9 -9 -8 -8 -8 -9 -8 -8 -8 -8 -8 -8 -9 -9 -9 -9 -9 -9 -9 -9 -10 -9 -9 -9 -9 -9 -8
-11 -11 -11 -11 -11 -11 -10 -10 -11 -11 -10 -10 -10 -10 -10 -9 -10 -9 -9 -9 -9 -9 -9 -9 -9 -9 -9 -9 -9 -8 -9 -10 -10 -10 -9 -9 -10 -10 -9 -9 -9 -9 -9 -9 -8
-11 -12 -11 -12 -11 -11 -11 -12 -12 -11 -12 -11 -11 -11 -10 -9 -10 -10 -9 -10 -10 -9 -9 -9 -9 -9 -9 -9 -9 -9 -9 -9 -9 -10 -10 -10 -10 -10 -10 -9 -9 -9 -9 -9 -9
-12 -12 -12 -12 -12 -12 -12 -12 -12 -12 -12 -13 -12 -13 -13 -12 -12 -11 -10 -10 -10 -10 -10 -10 -10 -10 -10 -10 -9 -9 -9 -9 -9 -10 -10 -10 -10 -10 -9 -10 -10 -10 -10 -10 -10
-12 -12 -12 -12 -12 -12 -12 -13 -13 -13 -13 -13 -13 -14 -14 -14 -14 -13 -11 -11 -11 -11 -11 -11 -11 -11 -10 -10 -10 -9 -9 -9 -9 -10 -10 -10 -11 -11 -10 -10 -11 -10 -11 -10 -10
-13 -13 -13 -13 -13 -13 -13 -13 -13 -13 -13 -13 -14 -15 -15 -16 -16 -16 -14 -14 -13 -12 -12 -12 -11 -11 -11 -10 -10 -9 -9 -9 -9 -10 -10 -10 -10 -11 -11 -11 -11 -11 -11 -10 -10
-13 -13 -13 -14 -13 -13 -13 -13 -13 -13 -13 -14 -15 -15 -17 -18 -18 -18 -18 -17 -16 -14 -14 -13 -12 -11 -11 -10 -9 -9 -9 -9 -9 -10 -10 -11 -11 -11 -11 -11 -10 -10 -10 -10 -11
-13 -13 -13 -14 -13 -14 -14 -14 -14 -15 -14 -14 -16 -17 -17 -18 -19 -19 -19 -18 -17 -16 -15 -14 -13 -11 -11 -11 -11 -11 -10 -10 -10 -10 -11 -11 -11 -11 -11 -11 -11 -11 -11 -10 -11
-13 -14 -14 -14 -14 -14 -14 -14 -14 -14 -15 -15 -16 -17 -17 -18 -19 -19 -19 -19 -18 -17 -16 -15 -13 -12 -13 -12 -12 -11 -11 -11 -11 -11 -11 -11 -11 -11 -11 -11 -11 -11 -12 -11 -11
-13 -14 -14 -14 -14 -15 -14 -14 -15 -15 -15 -16 -17 -17 -18 -19 -19 -19 -19 -19 -19 -18 -17 -16 -14 -14 -14 -13 -12 -13 -12 -12 -12 -12 -11 -11 -11 -11 -11 -11 -12 -12 -12 -11 -10
-13 -14 -14 -14 -15 -15 -15 -15 -15 -15 -15 -16 -16 -17 -18 -19 -19 -19 -19 -19 -18 -18 -17 -16 -16 -15 -14 -14 -14 -13 -13 -12 -12 -12 -12 -12 -11 -12 -11 -12 -12 -12 -11 -10 -10
-13 -14 -14 -14 -15 -15 -16 -16 -15 -15 -15 -16 -16 -17 -18 -18 -18 -19 -19 -18 -18 -17 -17 -16 -16 -15 -14 -14 -14 -13 -13 -12 -12 -12 -12 -12 -12 -12 -12 -11 -12 -12 -11 -11 -10
-14 -14 -14 -15 -15 -15 -16 -16 -16 -15 -16 -16 -16 -17 -18 -18 -18 -18 -18 -18 -18 -17 -17 -17 -16 -15 -14 -14 -14 -13 -13 -13 -13 -13 -12 -12 -12 -11 -11 -12 -12 -12 -11 -11 -11
-15 -14 -14 -15 -15 -15 -16 -16 -16 -16 -16 -16 -16 -17 -18 -18 -18 -18 -17 -18 -18 -18 -17 -16 -16 -16 -14 -14 -14 -14 -14 -14 -14 -13 -12 -13 -12 -11 -12 -12 -12 -12 -11 -12 -12
-14 -14 -14 -15 -15 -16 -16 -16 -16 -16 -17 -17 -16 -16 -17 -17 -17 -17 -18 -17 -17 -17 -17 -16 -15 -15 -15 -14 -14 -14 -14 -13 -13 -13 -13 -13 -12 -11 -12 -12 -12 -12 -12 -12 -12
-15 -15 -14 -15 -16 -16 -16 -16 -17 -16 -17 -17 -17 -17 -17 -17 -17 -16 -17 -17 -17 -16 -16 -15 -15 -15 -15 -15 -14 -14 -14 -14 -14 -13 -13 -13 -12 -12 -12 -12 -12 -12 -12 -13 -13
-15 -15 -14 -15 -15 -15 -16 -16 -16 -16 -17 -17 -17 -17 -17 -17 -17 -17 -17 -17 -16 -17 -16 -16 -16 -16 -15 -15 -15 -14 -14 -14 -14 -13 -13 -13 -13 -12 -12 -13 -13 -13 -13 -13 -14
-15 -15 -15 -14 -15 -15 -15 -16 -17 -17 -15 -17 -17 -17 -17 -16 -16 -17 -16 -16 -16 -16 -16 -16 -15 -15 -15 -15 -15 -15 -14 -14 -14 -14 -14 -13 -12 -13 -13 -13 -13 -13 -13 -14 -13
-15 -15 -15 -15 -15 -15 -15 -16 -16 -17 -16 -17 -17 -17 -17 -17 -16 -16 -16 -16 -16 -16 -16 -15 -15 -15 -15 -15 -15 -14 -14 -14 -14 -14 -14 -13 -13 -13 -13 -14 -13 -14 -14 -14 -14
-15 -15 -15 -15 -15 -15 -16 -16 -16 -16 -16 -16 -17 -17 -17 -17 -17 -17 -17 -16 -15 -16 -15 -15 -15 -15 -15 -15 -15 -15 -15 -14 -14 -14 -14 -13 -13 -13 -14 -14 -14 -14 -14 -14 -14
-15 -15 -15 -15 -15 -15 -16 -16 -16 -16 -16 -16 -16 -17 -17 -17 -17 -17 -17 -17 -17 -16 -16 -15 -15 -15 -15 -15 -15 -15 -14 -14 -14 -14 -14 -14 -13 -14 -14 -14 -14 -14 -14 -14 -13
-15 -15 -15 -16 -15 -15 -15 -16 -15 -16 -16 -16 -16 -16 -16 -17 -16 -16 -16 -16 -16 -16 -16 -15 -15 -15 -15 -15 -15 -14 -14 -14 -14 -14 -14 -14 -14 -13 -14 -14 -14 -14 -13 -13 -14
-15 -15 -15 -16 -15 -15 -15 -15 -15 -15 -15 -16 -16 -16 -16 -16 -16 -16 -16 -16 -15 -15 -15 -15 -15 -15 -15 -15 -15 -15 -14 -14 -14 -14 -14 -14 -14 -14 -14 -14 -14 -13 -13 -14 -14
-14 -15 -15 -16 -16 -16 -16 -15 -15 -15 -16 -16 -16 -16 -16 -16 -16 -16 -16 -16 -15 -15 -15 -15 -15 -15 -15 -15 -15 -15 -15 -15 -15 -15 -14 -14 -14 -14 -14 -14 -13 -14 -14 -14 -14

GFSSW_500_temp_081.txt.gz
Temp
-10 -10 -10 -10 -10 -10 -9 -9 -9 -9 -9 -9 -8 -8 -8 -8 -8 -8 -8 -8 -8 -8 -8 -8 -8 -8 -8 -8 -8 -8 -8 -8 -9 -9 -9 -9 -8 -8 -8 -8 -9 -8 -8 -7 -7
-10 -10 -10 -10 -10 -10 -10 -10 -9 -9 -9 -9 -9 -9 -9 -9 -8 -8 -8 -8 -8 -8 -8 -8 -8 -8 -8 -8 -8 -8 -8 -8 -10 -9 -9 -9 -9 -9 -8 -9 -9 -8 -7 -7 -7
-11 -11 -11 -11 -10 -10 -10 -10 -10 -10 -10 -10 -9 -9 -9 -9 -9 -9 -9 -9 -9 -8 -8 -9 -9 -8 -8 -9 -8 -8 -8 -9 -9 -9 -9 -9 -9 -9 -8 -8 -9 -9 -8 -7 -7
-11 -11 -11 -11 -11 -11 -11 -11 -10 -10 -10 -10 -10 -10 -10 -10 -10 -9 -9 -9 -9 -9 -9 -9 -9 -8 -9 -9 -9 -8 -8 -9 -10 -10 -9 -9 -9 -9 -8 -9 -9 -9 -8 -8 -8
-11 -11 -11 -11 -11 -11 -11 -11 -11 -11 -11 -11 -11 -11 -11 -11 -11 -10 -10 -10 -10 -9 -9 -9 -9 -9 -9 -9 -9 -9 -9 -9 -9 -10 -10 -10 -9 -9 -9 -9 -9 -9 -9 -9 -9
-12 -12 -12 -11 -12 -12 -12 -11 -11 -11 -11 -11 -11 -12 -11 -11 -12 -11 -11 -11 -10 -10 -10 -10 -10 -10 -9 -10 -10 -9 -9 -10 -10 -10 -10 -10 -10 -10 -10 -10 -10 -9 -9 -10 -10
-12 -12 -12 -12 -12 -12 -12 -12 -12 -12 -12 -13 -12 -12 -13 -13 -13 -13 -12 -12 -12 -11 -11 -11 -11 -10 -10 -10 -10 -10 -10 -10 -10 -10 -10 -10 -10 -10 -10 -10 -10 -10 -10 -10 -10
-12 -12 -13 -13 -13 -12 -13 -13 -12 -13 -13 -13 -13 -13 -13 -13 -13 -14 -14 -14 -13 -13 -12 -12 -12 -11 -10 -10 -10 -10 -10 -10 -10 -10 -10 -10 -10 -10 -10 -10 -11 -10 -10 -10 -10
-12 -12 -12 -13 -13 -13 -13 -13 -13 -13 -13 -13 -13 -13 -13 -14 -14 -16 -16 -16 -15 -14 -14 -14 -12 -12 -11 -11 -11 -10 -9 -9 -9 -10 -10 -10 -10 -10 -10 -10 -10 -11 -10 -10 -10
-12 -12 -12 -12 -13 -13 -13 -14 -14 -14 -14 -14 -14 -13 -14 -15 -16 -16 -17 -18 -18 -17 -15 -15 -14 -12 -12 -11 -10 -10 -10 -10 -10 -10 -10 -10 -10 -10 -11 -11 -11 -11 -11 -10 -10
-13 -13 -13 -13 -13 -14 -14 -14 -15 -15 -14 -14 -13 -14 -15 -16 -17 -17 -18 -19 -19 -19 -18 -17 -15 -12 -12 -12 -11 -11 -11 -11 -11 -11 -11 -11 -11 -11 -11 -11 -11 -11 -11 -11 -11
-13 -13 -13 -13 -13 -14 -14 -14 -14 -15 -14 -14 -14 -15 -16 -16 -17 -18 -19 -19 -19 -19 -18 -18 -16 -14 -14 -13 -12 -13 -12 -12 -11 -11 -12 -11 -11 -11 -11 -11 -11 -11 -11 -11 -11
-13 -13 -13 -13 -13 -14 -14 -14 -15 -15 -14 -15 -15 -15 -16 -17 -18 -18 -19 -19 -19 -19 -18 -18 -17 -16 -15 -14 -14 -13 -12 -12 -12 -12 -12 -12 -11 -11 -11 -11 -11 -11 -11 -11 -11
-13 -14 -14 -14 -14 -14 -15 -15 -15 -15 -15 -15 -15 -16 -17 -17 -18 -18 -19 -19 -19 -19 -18 -18 -17 -16 -15 -14 -13 -13 -13 -13 -13 -13 -12 -12 -11 -11 -11 -11 -12 -12 -11 -11 -11
-14 -14 -14 -14 -14 -15 -15 -15 -15 -16 -15 -15 -15 -16 -17 -18 -18 -18 -18 -19 -19 -19 -19 -18 -17 -17 -16 -15 -14 -14 -15 -14 -14 -13 -13 -12 -12 -11 -11 -11 -12 -12 -12 -11 -11
-14 -14 -14 -14 -14 -15 -15 -15 -16 -16 -15 -15 -15 -16 -17 -17 -17 -17 -18 -18 -18 -18 -18 -18 -17 -16 -16 -15 -15 -15 -15 -14 -13 -13 -13 -12 -12 -12 -12 -12 -12 -12 -12 -12 -12
-14 -14 -14 -14 -15 -15 -15 -15 -16 -16 -16 -15 -16 -16 -17 -17 -17 -17 -17 -18 -18 -18 -18 -18 -17 -16 -16 -15 -15 -14 -14 -14 -14 -13 -12 -13 -13 -12 -12 -12 -12 -12 -12 -12 -12
-14 -14 -14 -15 -15 -14 -16 -15 -16 -16 -17 -15 -16 -17 -16 -17 -17 -17 -17 -17 -17 -17 -17 -17 -17 -16 -16 -15 -14 -14 -14 -14 -13 -13 -13 -13 -12 -12 -12 -12 -12 -13 -13 -13 -13
-13 -14 -14 -15 -15 -14 -15 -16 -16 -16 -17 -16 -16 -17 -16 -16 -17 -17 -17 -17 -17 -16 -17 -16 -16 -16 -16 -16 -15 -15 -14 -14 -13 -13 -14 -13 -12 -12 -13 -13 -13 -13 -13 -13 -13
-14 -14 -14 -15 -15 -15 -15 -16 -16 -16 -16 -17 -15 -16 -16 -16 -16 -16 -17 -17 -17 -17 -16 -16 -15 -15 -15 -15 -15 -15 -14 -14 -13 -14 -14 -13 -12 -13 -14 -14 -14 -13 -13 -13 -13
-14 -14 -14 -15 -15 -15 -15 -15 -16 -16 -16 -17 -16 -16 -17 -17 -16 -16 -16 -16 -16 -17 -16 -17 -15 -16 -16 -15 -15 -15 -14 -14 -14 -14 -13 -13 -13 -14 -14 -14 -14 -13 -13 -14 -14
-14 -14 -14 -15 -15 -15 -15 -15 -16 -16 -17 -17 -17 -16 -17 -17 -17 -17 -16 -16 -15 -16 -16 -16 -16 -16 -15 -15 -15 -15 -15 -14 -14 -14 -14 -14 -14 -14 -14 -14 -14 -14 -14 -14 -14
-14 -14 -14 -15 -15 -15 -15 -15 -15 -16 -17 -17 -17 -16 -16 -16 -17 -17 -16 -17 -16 -15 -16 -16 -16 -16 -15 -15 -14 -15 -14 -14 -14 -14 -14 -14 -14 -14 -14 -14 -14 -14 -14 -14 -14
-14 -14 -14 -15 -15 -15 -15 -15 -15 -16 -16 -16 -17 -16 -16 -16 -17 -16 -17 -17 -16 -16 -15 -16 -15 -15 -16 -15 -15 -15 -15 -15 -14 -14 -14 -14 -14 -14 -14 -14 -14 -14 -14 -14 -14
-14 -14 -14 -15 -15 -15 -15 -15 -15 -15 -16 -16 -17 -16 -16 -16 -16 -16 -16 -16 -16 -16 -16 -16 -16 -16 -16 -15 -15 -15 -15 -15 -15 -14 -14 -14 -14 -14 -14 -14 -14 -14 -14 -14 -14
-14 -14 -14 -15 -15 -15 -15 -15 -15 -15 -15 -16 -16 -17 -16 -16 -16 -16 -16 -16 -15 -15 -15 -15 -16 -15 -15 -15 -15 -15 -15 -15 -14 -14 -14 -14 -14 -14 -14 -14 -14 -14 -14 -13 -13
-14 -14 -14 -15 -15 -15 -15 -15 -15 -15 -15 -15 -16 -16 -16 -16 -16 -16 -16 -16 -16 -15 -15 -15 -15 -15 -15 -15 -15 -15 -15 -15 -14 -14 -14 -14 -14 -14 -14 -14 -14 -13 -13 -13 -14

GFSSW_500_temp_087.txt.gz
Temp
-10 -10 -10 -11 -11 -11 -11 -10 -10 -10 -10 -10 -9 -9 -9 -9 -9 -9 -9 -9 -9 -9 -9 -9 -9 -9 -9 -9 -9 -9 -8 -7 -8 -9 -9 -10 -9 -9 -9 -9 -9 -9 -9 -9 -9
-11 -10 -10 -10 -10 -11 -11 -11 -11 -11 -11 -11 -10 -10 -10 -9 -10 -9 -9 -9 -9 -9 -9 -9 -9 -9 -9 -9 -9 -9 -8 -8 -9 -9 -9 -9 -9 -9 -9 -9 -9 -10 -9 -9 -9
-11 -11 -11 -11 -11 -11 -11 -11 -11 -11 -11 -11 -11 -11 -11 -10 -10 -10 -10 -10 -10 -10 -9 -9 -9 -9 -9 -9 -9 -9 -8 -8 -9 -10 -9 -9 -9 -9 -9 -9 -10 -10 -10 -10 -10
-11 -11 -11 -11 -11 -11 -12 -12 -12 -12 -12 -11 -11 -11 -11 -11 -11 -11 -11 -11 -10 -10 -10 -10 -10 -10 -10 -10 -10 -9 -9 -9 -9 -10 -10 -9 -10 -10 -9 -10 -10 -10 -9 -10 -10
-11 -11 -12 -12 -12 -12 -12 -12 -12 -12 -12 -12 -12 -12 -12 -11 -11 -11 -11 -11 -11 -11 -11 -11 -11 -10 -10 -10 -10 -9 -9 -9 -10 -10 -10 -10 -10 -10 -10 -10 -10 -10 -10 -10 -10
-12 -12 -12 -12 -12 -12 -12 -12 -12 -12 -13 -12 -12 -12 -12 -12 -12 -12 -12 -12 -12 -12 -12 -12 -11 -11 -11 -10 -10 -10 -10 -10 -10 -10 -10 -10 -10 -10 -10 -10 -10 -10 -11 -10 -10
-12 -12 -12 -12 -12 -12 -12 -12 -12 -12 -13 -13 -13 -13 -12 -12 -12 -12 -13 -13 -13 -13 -13 -13 -12 -12 -11 -11 -11 -11 -10 -10 -10 -10 -10 -10 -10 -9 -10 -10 -10 -10 -10 -11 -11
-12 -12 -12 -12 -13 -13 -13 -13 -13 -13 -13 -13 -13 -13 -13 -13 -13 -12 -12 -12 -13 -13 -13 -13 -13 -13 -13 -12 -12 -11 -11 -10 -10 -10 -10 -10 -9 -10 -10 -10 -10 -10 -10 -10 -11
-12 -12 -12 -12 -12 -13 -13 -13 -13 -13 -13 -13 -13 -13 -13 -12 -12 -13 -13 -13 -13 -14 -14 -15 -14 -14 -14 -14 -13 -12 -11 -11 -10 -11 -11 -10 -10 -10 -11 -10 -10 -10 -10 -11 -11
-12 -12 -12 -12 -12 -13 -13 -13 -13 -14 -14 -14 -13 -13 -13 -13 -13 -14 -14 -14 -14 -15 -15 -16 -17 -17 -16 -16 -14 -14 -12 -12 -11 -11 -11 -11 -10 -10 -11 -11 -11 -11 -11 -11 -11
-12 -12 -12 -12 -12 -13 -13 -14 -14 -14 -14 -14 -13 -13 -12 -13 -13 -14 -14 -15 -15 -16 -16 -16 -17 -18 -18 -18 -16 -15 -14 -13 -12 -12 -12 -11 -11 -11 -11 -11 -11 -11 -11 -11 -12
-12 -12 -12 -12 -13 -13 -13 -14 -14 -14 -14 -14 -14 -13 -13 -13 -14 -14 -15 -15 -16 -16 -16 -17 -18 -19 -19 -19 -18 -17 -15 -14 -13 -12 -13 -12 -11 -11 -11 -12 -12 -12 -11 -11 -11
-12 -12 -12 -13 -13 -13 -13 -14 -14 -14 -14 -14 -14 -14 -14 -15 -15 -15 -15 -15 -16 -17 -17 -17 -19 -19 -19 -20 -19 -18 -16 -15 -14 -13 -13 -13 -12 -11 -11 -12 -12 -12 -12 -11 -12
-13 -13 -13 -13 -13 -13 -13 -14 -14 -14 -14 -14 -14 -14 -15 -15 -15 -15 -15 -16 -16 -17 -18 -18 -19 -19 -20 -20 -19 -18 -17 -16 -14 -14 -13 -13 -12 -12 -12 -12 -12 -12 -12 -12 -12
-12 -13 -13 -13 -13 -13 -13 -14 -14 -14 -14 -15 -15 -15 -15 -15 -15 -16 -16 -16 -17 -17 -18 -18 -19 -19 -19 -20 -19 -18 -17 -16 -15 -14 -14 -13 -13 -12 -12 -11 -12 -12 -12 -12 -12
-12 -13 -13 -13 -13 -13 -13 -14 -14 -14 -15 -15 -15 -15 -16 -16 -16 -16 -16 -16 -17 -17 -17 -18 -19 -19 -19 -19 -18 -17 -17 -16 -15 -15 -14 -14 -12 -12 -12 -12 -12 -12 -12 -12 -12
-12 -12 -13 -13 -13 -13 -14 -14 -14 -14 -15 -15 -16 -16 -16 -16 -16 -16 -16 -17 -16 -17 -17 -18 -18 -18 -18 -18 -17 -17 -17 -16 -15 -14 -13 -13 -13 -12 -12 -12 -12 -12 -12 -12 -12
-12 -12 -13 -13 -14 -13 -14 -14 -14 -14 -15 -15 -16 -16 -16 -16 -17 -17 -17 -16 -16 -16 -16 -17 -17 -18 -17 -17 -17 -17 -16 -15 -15 -14 -14 -14 -13 -12 -13 -13 -13 -13 -13 -13 -12
-12 -13 -13 -13 -14 -14 -14 -14 -14 -14 -15 -15 -16 -16 -17 -16 -17 -17 -17 -17 -16 -17 -16 -16 -17 -17 -17 -17 -17 -17 -15 -15 -15 -14 -14 -14 -13 -14 -13 -14 -14 -13 -13 -13 -13
-13 -13 -13 -13 -14 -14 -14 -14 -14 -14 -15 -15 -15 -16 -16 -17 -17 -17 -17 -17 -17 -17 -16 -16 -16 -16 -17 -17 -16 -16 -16 -15 -15 -14 -14 -14 -14 -14 -14 -14 -14 -13 -13 -13 -13
-13 -13 -13 -13 -13 -14 -14 -14 -15 -14 -15 -15 -15 -15 -16 -16 -17 -17 -17 -17 -17 -17 -16 -16 -16 -16 -16 -16 -16 -16 -16 -15 -15 -15 -14 -15 -14 -14 -14 -14 -14 -14 -14 -14 -14
-13 -13 -13 -13 -13 -14 -14 -14 -15 -15 -14 -15 -15 -15 -15 -16 -17 -17 -17 -17 -17 -17 -17 -16 -16 -16 -16 -16 -16 -15 -15 -15 -15 -15 -15 -15 -14 -14 -15 -14 -14 -14 -14 -14 -14
-14 -13 -14 -14 -13 -14 -14 -14 -14 -15 -14 -15 -15 -15 -15 -16 -16 -16 -16 -17 -17 -17 -16 -16 -16 -16 -16 -16 -16 -15 -15 -15 -15 -15 -15 -15 -15 -15 -15 -15 -14 -14 -14 -14 -14
-14 -13 -13 -14 -14 -14 -14 -15 -15 -15 -15 -15 -15 -15 -15 -15 -16 -16 -16 -16 -16 -17 -16 -16 -17 -16 -16 -16 -16 -16 -16 -15 -15 -15 -15 -15 -15 -15 -15 -15 -14 -14 -14 -14 -14
-15 -14 -13 -14 -14 -14 -14 -14 -15 -15 -15 -15 -15 -15 -15 -15 -15 -16 -16 -16 -16 -16 -16 -16 -16 -17 -17 -16 -16 -16 -16 -15 -16 -15 -16 -16 -15 -15 -14 -14 -14 -14 -14 -14 -14
-15 -14 -14 -14 -14 -14 -14 -15 -15 -15 -15 -15 -15 -15 -15 -15 -15 -15 -16 -16 -16 -16 -16 -16 -16 -16 -16 -17 -16 -16 -16 -16 -15 -15 -15 -15 -15 -15 -15 -15 -15 -15 -14 -14 -14
-15 -15 -14 -14 -14 -14 -14 -14 -15 -15 -15 -15 -15 -15 -15 -15 -15 -15 -15 -16 -16 -16 -16 -16 -16 -16 -16 -16 -16 -16 -16 -15 -15 -15 -15 -15 -15 -15 -15 -15 -15 -15 -15 -15 -15

GFSSW_500_temp_093.txt.gz
Temp
-10 -10 -10 -10 -10 -10 -10 -10 -10 -10 -10 -10 -10 -10 -10 -10 -11 -10 -10 -9 -9 -10 -9 -9 -9 -9 -9 -9 -9 -9 -8 -8 -8 -9 -9 -9 -10 -9 -9 -9 -9 -9 -9 -9 -9
-10 -10 -10 -10 -10 -10 -10 -10 -10 -10 -11 -11 -11 -11 -11 -11 -11 -11 -11 -11 -10 -10 -10 -10 -10 -10 -9 -9 -9 -9 -9 -8 -9 -9 -9 -10 -10 -10 -9 -10 -10 -10 -9 -9 -9
-10 -10 -10 -10 -10 -10 -11 -11 -11 -11 -11 -11 -11 -11 -12 -12 -12 -12 -12 -11 -11 -11 -11 -11 -10 -10 -10 -10 -10 -9 -9 -9 -9 -10 -9 -10 -10 -10 -10 -10 -10 -10 -10 -10 -10
-10 -10 -10 -10 -11 -10 -11 -11 -11 -11 -11 -11 -11 -12 -12 -12 -12 -12 -12 -12 -12 -12 -12 -11 -11 -11 -11 -10 -10 -10 -10 -10 -9 -10 -9 -10 -10 -10 -10 -10 -10 -10 -10 -11 -10
-10 -10 -10 -10 -10 -11 -11 -11 -11 -11 -11 -11 -12 -12 -13 -13 -13 -12 -12 -12 -12 -12 -12 -12 -12 -12 -11 -11 -11 -11 -10 -10 -10 -10 -9 -10 -10 -10 -10 -11 -10 -10 -10 -11 -11
-10 -10 -11 -11 -10 -10 -11 -11 -11 -11 -11 -12 -12 -13 -13 -13 -13 -13 -13 -13 -12 -12 -12 -12 -12 -12 -12 -12 -12 -12 -11 -11 -10 -10 -10 -10 -10 -10 -9 -10 -9 -11 -11 -11 -11
-10 -11 -11 -11 -11 -11 -11 -11 -11 -12 -12 -12 -12 -13 -13 -13 -13 -13 -13 -13 -13 -13 -12 -13 -13 -13 -12 -12 -12 -12 -12 -11 -11 -11 -10 -11 -10 -9 -10 -10 -10 -10 -11 -11 -11
-10 -10 -10 -11 -11 -11 -11 -11 -12 -12 -12 -12 -13 -13 -13 -13 -13 -12 -12 -12 -12 -12 -13 -13 -13 -13 -13 -13 -13 -13 -12 -12 -11 -12 -11 -12 -9 -10 -10 -11 -10 -11 -11 -12 -11
-10 -10 -10 -10 -11 -11 -12 -12 -12 -12 -12 -12 -13 -13 -13 -13 -13 -12 -12 -12 -13 -13 -13 -13 -13 -14 -14 -14 -14 -14 -13 -13 -12 -12 -12 -12 -9 -11 -11 -11 -10 -11 -11 -11 -12
-10 -10 -10 -11 -11 -11 -12 -12 -12 -12 -12 -13 -13 -13 -13 -13 -13 -13 -13 -13 -13 -13 -13 -13 -14 -14 -14 -14 -14 -15 -15 -14 -13 -13 -12 -12 -10 -11 -11 -11 -10 -11 -11 -12 -12
-11 -11 -11 -11 -11 -11 -11 -12 -12 -13 -13 -13 -13 -13 -13 -13 -13 -13 -13 -14 -14 -14 -14 -14 -14 -14 -14 -14 -15 -15 -15 -15 -15 -14 -14 -12 -11 -11 -12 -11 -10 -11 -11 -11 -12
-11 -11 -11 -11 -11 -12 -12 -12 -12 -12 -13 -13 -13 -14 -14 -14 -14 -13 -14 -14 -14 -14 -14 -14 -14 -14 -14 -15 -16 -16 -16 -16 -16 -16 -15 -14 -12 -12 -12 -11 -11 -11 -11 -11 -13
-12 -11 -12 -12 -11 -12 -12 -12 -12 -13 -13 -13 -13 -14 -14 -14 -14 -14 -14 -14 -14 -14 -14 -15 -14 -16 -16 -16 -16 -17 -17 -17 -17 -17 -17 -17 -15 -13 -13 -11 -12 -11 -12 -12 -12
-11 -11 -12 -12 -12 -12 -12 -12 -12 -13 -13 -13 -13 -13 -14 -14 -14 -14 -14 -15 -14 -14 -14 -14 -16 -16 -16 -17 -18 -18 -19 -18 -18 -18 -18 -18 -16 -16 -16 -13 -11 -11 -12 -12 -12
-12 -12 -11 -12 -12 -12 -12 -13 -13 -13 -13 -13 -14 -14 -14 -14 -15 -15 -15 -15 -15 -15 -15 -15 -16 -16 -17 -18 -18 -19 -20 -19 -20 -19 -18 -16 -16 -16 -16 -14 -11 -11 -12 -12 -12
-11 -12 -12 -12 -12 -13 -13 -13 -13 -13 -13 -13 -14 -14 -14 -14 -15 -15 -15 -15 -14 -15 -15 -15 -16 -16 -17 -18 -19 -19 -20 -20 -19 -18 -16 -14 -14 -15 -14 -13 -13 -12 -12 -12 -12
-12 -12 -11 -12 -12 -13 -13 -13 -13 -13 -13 -13 -14 -14 -14 -14 -15 -15 -15 -15 -16 -15 -15 -16 -17 -17 -17 -18 -18 -19 -19 -18 -17 -17 -16 -14 -14 -13 -15 -15 -14 -12 -12 -12 -12
-12 -13 -12 -12 -12 -13 -13 -13 -13 -13 -13 -14 -14 -14 -14 -15 -15 -15 -16 -16 -16 -16 -16 -16 -16 -17 -17 -17 -17 -18 -19 -16 -15 -15 -15 -14 -14 -13 -14 -14 -13 -13 -12 -12 -12
-12 -13 -13 -12 -12 -13 -13 -13 -13 -14 -14 -14 -14 -14 -15 -15 -15 -15 -15 -16 -16 -16 -16 -16 -16 -16 -17 -16 -17 -17 -17 -16 -15 -15 -15 -14 -14 -15 -15 -14 -13 -13 -12 -12 -12
-12 -13 -13 -13 -13 -13 -13 -13 -13 -14 -14 -14 -14 -15 -15 -15 -15 -15 -15 -16 -16 -16 -16 -16 -15 -16 -16 -16 -16 -17 -16 -16 -15 -14 -15 -14 -15 -15 -14 -14 -13 -13 -13 -13 -13
-12 -13 -13 -14 -13 -13 -13 -13 -14 -14 -14 -14 -14 -14 -15 -15 -15 -15 -15 -15 -16 -16 -16 -16 -15 -16 -16 -16 -15 -15 -16 -15 -15 -14 -15 -15 -15 -15 -15 -15 -14 -14 -13 -13 -13
-13 -13 -13 -13 -13 -13 -13 -13 -14 -14 -14 -14 -14 -14 -15 -15 -15 -15 -15 -15 -15 -16 -16 -16 -16 -15 -16 -16 -15 -15 -15 -15 -15 -15 -14 -14 -15 -15 -15 -15 -15 -14 -14 -14 -14
-12 -13 -13 -13 -13 -13 -13 -13 -13 -14 -14 -14 -14 -14 -14 -15 -15 -15 -15 -15 -15 -16 -16 -15 -16 -15 -16 -16 -16 -15 -15 -15 -15 -15 -15 -14 -15 -14 -15 -14 -14 -14 -14 -14 -14
-13 -13 -13 -14 -14 -14 -13 -13 -13 -14 -14 -14 -15 -14 -14 -15 -15 -15 -15 -15 -15 -15 -15 -16 -15 -16 -16 -16 -16 -15 -15 -15 -15 -15 -15 -14 -15 -15 -15 -15 -14 -14 -14 -14 -14
-13 -13 -14 -13 -13 -14 -14 -13 -13 -13 -14 -14 -15 -14 -14 -14 -15 -15 -15 -15 -15 -15 -15 -16 -15 -15 -16 -16 -16 -16 -15 -15 -15 -15 -15 -15 -15 -15 -15 -15 -15 -15 -15 -14 -14
-13 -14 -15 -14 -14 -14 -14 -13 -13 -13 -14 -14 -14 -15 -14 -14 -15 -15 -15 -15 -15 -15 -15 -15 -16 -15 -15 -16 -16 -16 -16 -15 -15 -15 -16 -15 -15 -15 -15 -15 -15 -15 -14 -14 -14
-13 -14 -14 -14 -14 -14 -14 -14 -13 -13 -13 -14 -14 -15 -15 -14 -15 -15 -15 -15 -15 -15 -15 -15 -16 -16 -16 -15 -16 -16 -16 -16 -16 -15 -15 -15 -15 -15 -15 -15 -15 -15 -15 -15 -15

GFSSW_500_temp_099.txt.gz
Temp
-9 -9 -10 -10 -9 -9 -9 -9 -9 -9 -9 -9 -9 -9 -9 -10 -10 -9 -10 -11 -11 -11 -11 -11 -11 -11 -10 -10 -10 -10 -9 -9 -8 -8 -8 -10 -10 -9 -9 -9 -9 -9 -9 -10 -9
-10 -10 -10 -10 -9 -9 -9 -9 -9 -9 -9 -9 -9 -10 -10 -10 -10 -10 -11 -12 -12 -13 -12 -12 -12 -11 -11 -11 -10 -10 -9 -9 -9 -9 -9 -10 -10 -9 -9 -10 -8 -9 -8 -9 -9
-10 -10 -10 -10 -9 -9 -9 -9 -9 -9 -10 -10 -10 -10 -10 -10 -10 -11 -11 -12 -13 -13 -13 -13 -12 -12 -12 -11 -11 -11 -10 -10 -9 -9 -9 -9 -10 -9 -8 -9 -9 -11 -10 -10 -10
-10 -10 -10 -9 -9 -9 -9 -9 -10 -10 -10 -10 -10 -10 -10 -10 -10 -11 -12 -12 -12 -13 -13 -13 -13 -12 -12 -12 -12 -11 -11 -11 -10 -10 -9 -9 -10 -10 -9 -9 -9 -10 -10 -10 -10
-10 -10 -10 -10 -9 -9 -9 -9 -10 -10 -10 -10 -10 -10 -10 -10 -11 -12 -12 -12 -12 -13 -13 -13 -13 -12 -12 -13 -12 -12 -12 -11 -11 -11 -10 -10 -10 -10 -9 -9 -10 -11 -9 -9 -11
-10 -9 -9 -9 -9 -9 -9 -9 -10 -10 -10 -10 -10 -11 -10 -11 -12 -12 -12 -12 -12 -13 -12 -12 -13 -13 -13 -13 -13 -13 -12 -12 -12 -11 -11 -11 -11 -10 -10 -10 -11 -12 -11 -11 -11
-9 -9 -9 -9 -9 -9 -9 -9 -10 -10 -10 -10 -11 -11 -11 -11 -12 -12 -12 -12 -12 -13 -13 -13 -13 -13 -13 -13 -13 -13 -13 -13 -12 -12 -12 -12 -11 -10 -10 -11 -11 -11 -12 -11 -11
-10 -10 -9 -10 -9 -9 -9 -10 -10 -10 -10 -11 -11 -11 -11 -12 -12 -13 -13 -13 -13 -13 -13 -13 -13 -13 -14 -14 -14 -13 -13 -13 -13 -13 -13 -13 -10 -11 -12 -12 -12 -12 -11 -11 -11
-9 -9 -9 -10 -10 -10 -10 -10 -10 -10 -11 -11 -11 -11 -12 -12 -12 -13 -13 -13 -13 -13 -13 -13 -13 -13 -13 -13 -14 -14 -13 -13 -13 -13 -13 -13 -11 -12 -13 -12 -11 -12 -11 -11 -11
-10 -10 -10 -10 -10 -10 -10 -10 -10 -10 -11 -11 -11 -12 -12 -12 -12 -13 -13 -13 -13 -13 -14 -14 -13 -14 -14 -14 -13 -13 -14 -14 -14 -14 -14 -14 -12 -12 -12 -12 -12 -12 -12 -11 -11
-10 -10 -10 -10 -10 -10 -10 -10 -10 -11 -11 -11 -12 -12 -12 -12 -13 -14 -14 -13 -13 -13 -13 -13 -13 -13 -14 -14 -14 -14 -14 -14 -14 -14 -15 -14 -14 -13 -13 -13 -13 -12 -11 -11 -10
-10 -10 -10 -10 -9 -10 -9 -10 -11 -11 -11 -12 -12 -12 -12 -13 -13 -14 -13 -13 -13 -14 -14 -14 -14 -14 -15 -15 -15 -15 -15 -16 -15 -15 -16 -16 -14 -14 -14 -13 -13 -13 -12 -11 -11
-11 -11 -10 -10 -10 -10 -10 -10 -11 -11 -12 -12 -12 -12 -12 -13 -13 -14 -14 -14 -14 -14 -14 -14 -14 -15 -15 -15 -15 -16 -15 -16 -16 -16 -17 -16 -16 -15 -14 -14 -13 -13 -13 -12 -11
-11 -11 -11 -10 -10 -10 -10 -10 -11 -11 -12 -12 -12 -12 -13 -13 -14 -13 -14 -15 -14 -14 -14 -14 -14 -15 -15 -15 -15 -14 -15 -16 -16 -16 -17 -18 -16 -15 -15 -16 -14 -14 -13 -12 -12
-11 -11 -11 -11 -11 -10 -10 -10 -11 -11 -12 -13 -12 -13 -12 -13 -13 -13 -13 -14 -14 -15 -14 -15 -15 -15 -15 -15 -15 -16 -16 -17 -17 -18 -17 -19 -18 -15 -16 -16 -15 -15 -13 -13 -12
-11 -11 -11 -11 -11 -11 -11 -10 -11 -11 -12 -12 -13 -13 -13 -13 -13 -13 -13 -14 -14 -15 -16 -15 -14 -15 -15 -15 -15 -15 -16 -16 -16 -17 -18 -19 -19 -16 -17 -16 -16 -15 -14 -13 -12
-11 -11 -11 -11 -12 -11 -11 -11 -11 -12 -12 -12 -13 -13 -13 -13 -13 -13 -14 -14 -14 -14 -15 -15 -15 -15 -15 -15 -15 -15 -15 -15 -15 -16 -17 -16 -17 -17 -17 -16 -16 -14 -13 -13 -13
-11 -11 -11 -12 -12 -12 -11 -11 -11 -11 -12 -12 -12 -13 -13 -13 -13 -14 -14 -14 -14 -14 -15 -15 -15 -14 -15 -14 -14 -14 -15 -15 -15 -16 -16 -15 -16 -16 -16 -16 -16 -16 -14 -13 -13
-11 -11 -11 -11 -12 -12 -12 -12 -12 -12 -12 -12 -13 -13 -13 -13 -13 -13 -14 -14 -14 -14 -14 -14 -15 -15 -15 -14 -14 -14 -15 -15 -15 -15 -15 -15 -15 -15 -15 -15 -14 -14 -11 -13 -12
-11 -12 -11 -11 -12 -12 -12 -12 -12 -12 -12 -12 -13 -13 -13 -13 -14 -14 -14 -14 -14 -14 -14 -15 -15 -15 -15 -14 -14 -14 -14 -15 -15 -15 -15 -15 -15 -15 -15 -15 -15 -14 -14 -14 -14
-11 -12 -11 -12 -12 -12 -12 -12 -13 -12 -12 -12 -13 -13 -13 -13 -14 -14 -14 -14 -14 -15 -14 -14 -15 -15 -15 -14 -14 -14 -15 -15 -15 -15 -15 -15 -15 -15 -16 -14 -14 -13 -13 -14 -14
-12 -12 -11 -12 -12 -12 -12 -12 -13 -13 -13 -13 -13 -13 -13 -13 -14 -14 -14 -14 -14 -14 -14 -14 -14 -15 -15 -15 -15 -15 -15 -15 -15 -15 -15 -16 -15 -16 -14 -15 -15 -15 -15 -14 -14
-12 -12 -12 -12 -12 -12 -12 -12 -13 -13 -13 -13 -13 -13 -14 -14 -13 -14 -14 -14 -14 -14 -14 -14 -14 -14 -15 -16 -15 -15 -15 -15 -15 -15 -15 -15 -15 -15 -15 -15 -15 -15 -14 -15 -15
-12 -12 -12 -13 -12 -12 -12 -12 -13 -13 -14 -14 -14 -13 -13 -14 -13 -13 -14 -14 -14 -14 -14 -15 -14 -14 -15 -15 -15 -15 -16 -15 -15 -15 -15 -15 -15 -15 -15 -15 -15 -15 -14 -14 -14
-12 -12 -12 -12 -13 -13 -13 -13 -13 -13 -13 -13 -13 -13 -13 -14 -13 -14 -14 -14 -14 -14 -14 -14 -15 -15 -15 -15 -15 -15 -16 -16 -15 -15 -16 -15 -15 -15 -15 -15 -15 -15 -15 -15 -15
-13 -13 -13 -13 -13 -13 -13 -13 -13 -14 -14 -14 -13 -13 -13 -13 -13 -14 -14 -14 -14 -14 -14 -14 -15 -15 -15 -15 -15 -15 -16 -16 -16 -15 -15 -16 -15 -15 -15 -15 -15 -15 -15 -15 -15
-13 -13 -13 -13 -13 -13 -13 -13 -13 -14 -14 -15 -14 -13 -13 -12 -13 -13 -14 -14 -14 -14 -14 -14 -14 -15 -14 -15 -15 -15 -16 -16 -16 -16 -16 -16 -16 -15 -15 -15 -15 -15 -15 -15 -15

GFSSW_500_temp_102.txt.gz
Temp
-9 -9 -9 -9 -9 -9 -9 -9 -9 -9 -9 -9 -9 -9 -9 -9 -9 -9 -9 -10 -10 -11 -11 -12 -11 -12 -12 -11 -11 -10 -10 -9 -9 -9 -9 -11 -10 -10 -10 -10 -9 -10 -9 -8 -9
-10 -9 -9 -9 -9 -9 -9 -8 -8 -8 -9 -9 -9 -9 -9 -9 -9 -9 -10 -10 -11 -12 -12 -12 -13 -13 -13 -12 -12 -11 -10 -10 -10 -10 -10 -11 -10 -10 -10 -10 -9 -9 -9 -9 -9
-10 -9 -9 -9 -9 -9 -8 -8 -8 -8 -8 -9 -9 -9 -9 -10 -10 -10 -10 -11 -12 -12 -12 -12 -13 -13 -13 -13 -12 -12 -11 -11 -11 -11 -11 -11 -11 -10 -9 -9 -9 -10 -9 -9 -9
-9 -9 -9 -9 -9 -9 -9 -9 -8 -8 -9 -9 -9 -10 -10 -10 -10 -10 -11 -12 -12 -12 -12 -13 -13 -13 -13 -13 -13 -12 -12 -12 -11 -11 -11 -10 -11 -10 -10 -9 -10 -10 -10 -9 -10
-9 -9 -9 -8 -9 -9 -9 -9 -9 -9 -9 -9 -10 -10 -10 -10 -10 -11 -11 -12 -12 -12 -12 -13 -13 -13 -13 -13 -13 -13 -13 -12 -11 -11 -11 -11 -11 -12 -10 -10 -9 -10 -10 -10 -10
-9 -9 -9 -9 -8 -8 -9 -9 -9 -9 -9 -10 -10 -10 -11 -11 -11 -11 -12 -12 -12 -12 -13 -13 -13 -13 -13 -13 -13 -13 -13 -13 -13 -13 -13 -12 -12 -12 -12 -11 -11 -10 -10 -10 -10
-9 -9 -8 -8 -9 -9 -9 -9 -9 -9 -10 -10 -10 -11 -11 -11 -11 -12 -12 -13 -13 -13 -13 -13 -13 -13 -13 -13 -13 -13 -13 -13 -13 -13 -13 -13 -11 -11 -12 -12 -12 -11 -12 -11 -11
-9 -9 -9 -9 -9 -9 -9 -9 -9 -9 -10 -10 -11 -11 -11 -12 -11 -12 -13 -13 -13 -13 -13 -13 -13 -13 -13 -13 -13 -13 -13 -13 -13 -13 -13 -13 -12 -13 -13 -13 -12 -12 -11 -11 -11
-9 -9 -9 -9 -9 -9 -9 -9 -9 -10 -10 -11 -11 -11 -12 -12 -12 -12 -12 -13 -14 -13 -13 -13 -14 -14 -14 -14 -14 -14 -13 -13 -13 -14 -13 -13 -12 -13 -13 -12 -12 -12 -12 -11 -11
-10 -10 -10 -10 -9 -9 -9 -9 -9 -10 -11 -11 -11 -11 -12 -12 -12 -12 -13 -14 -14 -14 -14 -14 -14 -14 -14 -14 -14 -14 -14 -14 -14 -14 -14 -14 -13 -13 -14 -13 -13 -12 -12 -12 -11
-10 -10 -10 -10 -9 -9 -9 -9 -9 -10 -11 -11 -11 -11 -12 -12 -12 -12 -13 -13 -13 -13 -13 -13 -13 -13 -14 -14 -14 -14 -14 -14 -14 -14 -14 -14 -13 -13 -14 -14 -13 -13 -13 -11 -11
-10 -10 -10 -10 -9 -9 -9 -9 -10 -10 -11 -11 -11 -11 -12 -12 -12 -13 -13 -13 -13 -14 -14 -14 -14 -14 -14 -14 -14 -14 -14 -14 -14 -15 -14 -15 -14 -14 -14 -14 -14 -14 -13 -13 -12
-10 -10 -11 -10 -10 -9 -9 -9 -9 -10 -11 -11 -11 -11 -12 -12 -12 -13 -13 -14 -14 -14 -14 -14 -14 -14 -13 -14 -15 -15 -15 -15 -15 -15 -15 -15 -15 -15 -15 -14 -14 -14 -14 -13 -13
-10 -10 -10 -11 -10 -10 -9 -10 -9 -10 -11 -11 -11 -11 -12 -12 -13 -13 -13 -13 -14 -13 -13 -14 -14 -14 -14 -15 -15 -15 -15 -15 -15 -15 -15 -17 -16 -17 -16 -15 -15 -14 -14 -13 -12
-10 -10 -11 -11 -11 -10 -10 -10 -10 -10 -11 -11 -12 -12 -12 -12 -13 -13 -13 -13 -14 -14 -13 -15 -15 -15 -14 -15 -15 -14 -15 -14 -15 -15 -16 -17 -18 -18 -17 -16 -15 -14 -14 -13 -12
-11 -11 -11 -11 -11 -11 -11 -11 -10 -10 -10 -11 -11 -12 -12 -12 -13 -13 -13 -13 -13 -14 -14 -15 -15 -15 -15 -15 -15 -13 -13 -14 -14 -14 -16 -17 -18 -18 -17 -16 -16 -14 -14 -14 -12
-10 -11 -11 -11 -11 -11 -11 -11 -11 -10 -11 -11 -12 -11 -12 -13 -13 -13 -13 -13 -13 -13 -14 -14 -15 -15 -15 -15 -15 -13 -13 -13 -14 -14 -16 -17 -17 -18 -17 -16 -16 -15 -14 -14 -13
-10 -10 -11 -11 -11 -11 -11 -11 -11 -11 -11 -11 -11 -12 -12 -12 -13 -13 -13 -13 -13 -14 -14 -14 -14 -15 -15 -15 -15 -14 -13 -14 -15 -15 -15 -15 -16 -16 -16 -16 -15 -15 -15 -14 -13
-11 -11 -11 -11 -11 -11 -11 -11 -11 -11 -11 -11 -11 -12 -12 -13 -12 -13 -13 -13 -14 -13 -14 -14 -14 -15 -15 -15 -15 -15 -14 -14 -15 -15 -15 -15 -16 -17 -16 -16 -17 -16 -16 -14 -13
-11 -11 -11 -11 -11 -11 -11 -11 -12 -11 -12 -11 -11 -12 -12 -13 -13 -13 -13 -13 -14 -14 -14 -14 -15 -15 -15 -15 -15 -15 -15 -15 -15 -15 -15 -15 -15 -14 -15 -15 -15 -15 -16 -15 -15
-11 -11 -11 -11 -11 -11 -11 -11 -12 -12 -12 -12 -12 -12 -12 -13 -13 -13 -13 -13 -14 -14 -14 -14 -15 -15 -15 -15 -15 -15 -15 -15 -15 -15 -15 -15 -15 -14 -15 -16 -15 -15 -14 -14 -14
-12 -12 -11 -11 -11 -12 -11 -11 -12 -12 -12 -13 -13 -12 -12 -12 -13 -13 -13 -14 -14 -14 -14 -14 -14 -15 -15 -15 -15 -15 -15 -15 -15 -16 -15 -15 -15 -15 -15 -15 -15 -14 -14 -14 -13
-12 -12 -12 -12 -12 -12 -12 -11 -12 -12 -13 -13 -13 -13 -13 -13 -12 -13 -14 -13 -13 -14 -14 -14 -14 -14 -15 -15 -15 -16 -15 -15 -15 -15 -16 -15 -15 -15 -15 -15 -15 -15 -15 -14 -14
-13 -12 -12 -12 -12 -12 -12 -11 -11 -12 -12 -13 -13 -13 -13 -13 -12 -12 -13 -14 -14 -14 -14 -14 -14 -14 -15 -15 -15 -16 -15 -15 -16 -15 -15 -15 -16 -15 -15 -15 -15 -15 -15 -15 -15
-13 -13 -12 -12 -12 -12 -12 -12 -12 -12 -12 -13 -13 -13 -12 -13 -13 -13 -12 -13 -13 -13 -13 -14 -14 -14 -14 -15 -15 -15 -16 -15 -16 -16 -15 -15 -16 -16 -15 -15 -15 -15 -15 -15 -15
-13 -13 -13 -13 -13 -13 -12 -12 -12 -13 -13 -13 -13 -14 -13 -12 -12 -13 -13 -13 -14 -14 -13 -14 -14 -14 -14 -15 -15 -15 -16 -16 -15 -16 -16 -15 -16 -15 -15 -15 -15 -15 -15 -15 -16
-13 -13 -13 -13 -13 -13 -13 -13 -13 -14 -13 -13 -13 -14 -14 -13 -12 -12 -13 -14 -13 -14 -14 -14 -14 -14 -14 -15 -15 -15 -16 -16 -16 -16 -16 -16 -15 -16 -16 -16 -15 -15 -15 -15 -15

GFSSW_500_temp_108.txt.gz
Temp
-10 -9 -9 -9 -9 -9 -9 -9 -9 -8 -8 -8 -8 -8 -8 -8 -8 -9 -9 -9 -9 -10 -10 -10 -11 -12 -12 -12 -12 -12 -12 -11 -12 -12 -12 -12 -12 -11 -11 -12 -11 -10 -10 -10 -10
-9 -9 -9 -9 -9 -9 -9 -9 -9 -8 -8 -8 -8 -8 -9 -9 -9 -9 -9 -9 -10 -10 -11 -12 -12 -12 -13 -12 -12 -13 -13 -12 -13 -13 -12 -12 -12 -11 -11 -11 -11 -11 -10 -10 -10
-9 -9 -9 -9 -9 -9 -8 -8 -9 -8 -8 -8 -8 -9 -9 -9 -9 -9 -10 -10 -10 -11 -11 -13 -13 -13 -12 -12 -12 -13 -13 -13 -13 -14 -13 -13 -12 -12 -11 -11 -11 -12 -11 -11 -11
-9 -9 -9 -9 -9 -8 -8 -9 -8 -8 -8 -8 -9 -9 -9 -9 -10 -10 -10 -10 -11 -11 -12 -13 -13 -13 -13 -13 -12 -13 -13 -13 -13 -14 -13 -13 -13 -12 -12 -11 -11 -12 -11 -11 -11
-9 -9 -9 -9 -8 -8 -9 -9 -8 -8 -8 -8 -9 -9 -9 -9 -10 -10 -10 -11 -11 -12 -13 -13 -13 -13 -13 -13 -13 -13 -13 -13 -13 -14 -14 -13 -13 -13 -12 -11 -11 -11 -11 -11 -11
-9 -9 -9 -8 -8 -9 -9 -8 -8 -8 -8 -8 -8 -9 -9 -10 -10 -10 -10 -11 -12 -12 -13 -13 -13 -13 -13 -13 -13 -13 -13 -13 -14 -14 -14 -14 -14 -13 -13 -12 -11 -11 -11 -11 -11
-9 -9 -9 -9 -9 -9 -9 -8 -8 -8 -8 -8 -8 -9 -9 -10 -10 -10 -11 -11 -12 -12 -13 -13 -13 -13 -13 -13 -14 -13 -14 -14 -14 -14 -14 -14 -14 -14 -13 -13 -12 -12 -11 -11 -11
-9 -9 -9 -9 -9 -8 -8 -8 -8 -8 -8 -8 -8 -9 -10 -10 -10 -10 -11 -11 -12 -13 -13 -13 -13 -13 -13 -13 -14 -14 -14 -14 -15 -14 -14 -14 -14 -14 -13 -13 -13 -12 -12 -11 -11
-10 -10 -9 -9 -9 -9 -8 -8 -8 -8 -8 -8 -9 -9 -10 -10 -11 -11 -11 -11 -12 -13 -13 -13 -13 -13 -13 -13 -13 -13 -14 -14 -14 -14 -14 -13 -13 -14 -14 -13 -13 -13 -12 -12 -11
-10 -10 -10 -9 -9 -9 -9 -8 -8 -8 -8 -8 -9 -9 -10 -11 -11 -11 -11 -11 -12 -13 -13 -13 -13 -13 -13 -13 -13 -14 -14 -14 -14 -14 -14 -14 -14 -14 -14 -14 -13 -13 -13 -13 -12
-10 -10 -10 -10 -10 -9 -9 -9 -9 -9 -8 -8 -9 -10 -10 -11 -11 -12 -11 -11 -12 -13 -13 -13 -13 -13 -13 -13 -13 -13 -14 -14 -14 -14 -14 -14 -13 -13 -13 -14 -13 -13 -13 -13 -13
-10 -10 -10 -10 -10 -10 -10 -9 -9 -9 -9 -9 -9 -10 -10 -11 -11 -12 -12 -12 -12 -13 -13 -13 -13 -13 -13 -13 -13 -13 -13 -14 -14 -14 -13 -13 -14 -14 -14 -14 -14 -14 -13 -13 -13
-10 -10 -10 -10 -10 -10 -10 -10 -10 -9 -9 -9 -10 -10 -10 -11 -11 -12 -12 -12 -12 -13 -13 -13 -13 -13 -13 -13 -14 -14 -14 -14 -14 -14 -14 -13 -13 -14 -15 -14 -14 -14 -14 -13 -12
-10 -10 -10 -10 -10 -10 -11 -10 -10 -10 -10 -10 -10 -10 -10 -10 -11 -11 -12 -12 -12 -12 -13 -13 -14 -13 -13 -13 -13 -14 -14 -14 -14 -14 -13 -13 -14 -15 -15 -16 -16 -15 -15 -14 -13
-10 -10 -10 -10 -10 -10 -11 -11 -10 -10 -10 -10 -10 -10 -10 -10 -11 -11 -11 -12 -12 -12 -13 -14 -14 -14 -14 -13 -13 -14 -14 -14 -14 -14 -14 -14 -15 -15 -16 -17 -17 -17 -16 -15 -14
-11 -10 -10 -10 -10 -10 -10 -11 -11 -10 -10 -10 -10 -10 -10 -10 -11 -11 -11 -12 -12 -13 -13 -13 -14 -14 -14 -14 -14 -14 -14 -14 -14 -14 -14 -14 -16 -16 -17 -17 -17 -17 -17 -16 -15
-10 -11 -10 -10 -10 -10 -10 -11 -11 -11 -11 -10 -10 -11 -11 -11 -11 -11 -11 -12 -12 -12 -13 -13 -14 -14 -14 -14 -14 -14 -14 -14 -14 -14 -15 -15 -17 -17 -17 -16 -17 -18 -17 -16 -16
-10 -10 -11 -11 -10 -10 -10 -10 -11 -11 -11 -11 -11 -11 -11 -11 -11 -11 -11 -11 -11 -12 -13 -13 -13 -14 -14 -14 -14 -14 -14 -14 -15 -15 -15 -16 -16 -17 -17 -17 -17 -17 -17 -17 -17
-11 -10 -11 -11 -11 -11 -11 -11 -11 -11 -11 -11 -11 -11 -11 -11 -11 -11 -11 -11 -11 -12 -12 -13 -13 -13 -14 -14 -14 -14 -14 -14 -15 -15 -15 -16 -15 -16 -16 -16 -17 -17 -17 -17 -16
-11 -11 -11 -11 -11 -11 -11 -11 -11 -11 -11 -11 -11 -11 -11 -11 -11 -11 -11 -11 -11 -12 -12 -13 -13 -13 -14 -14 -15 -15 -15 -15 -15 -14 -15 -16 -15 -16 -16 -16 -16 -16 -16 -16 -16
-12 -11 -11 -11 -11 -11 -11 -11 -11 -11 -11 -11 -11 -12 -11 -11 -11 -11 -11 -11 -11 -12 -12 -12 -13 -13 -14 -14 -14 -15 -15 -15 -15 -15 -15 -15 -16 -15 -15 -15 -16 -16 -16 -16 -15
-12 -12 -12 -12 -11 -11 -11 -12 -12 -11 -11 -12 -12 -12 -12 -11 -11 -11 -11 -11 -11 -12 -12 -12 -13 -13 -13 -14 -14 -15 -15 -15 -16 -15 -16 -15 -16 -16 -16 -15 -16 -16 -16 -15 -15
-13 -12 -12 -12 -11 -12 -12 -12 -12 -12 -12 -12 -12 -12 -12 -12 -12 -11 -12 -11 -11 -11 -12 -12 -12 -13 -13 -14 -14 -14 -15 -15 -15 -16 -16 -16 -15 -16 -16 -16 -16 -16 -16 -15 -15
-13 -13 -12 -12 -12 -12 -12 -12 -12 -12 -12 -12 -12 -12 -12 -12 -13 -12 -12 -11 -11 -11 -12 -12 -12 -13 -13 -13 -14 -14 -15 -15 -15 -15 -15 -16 -16 -16 -16 -16 -16 -15 -15 -15 -15
-13 -13 -13 -12 -12 -13 -13 -12 -12 -12 -12 -12 -12 -12 -12 -12 -13 -13 -13 -12 -12 -12 -12 -13 -13 -13 -13 -14 -14 -14 -14 -15 -15 -15 -15 -15 -16 -16 -15 -15 -16 -15 -16 -15 -15
-14 -14 -13 -13 -13 -13 -13 -13 -13 -13 -12 -12 -12 -12 -12 -13 -13 -12 -13 -12 -12 -12 -12 -12 -13 -13 -13 -13 -14 -14 -14 -14 -15 -15 -15 -15 -15 -15 -15 -15 -15 -15 -15 -15 -15
-14 -14 -14 -14 -13 -13 -13 -13 -13 -13 -13 -12 -12 -13 -13 -13 -13 -13 -13 -13 -13 -12 -12 -12 -12 -13 -13 -13 -13 -14 -14 -14 -14 -15 -15 -16 -15 -15 -15 -15 -15 -15 -15 -15 -15

GFSSW_500_temp_111.txt.gz
Temp
-10 -10 -9 -9 -9 -9 -9 -9 -8 -8 -8 -8 -9 -8 -9 -9 -9 -9 -9 -9 -9 -9 -9 -10 -10 -11 -12 -12 -12 -13 -12 -12 -12 -12 -12 -12 -12 -11 -11 -11 -12 -11 -10 -10 -10
-10 -10 -9 -9 -9 -9 -9 -9 -9 -8 -8 -8 -8 -8 -9 -9 -9 -9 -9 -9 -9 -9 -10 -10 -11 -13 -13 -13 -13 -13 -12 -12 -13 -13 -13 -13 -13 -12 -11 -11 -11 -12 -11 -11 -10
-10 -9 -9 -9 -9 -9 -9 -9 -9 -8 -8 -8 -8 -8 -8 -9 -9 -9 -9 -9 -10 -10 -10 -11 -12 -13 -13 -13 -13 -13 -12 -12 -13 -13 -13 -13 -13 -13 -12 -11 -11 -12 -12 -11 -10
-10 -9 -9 -9 -9 -9 -9 -9 -9 -8 -8 -8 -8 -8 -8 -9 -9 -9 -9 -10 -10 -10 -11 -12 -12 -13 -13 -13 -13 -13 -13 -13 -13 -13 -13 -13 -14 -14 -13 -12 -12 -12 -12 -11 -11
-10 -9 -9 -9 -9 -9 -9 -9 -8 -8 -8 -8 -8 -8 -8 -9 -9 -10 -10 -10 -10 -11 -11 -12 -12 -13 -13 -13 -13 -13 -13 -13 -13 -13 -13 -13 -14 -14 -13 -13 -12 -12 -12 -11 -11
-10 -10 -10 -9 -9 -9 -9 -9 -8 -8 -8 -8 -8 -8 -8 -9 -10 -10 -10 -10 -10 -11 -11 -12 -12 -12 -12 -12 -13 -14 -14 -13 -13 -13 -13 -13 -14 -14 -14 -13 -13 -12 -12 -12 -12
-10 -10 -10 -9 -9 -9 -8 -8 -8 -8 -8 -8 -8 -8 -9 -9 -10 -10 -10 -11 -11 -11 -12 -12 -12 -12 -12 -12 -13 -13 -14 -14 -13 -14 -13 -13 -14 -14 -14 -13 -13 -12 -12 -12 -12
-10 -10 -10 -9 -9 -9 -9 -8 -8 -8 -8 -8 -8 -8 -9 -9 -10 -10 -10 -11 -11 -11 -12 -12 -12 -12 -12 -13 -13 -13 -13 -14 -14 -14 -14 -14 -14 -14 -14 -13 -13 -13 -12 -12 -12
-10 -10 -10 -9 -9 -9 -9 -9 -8 -9 -8 -8 -8 -9 -9 -9 -10 -10 -10 -11 -11 -11 -12 -12 -12 -12 -13 -13 -13 -13 -14 -14 -14 -13 -13 -14 -14 -14 -14 -14 -13 -13 -13 -12 -12
-10 -10 -10 -10 -9 -9 -9 -9 -9 -9 -9 -9 -9 -9 -9 -9 -10 -10 -11 -11 -11 -12 -12 -12 -12 -12 -12 -13 -13 -13 -13 -13 -13 -13 -13 -14 -14 -14 -14 -14 -14 -13 -13 -13 -13
-10 -10 -10 -10 -10 -10 -10 -9 -9 -9 -9 -9 -9 -9 -9 -10 -10 -10 -11 -11 -12 -12 -12 -12 -13 -13 -13 -13 -13 -13 -14 -14 -13 -13 -14 -14 -14 -14 -14 -14 -14 -14 -13 -13 -13
-10 -10 -10 -10 -10 -10 -10 -10 -10 -10 -9 -10 -9 -9 -9 -10 -10 -10 -11 -11 -12 -12 -12 -12 -13 -13 -13 -13 -13 -13 -14 -14 -14 -14 -13 -13 -13 -13 -13 -14 -14 -14 -14 -13 -13
-10 -10 -10 -10 -10 -10 -10 -10 -10 -10 -10 -10 -9 -9 -9 -10 -10 -10 -11 -11 -11 -12 -12 -12 -13 -13 -13 -13 -14 -14 -14 -14 -13 -13 -13 -14 -13 -13 -13 -14 -15 -15 -15 -14 -14
-10 -10 -10 -10 -10 -10 -10 -10 -10 -10 -10 -10 -10 -10 -10 -10 -10 -10 -11 -11 -11 -12 -12 -12 -13 -13 -13 -14 -14 -14 -14 -14 -14 -14 -13 -14 -14 -14 -15 -15 -15 -15 -16 -15 -14
-10 -10 -10 -11 -10 -10 -10 -10 -10 -11 -10 -10 -10 -10 -10 -10 -10 -10 -10 -11 -12 -12 -12 -12 -13 -13 -13 -13 -14 -14 -14 -14 -14 -14 -14 -14 -14 -14 -15 -16 -16 -17 -17 -16 -15
-10 -10 -10 -10 -11 -10 -10 -10 -10 -11 -10 -11 -11 -10 -10 -10 -10 -10 -10 -10 -12 -12 -12 -12 -13 -13 -13 -14 -14 -14 -14 -14 -14 -14 -14 -14 -14 -15 -15 -16 -17 -17 -17 -17 -16
-10 -10 -10 -10 -11 -10 -10 -10 -10 -11 -11 -11 -11 -11 -10 -11 -11 -11 -11 -11 -11 -12 -12 -12 -13 -13 -13 -14 -14 -14 -14 -14 -14 -14 -15 -15 -15 -15 -16 -16 -17 -17 -17 -17 -16
-11 -11 -10 -10 -11 -11 -10 -10 -10 -10 -11 -11 -11 -11 -11 -10 -11 -11 -11 -11 -11 -12 -12 -12 -12 -13 -13 -13 -14 -14 -14 -14 -15 -14 -15 -15 -16 -16 -16 -17 -17 -17 -17 -17 -16
-11 -11 -11 -11 -11 -11 -11 -11 -10 -10 -11 -11 -11 -11 -11 -11 -10 -10 -11 -11 -11 -11 -12 -12 -12 -12 -13 -13 -14 -14 -14 -14 -15 -15 -14 -15 -15 -16 -16 -16 -17 -17 -17 -17 -17
-11 -11 -11 -11 -11 -11 -11 -11 -11 -11 -11 -11 -11 -11 -11 -11 -11 -11 -11 -11 -11 -11 -11 -12 -12 -13 -13 -13 -14 -14 -14 -14 -15 -15 -15 -15 -15 -16 -16 -17 -16 -16 -17 -17 -17
-12 -12 -12 -11 -11 -11 -11 -11 -11 -11 -11 -11 -11 -12 -12 -11 -11 -11 -11 -12 -11 -11 -11 -12 -12 -13 -13 -13 -14 -14 -14 -15 -15 -15 -15 -15 -15 -15 -16 -16 -16 -16 -16 -16 -16
-13 -12 -12 -12 -12 -11 -11 -12 -11 -11 -11 -11 -11 -12 -12 -12 -12 -11 -12 -12 -12 -11 -11 -12 -12 -13 -13 -13 -13 -14 -14 -15 -15 -15 -15 -15 -15 -16 -16 -16 -16 -16 -16 -16 -15
-13 -13 -13 -12 -12 -12 -12 -12 -12 -12 -12 -11 -11 -12 -12 -12 -12 -12 -11 -12 -12 -11 -11 -11 -12 -12 -13 -13 -13 -14 -14 -14 -15 -15 -15 -15 -15 -16 -15 -15 -15 -15 -15 -15 -15
-14 -13 -13 -13 -12 -12 -12 -12 -12 -12 -12 -12 -12 -12 -12 -12 -12 -12 -12 -12 -12 -12 -12 -12 -12 -12 -13 -13 -14 -13 -14 -14 -15 -15 -15 -15 -15 -15 -16 -16 -15 -15 -15 -15 -15
-14 -13 -13 -13 -13 -13 -13 -13 -12 -12 -12 -12 -12 -12 -12 -12 -12 -12 -12 -13 -13 -12 -12 -12 -12 -13 -12 -13 -13 -14 -14 -14 -14 -15 -15 -15 -15 -15 -15 -15 -15 -15 -15 -15 -15
-14 -14 -14 -14 -14 -13 -13 -13 -13 -13 -13 -12 -12 -12 -12 -12 -13 -13 -13 -12 -13 -13 -12 -12 -12 -12 -13 -13 -13 -14 -14 -14 -14 -15 -15 -15 -15 -15 -15 -15 -15 -15 -15 -15 -15
-15 -14 -14 -14 -14 -14 -13 -13 -14 -13 -13 -13 -13 -12 -12 -13 -13 -13 -13 -13 -12 -13 -13 -12 -12 -12 -12 -12 -13 -13 -14 -14 -14 -14 -15 -15 -15 -15 -15 -15 -15 -15 -15 -15 -15

GFSSW_500_temp_114.txt.gz
Temp
-10 -10 -10 -10 -9 -9 -9 -8 -8 -9 -8 -8 -8 -8 -8 -8 -9 -9 -9 -9 -9 -9 -9 -9 -9 -10 -11 -12 -13 -13 -13 -13 -13 -13 -12 -13 -13 -12 -11 -11 -12 -12 -12 -11 -11
-10 -10 -9 -9 -9 -9 -9 -8 -9 -8 -8 -8 -8 -8 -8 -8 -9 -9 -9 -9 -9 -9 -9 -9 -10 -11 -11 -12 -13 -13 -13 -12 -13 -13 -12 -13 -13 -12 -12 -12 -12 -12 -12 -12 -11
-10 -10 -10 -9 -9 -9 -9 -9 -9 -8 -8 -8 -8 -8 -8 -8 -9 -9 -9 -9 -9 -9 -9 -10 -10 -11 -12 -12 -12 -13 -13 -13 -13 -13 -12 -13 -13 -13 -13 -12 -12 -12 -12 -12 -11
-10 -10 -10 -9 -9 -9 -9 -9 -9 -8 -8 -8 -8 -8 -8 -9 -9 -9 -9 -9 -9 -10 -10 -10 -11 -11 -12 -12 -13 -13 -13 -13 -13 -13 -13 -13 -13 -13 -13 -13 -13 -13 -13 -12 -12
-10 -10 -10 -9 -9 -9 -9 -9 -8 -8 -8 -8 -8 -8 -8 -9 -9 -9 -9 -9 -9 -10 -10 -10 -11 -11 -12 -12 -12 -13 -13 -14 -14 -13 -13 -13 -13 -13 -13 -13 -13 -13 -13 -12 -12
-10 -10 -10 -9 -9 -9 -9 -9 -8 -8 -8 -8 -8 -8 -9 -9 -9 -9 -10 -10 -10 -10 -10 -10 -11 -11 -11 -12 -12 -13 -13 -14 -13 -13 -13 -13 -13 -13 -13 -13 -13 -13 -13 -13 -13
-10 -10 -10 -10 -9 -9 -9 -9 -8 -8 -8 -8 -8 -8 -9 -9 -9 -9 -10 -10 -10 -10 -10 -11 -11 -11 -11 -12 -12 -13 -13 -13 -13 -14 -13 -13 -14 -14 -14 -13 -13 -13 -13 -13 -13
-10 -10 -10 -10 -10 -9 -9 -9 -8 -8 -8 -8 -8 -9 -9 -9 -9 -9 -9 -10 -10 -10 -10 -11 -11 -11 -12 -12 -12 -13 -13 -13 -13 -13 -13 -14 -14 -14 -14 -14 -14 -14 -13 -13 -13
-10 -10 -10 -10 -10 -9 -9 -9 -9 -9 -9 -9 -9 -9 -9 -9 -9 -9 -9 -10 -10 -10 -10 -11 -11 -12 -12 -12 -13 -13 -13 -13 -13 -13 -13 -13 -13 -14 -14 -14 -14 -14 -14 -14 -13
-11 -10 -10 -10 -10 -9 -9 -9 -9 -9 -9 -9 -9 -9 -9 -9 -9 -9 -10 -10 -10 -11 -11 -11 -12 -12 -12 -13 -13 -13 -13 -13 -13 -13 -13 -13 -13 -13 -13 -14 -14 -14 -14 -14 -14
-11 -11 -10 -10 -10 -10 -10 -10 -9 -9 -9 -9 -9 -9 -9 -9 -9 -9 -10 -10 -10 -11 -11 -11 -12 -12 -13 -13 -13 -13 -13 -13 -13 -13 -14 -13 -13 -13 -13 -13 -14 -14 -14 -14 -14
-11 -11 -10 -10 -10 -10 -10 -10 -10 -10 -9 -10 -9 -9 -9 -9 -9 -9 -9 -10 -11 -11 -11 -12 -12 -12 -13 -13 -13 -13 -13 -14 -13 -13 -13 -14 -13 -13 -13 -14 -14 -14 -14 -14 -14
-11 -11 -11 -10 -10 -10 -10 -10 -10 -10 -10 -10 -10 -10 -10 -10 -10 -9 -10 -10 -11 -11 -12 -12 -12 -12 -12 -13 -13 -13 -14 -14 -14 -14 -14 -13 -13 -13 -13 -14 -14 -14 -14 -14 -14
-11 -10 -10 -10 -10 -10 -10 -10 -10 -10 -10 -10 -10 -10 -10 -10 -10 -10 -10 -10 -11 -11 -11 -12 -12 -12 -12 -13 -13 -13 -14 -14 -14 -14 -14 -14 -14 -14 -15 -15 -15 -15 -15 -15 -14
-10 -10 -10 -10 -10 -10 -10 -10 -10 -11 -10 -10 -10 -10 -10 -10 -10 -10 -10 -10 -10 -11 -11 -12 -12 -12 -12 -13 -13 -13 -14 -14 -14 -14 -14 -15 -14 -14 -15 -16 -16 -15 -15 -15 -15
-11 -10 -10 -10 -10 -10 -10 -10 -11 -10 -10 -10 -10 -10 -10 -10 -10 -10 -10 -10 -10 -10 -11 -12 -12 -12 -13 -13 -13 -13 -14 -14 -14 -14 -14 -14 -14 -14 -15 -15 -16 -16 -16 -16 -17
-11 -11 -11 -10 -10 -10 -10 -10 -10 -10 -10 -10 -11 -11 -11 -10 -10 -10 -10 -11 -11 -11 -11 -12 -12 -12 -13 -13 -13 -14 -14 -13 -14 -14 -14 -14 -14 -15 -16 -16 -16 -17 -18 -17 -17
-11 -11 -11 -11 -11 -10 -10 -10 -10 -10 -10 -10 -11 -11 -11 -11 -11 -10 -10 -11 -11 -11 -11 -11 -12 -12 -12 -13 -13 -13 -14 -14 -14 -14 -14 -14 -15 -15 -16 -16 -17 -17 -17 -17 -17
-11 -11 -11 -11 -11 -11 -11 -11 -10 -10 -10 -10 -11 -11 -11 -11 -11 -10 -10 -11 -11 -11 -11 -11 -12 -12 -12 -13 -13 -13 -14 -14 -14 -14 -14 -15 -15 -16 -16 -16 -17 -16 -16 -16 -16
-11 -11 -11 -11 -11 -11 -11 -11 -11 -11 -11 -11 -10 -11 -11 -11 -11 -11 -11 -11 -11 -11 -11 -11 -12 -12 -12 -12 -13 -13 -14 -14 -14 -14 -14 -15 -15 -15 -16 -16 -16 -16 -16 -16 -16
-12 -12 -11 -11 -11 -11 -11 -11 -11 -11 -11 -11 -11 -11 -11 -11 -11 -11 -11 -11 -11 -11 -11 -11 -11 -12 -12 -13 -13 -13 -14 -14 -14 -14 -15 -15 -15 -16 -15 -16 -16 -16 -16 -16 -16
-13 -12 -12 -12 -12 -11 -11 -11 -11 -11 -11 -11 -11 -11 -11 -12 -11 -11 -11 -11 -11 -11 -11 -11 -11 -12 -13 -12 -13 -13 -14 -14 -14 -14 -15 -15 -15 -15 -15 -15 -15 -15 -16 -16 -16
-13 -13 -13 -12 -12 -12 -12 -12 -11 -11 -11 -11 -11 -11 -11 -12 -12 -11 -11 -11 -11 -11 -11 -12 -12 -12 -13 -13 -12 -13 -13 -14 -14 -14 -15 -15 -15 -15 -15 -15 -15 -15 -15 -15 -15
-14 -14 -13 -13 -12 -12 -12 -12 -12 -12 -11 -11 -12 -11 -11 -11 -12 -12 -11 -12 -11 -12 -12 -12 -12 -12 -12 -13 -13 -13 -13 -13 -14 -14 -15 -15 -15 -15 -15 -15 -15 -15 -15 -15 -15
-14 -14 -14 -13 -13 -13 -13 -12 -12 -12 -12 -12 -12 -12 -11 -12 -12 -12 -12 -12 -12 -11 -12 -12 -12 -12 -12 -12 -13 -13 -13 -13 -14 -14 -14 -15 -15 -15 -15 -15 -15 -15 -15 -15 -15
-14 -14 -14 -14 -13 -13 -13 -12 -13 -13 -12 -12 -12 -12 -12 -12 -12 -12 -13 -12 -12 -12 -12 -12 -12 -12 -12 -12 -13 -13 -13 -13 -13 -14 -14 -14 -15 -15 -15 -15 -15 -15 -15 -15 -15
-15 -14 -15 -14 -14 -14 -13 -13 -13 -13 -13 -13 -13 -12 -13 -12 -12 -12 -13 -12 -12 -13 -12 -12 -12 -12 -12 -12 -12 -13 -13 -14 -13 -14 -14 -14 -14 -15 -15 -15 -15 -15 -15 -15 -15

GFSSW_500_temp_117.txt.gz
Temp
-10 -10 -10 -10 -9 -9 -9 -9 -8 -8 -8 -8 -8 -8 -8 -8 -8 -8 -8 -8 -8 -8 -8 -8 -8 -9 -9 -11 -11 -12 -12 -13 -13 -13 -13 -13 -13 -13 -12 -12 -12 -12 -12 -10 -8
-10 -10 -10 -10 -9 -9 -9 -9 -8 -9 -8 -8 -8 -8 -8 -8 -8 -8 -8 -8 -8 -9 -9 -9 -8 -9 -10 -11 -11 -12 -12 -13 -13 -13 -13 -13 -13 -13 -13 -12 -12 -12 -12 -11 -11
-10 -10 -10 -10 -9 -9 -9 -9 -9 -9 -8 -8 -8 -8 -8 -8 -8 -8 -8 -9 -9 -9 -9 -9 -9 -10 -11 -11 -12 -12 -12 -13 -13 -13 -13 -13 -13 -13 -13 -13 -13 -12 -13 -12 -11
-10 -10 -10 -9 -9 -9 -9 -9 -9 -8 -8 -8 -8 -8 -8 -8 -8 -8 -9 -9 -9 -9 -9 -9 -9 -10 -11 -11 -12 -12 -12 -13 -13 -13 -14 -13 -13 -13 -13 -13 -13 -13 -13 -13 -12
-10 -10 -10 -9 -9 -9 -9 -9 -9 -8 -8 -8 -8 -8 -8 -8 -8 -8 -9 -9 -9 -9 -9 -9 -10 -10 -11 -11 -12 -12 -12 -13 -13 -13 -14 -13 -13 -13 -13 -13 -13 -13 -13 -13 -13
-10 -10 -10 -9 -9 -9 -9 -9 -9 -9 -9 -8 -8 -8 -8 -8 -8 -9 -9 -9 -9 -9 -9 -10 -10 -10 -11 -12 -12 -12 -12 -12 -13 -13 -13 -13 -13 -13 -14 -13 -13 -13 -13 -13 -13
-10 -10 -10 -10 -10 -10 -9 -9 -9 -9 -9 -9 -9 -8 -8 -8 -9 -9 -9 -9 -9 -9 -10 -10 -10 -11 -11 -12 -12 -12 -12 -12 -13 -13 -13 -13 -13 -13 -14 -13 -13 -13 -13 -13 -14
-10 -10 -10 -10 -10 -10 -9 -9 -9 -9 -9 -9 -9 -8 -8 -8 -8 -9 -9 -9 -9 -9 -10 -10 -10 -11 -11 -12 -12 -13 -13 -13 -13 -13 -13 -13 -14 -14 -13 -13 -13 -13 -13 -13 -13
-10 -10 -10 -10 -10 -10 -10 -9 -9 -9 -9 -9 -9 -9 -8 -8 -8 -9 -9 -9 -9 -9 -10 -10 -10 -11 -11 -11 -12 -13 -13 -13 -13 -13 -13 -13 -13 -13 -13 -14 -13 -13 -14 -13 -14
-10 -10 -10 -10 -10 -10 -10 -10 -9 -9 -9 -9 -9 -9 -9 -9 -9 -9 -9 -9 -9 -9 -10 -10 -11 -11 -11 -12 -13 -13 -13 -14 -13 -13 -13 -14 -13 -13 -13 -13 -13 -14 -14 -14 -14
-10 -10 -11 -10 -10 -10 -10 -10 -10 -10 -9 -9 -9 -9 -9 -9 -9 -9 -9 -9 -9 -10 -10 -11 -11 -11 -12 -12 -13 -13 -13 -13 -13 -13 -14 -13 -13 -13 -13 -13 -13 -14 -14 -14 -14
-11 -10 -10 -10 -10 -10 -10 -10 -10 -10 -10 -10 -9 -9 -9 -9 -9 -9 -9 -9 -10 -10 -10 -11 -11 -12 -12 -12 -12 -13 -13 -13 -13 -13 -14 -13 -13 -13 -13 -13 -14 -14 -14 -14 -14
-10 -10 -11 -10 -10 -10 -10 -10 -10 -10 -10 -10 -10 -9 -9 -9 -10 -10 -9 -9 -10 -10 -11 -11 -12 -12 -12 -12 -12 -13 -13 -13 -14 -14 -13 -14 -13 -13 -14 -14 -14 -15 -15 -15 -14
-10 -10 -10 -10 -10 -10 -10 -10 -10 -10 -10 -10 -10 -10 -10 -10 -10 -10 -10 -10 -10 -10 -10 -11 -12 -12 -12 -12 -12 -13 -13 -13 -14 -14 -14 -13 -15 -14 -15 -15 -15 -16 -15 -15 -15
-10 -10 -10 -10 -10 -10 -10 -10 -10 -10 -10 -10 -10 -10 -10 -10 -10 -10 -10 -10 -10 -10 -10 -11 -12 -12 -12 -12 -12 -13 -13 -14 -14 -14 -14 -14 -14 -15 -15 -16 -16 -16 -16 -16 -16
-11 -11 -10 -10 -10 -10 -10 -10 -10 -10 -10 -10 -10 -10 -10 -10 -10 -10 -10 -10 -10 -10 -10 -11 -11 -12 -12 -12 -12 -13 -13 -13 -14 -14 -15 -15 -14 -15 -15 -15 -15 -15 -16 -16 -16
-11 -11 -11 -11 -11 -10 -10 -10 -10 -10 -10 -10 -10 -10 -10 -10 -10 -10 -10 -10 -10 -10 -10 -11 -11 -12 -12 -12 -12 -13 -13 -13 -14 -14 -15 -15 -15 -15 -15 -15 -16 -16 -17 -17 -16
-11 -11 -11 -11 -11 -11 -11 -10 -10 -10 -10 -10 -10 -11 -10 -10 -11 -10 -10 -11 -11 -10 -11 -11 -11 -12 -12 -12 -12 -13 -13 -13 -14 -14 -14 -14 -15 -15 -15 -15 -16 -16 -17 -17 -17
-11 -12 -11 -11 -11 -11 -11 -10 -11 -10 -10 -10 -10 -10 -11 -10 -11 -11 -10 -11 -11 -11 -10 -11 -11 -12 -12 -12 -13 -13 -13 -14 -14 -14 -13 -14 -15 -15 -15 -15 -16 -16 -16 -16 -17
-12 -12 -12 -12 -11 -11 -11 -11 -10 -11 -11 -11 -10 -10 -11 -11 -10 -11 -11 -10 -11 -11 -10 -11 -11 -12 -12 -12 -13 -13 -13 -13 -13 -14 -14 -16 -15 -15 -15 -15 -16 -16 -16 -16 -16
-13 -12 -12 -12 -12 -11 -11 -11 -11 -11 -11 -11 -11 -11 -11 -11 -11 -11 -11 -11 -11 -11 -11 -11 -11 -12 -12 -12 -13 -13 -13 -13 -14 -14 -14 -15 -15 -15 -15 -15 -15 -16 -16 -15 -16
-13 -13 -13 -13 -12 -11 -11 -11 -11 -11 -11 -11 -11 -11 -11 -11 -11 -11 -11 -11 -11 -11 -11 -11 -11 -11 -12 -12 -12 -13 -13 -13 -14 -14 -14 -14 -15 -15 -14 -14 -14 -15 -15 -16 -15
-14 -13 -13 -13 -12 -12 -12 -11 -11 -11 -11 -11 -11 -11 -11 -11 -11 -11 -11 -11 -11 -11 -11 -11 -11 -11 -11 -12 -12 -13 -13 -13 -14 -14 -14 -14 -15 -15 -15 -14 -14 -14 -15 -15 -15
-14 -14 -13 -13 -13 -12 -12 -12 -12 -12 -11 -11 -11 -11 -11 -11 -11 -11 -12 -12 -10 -11 -11 -12 -12 -12 -12 -12 -12 -12 -13 -13 -14 -14 -14 -14 -14 -15 -15 -15 -14 -14 -14 -15 -14
-15 -14 -13 -12 -12 -12 -13 -13 -12 -12 -12 -12 -12 -12 -12 -11 -11 -11 -11 -12 -11 -11 -11 -12 -12 -12 -12 -12 -12 -12 -13 -13 -13 -14 -14 -14 -14 -14 -15 -15 -15 -15 -15 -15 -15
-15 -15 -14 -14 -14 -14 -14 -13 -13 -12 -12 -12 -12 -12 -12 -11 -12 -12 -12 -12 -12 -11 -11 -12 -12 -12 -12 -12 -12 -12 -12 -13 -13 -13 -14 -14 -14 -14 -14 -15 -15 -15 -15 -15 -15
-15 -16 -16 -14 -14 -14 -13 -13 -13 -13 -13 -13 -13 -12 -12 -12 -12 -12 -12 -12 -13 -12 -12 -12 -12 -12 -12 -12 -12 -12 -12 -13 -13 -13 -14 -14 -14 -14 -14 -14 -15 -15 -15 -15 -15

GFSSW_500_temp_120.txt.gz
Temp
-10 -10 -10 -10 -10 -10 -9 -9 -9 -8 -8 -8 -8 -8 -8 -8 -8 -8 -8 -8 -8 -8 -8 -8 -8 -8 -8 -9 -10 -11 -11 -11 -12 -12 -12 -13 -13 -13 -13 -13 -12 -12 -11 -10 -11
-11 -10 -10 -10 -10 -9 -9 -9 -9 -8 -8 -8 -8 -8 -8 -8 -8 -8 -8 -8 -8 -8 -8 -8 -8 -8 -9 -10 -11 -11 -11 -12 -12 -13 -13 -13 -13 -13 -13 -13 -13 -12 -13 -11 -11
-10 -10 -10 -10 -10 -9 -9 -9 -9 -9 -9 -8 -8 -8 -8 -8 -8 -8 -8 -8 -8 -8 -8 -8 -8 -8 -9 -10 -11 -11 -12 -12 -12 -12 -13 -13 -14 -14 -13 -13 -13 -13 -13 -12 -11
-11 -10 -10 -10 -10 -9 -9 -9 -9 -9 -8 -8 -8 -8 -8 -8 -8 -8 -8 -8 -8 -9 -8 -8 -8 -9 -9 -10 -11 -11 -12 -12 -12 -12 -13 -13 -14 -14 -13 -13 -13 -13 -13 -13 -12
-11 -10 -10 -10 -9 -9 -9 -9 -9 -9 -8 -8 -8 -8 -8 -8 -8 -8 -8 -8 -9 -9 -9 -9 -9 -9 -9 -10 -11 -12 -12 -12 -13 -13 -13 -13 -14 -13 -13 -13 -13 -13 -13 -13 -13
-10 -11 -10 -10 -9 -9 -9 -9 -9 -8 -8 -8 -8 -8 -8 -8 -8 -8 -8 -8 -9 -9 -9 -9 -9 -9 -10 -10 -11 -12 -12 -13 -13 -13 -13 -13 -14 -13 -13 -13 -13 -13 -13 -13 -13
-10 -11 -10 -10 -10 -9 -9 -9 -9 -8 -9 -8 -8 -8 -8 -8 -8 -8 -8 -8 -9 -9 -9 -9 -9 -9 -10 -10 -11 -12 -12 -12 -13 -13 -13 -14 -14 -14 -13 -13 -13 -13 -13 -13 -13
-11 -11 -10 -10 -10 -10 -9 -9 -9 -9 -9 -9 -8 -8 -8 -8 -8 -8 -8 -8 -9 -9 -9 -10 -10 -10 -10 -11 -11 -12 -12 -12 -13 -14 -14 -13 -14 -14 -13 -13 -14 -13 -13 -13 -13
-11 -11 -10 -10 -10 -10 -10 -10 -9 -9 -9 -9 -9 -8 -8 -9 -8 -9 -8 -8 -9 -9 -9 -10 -10 -10 -10 -10 -11 -11 -13 -13 -14 -13 -14 -14 -13 -13 -14 -14 -14 -14 -14 -14 -13
-11 -11 -10 -10 -10 -10 -10 -10 -10 -10 -9 -9 -9 -9 -9 -9 -9 -9 -9 -9 -9 -9 -10 -10 -10 -10 -10 -11 -11 -13 -13 -13 -13 -14 -14 -14 -14 -14 -14 -13 -13 -13 -14 -13 -14
-10 -11 -10 -10 -10 -10 -10 -10 -10 -10 -10 -9 -9 -9 -9 -9 -9 -9 -9 -9 -9 -9 -9 -9 -10 -10 -11 -11 -12 -12 -13 -13 -13 -14 -14 -14 -13 -13 -13 -14 -14 -13 -13 -14 -14
-10 -10 -10 -10 -10 -10 -10 -10 -10 -10 -10 -10 -9 -9 -9 -9 -9 -9 -9 -9 -9 -9 -9 -10 -10 -10 -11 -11 -11 -12 -12 -13 -13 -13 -14 -14 -13 -13 -14 -14 -14 -14 -14 -14 -14
-10 -10 -10 -10 -10 -10 -10 -10 -10 -10 -10 -10 -10 -10 -9 -9 -10 -9 -9 -9 -9 -9 -10 -10 -10 -11 -11 -11 -12 -12 -12 -13 -13 -14 -13 -14 -14 -14 -15 -15 -15 -15 -15 -15 -15
-11 -11 -10 -10 -10 -10 -10 -10 -10 -10 -10 -10 -10 -10 -10 -10 -10 -10 -10 -9 -9 -10 -10 -10 -11 -11 -11 -11 -12 -12 -12 -13 -13 -14 -14 -14 -15 -15 -16 -16 -15 -14 -15 -15 -15
-11 -11 -11 -10 -10 -10 -10 -10 -10 -10 -10 -10 -10 -10 -10 -10 -10 -10 -10 -10 -10 -10 -10 -10 -10 -11 -11 -11 -12 -12 -12 -13 -13 -13 -14 -15 -15 -15 -15 -16 -15 -15 -15 -15 -16
-11 -11 -11 -11 -11 -10 -11 -11 -10 -10 -10 -10 -10 -10 -10 -10 -10 -10 -10 -10 -10 -10 -10 -10 -10 -11 -11 -11 -12 -12 -12 -13 -13 -13 -14 -15 -14 -15 -15 -15 -15 -15 -16 -16 -16
-11 -11 -11 -11 -11 -11 -11 -11 -11 -10 -10 -10 -10 -10 -10 -10 -10 -10 -10 -10 -10 -10 -10 -10 -10 -11 -11 -11 -12 -12 -13 -12 -13 -14 -14 -15 -14 -15 -15 -15 -15 -15 -16 -17 -17
-11 -11 -11 -11 -11 -11 -11 -11 -11 -10 -10 -10 -10 -11 -10 -10 -10 -10 -10 -11 -11 -10 -10 -10 -10 -11 -11 -12 -12 -12 -12 -12 -13 -13 -14 -14 -14 -15 -14 -15 -15 -16 -16 -16 -16
-12 -11 -11 -11 -11 -12 -11 -11 -10 -11 -10 -11 -10 -10 -11 -11 -10 -11 -10 -10 -10 -11 -10 -10 -10 -10 -11 -12 -12 -12 -12 -13 -13 -13 -13 -14 -15 -15 -15 -15 -15 -16 -16 -16 -16
-12 -12 -12 -12 -11 -11 -11 -11 -11 -11 -10 -11 -11 -11 -11 -11 -11 -10 -11 -11 -10 -10 -11 -11 -11 -11 -11 -12 -12 -12 -12 -13 -13 -13 -14 -15 -15 -15 -14 -15 -15 -15 -16 -15 -15
-13 -12 -13 -13 -13 -11 -10 -10 -11 -10 -11 -11 -11 -11 -11 -11 -11 -11 -10 -11 -11 -10 -11 -11 -11 -11 -11 -11 -12 -12 -13 -13 -13 -13 -14 -14 -14 -15 -15 -15 -15 -15 -15 -15 -15
-14 -13 -13 -13 -13 -11 -10 -11 -12 -10 -11 -11 -11 -11 -11 -11 -11 -11 -11 -11 -11 -11 -11 -11 -11 -11 -11 -11 -12 -12 -13 -13 -13 -13 -13 -13 -14 -15 -14 -15 -14 -15 -14 -15 -15
-14 -15 -14 -14 -12 -11 -11 -11 -12 -11 -12 -11 -11 -11 -11 -11 -11 -11 -11 -11 -11 -11 -11 -11 -11 -11 -11 -11 -12 -12 -13 -13 -13 -13 -13 -13 -14 -14 -15 -14 -14 -15 -14 -14 -15
-14 -14 -15 -14 -13 -12 -12 -12 -12 -11 -12 -11 -11 -11 -11 -11 -11 -11 -11 -11 -11 -11 -11 -11 -11 -11 -11 -11 -11 -11 -12 -13 -13 -13 -13 -13 -13 -14 -14 -15 -14 -14 -14 -14 -14
-14 -14 -13 -14 -13 -13 -13 -13 -12 -12 -12 -12 -11 -11 -12 -12 -11 -11 -11 -11 -11 -11 -11 -11 -11 -11 -11 -11 -11 -12 -12 -12 -13 -13 -13 -13 -13 -14 -14 -14 -15 -15 -14 -14 -14
-15 -15 -14 -14 -15 -15 -14 -13 -12 -12 -12 -12 -12 -13 -12 -12 -12 -11 -11 -11 -11 -11 -12 -11 -12 -11 -12 -12 -11 -12 -12 -12 -13 -13 -13 -13 -14 -14 -14 -14 -14 -15 -15 -15 -15
-16 -15 -15 -14 -15 -16 -14 -13 -13 -13 -13 -13 -14 -14 -13 -13 -12 -12 -12 -12 -12 -12 -12 -12 -11 -12 -11 -12 -11 -12 -12 -12 -12 -12 -13 -13 -14 -14 -14 -14 -14 -14 -15 -15 -15

GFSSW_500_temp_123.txt.gz
Temp
-11 -11 -11 -10 -10 -10 -10 -10 -9 -9 -9 -8 -8 -8 -8 -8 -7 -7 -8 -8 -8 -8 -8 -8 -8 -8 -8 -8 -8 -9 -10 -11 -11 -11 -11 -12 -12 -13 -13 -13 -12 -13 -13 -13 -11
-11 -11 -11 -10 -10 -10 -10 -9 -9 -9 -9 -8 -8 -8 -8 -8 -8 -8 -8 -8 -8 -8 -8 -8 -8 -8 -8 -8 -9 -9 -11 -11 -12 -12 -12 -12 -12 -12 -13 -14 -13 -14 -14 -12 -12
-11 -11 -11 -10 -10 -10 -9 -9 -9 -9 -9 -9 -8 -8 -8 -8 -8 -8 -8 -8 -8 -8 -8 -8 -8 -8 -8 -8 -9 -9 -11 -12 -12 -12 -12 -12 -13 -12 -13 -14 -13 -13 -14 -13 -12
-11 -11 -11 -10 -10 -10 -10 -9 -9 -9 -9 -9 -8 -8 -8 -8 -8 -8 -8 -8 -8 -8 -8 -8 -8 -8 -8 -9 -9 -9 -10 -11 -12 -12 -13 -13 -13 -13 -13 -14 -13 -13 -13 -13 -13
-11 -11 -11 -10 -10 -10 -9 -9 -9 -9 -9 -9 -8 -8 -8 -8 -8 -8 -8 -8 -8 -8 -8 -8 -9 -9 -9 -9 -9 -9 -10 -12 -12 -13 -13 -13 -13 -13 -13 -13 -13 -13 -13 -13 -13
-11 -11 -11 -11 -10 -10 -9 -9 -9 -9 -9 -8 -8 -8 -8 -8 -8 -8 -8 -8 -8 -8 -8 -9 -9 -9 -9 -9 -9 -9 -10 -12 -13 -13 -14 -14 -13 -13 -13 -13 -13 -13 -13 -13 -13
-11 -11 -10 -11 -10 -10 -9 -9 -9 -9 -9 -8 -8 -8 -8 -8 -8 -8 -8 -8 -8 -8 -9 -9 -9 -9 -9 -9 -9 -10 -11 -12 -12 -13 -13 -14 -14 -13 -13 -13 -13 -13 -13 -13 -13
-11 -11 -11 -11 -10 -10 -9 -9 -9 -9 -9 -9 -9 -8 -8 -8 -8 -8 -8 -8 -8 -8 -9 -9 -9 -9 -9 -9 -10 -10 -11 -11 -12 -13 -14 -14 -14 -14 -14 -13 -13 -13 -13 -13 -13
-11 -11 -11 -11 -11 -10 -10 -10 -9 -9 -9 -9 -9 -9 -8 -8 -8 -8 -8 -8 -8 -9 -9 -9 -9 -9 -10 -10 -9 -9 -10 -12 -13 -14 -14 -14 -14 -14 -14 -14 -14 -14 -13 -13 -13
-11 -11 -11 -11 -11 -10 -10 -10 -10 -10 -9 -9 -9 -9 -9 -9 -9 -9 -9 -9 -9 -9 -9 -9 -9 -10 -10 -9 -10 -11 -11 -13 -13 -14 -14 -14 -14 -14 -14 -14 -14 -14 -13 -13 -13
-11 -11 -11 -11 -11 -10 -10 -10 -10 -10 -10 -10 -9 -9 -9 -9 -9 -9 -9 -9 -9 -9 -9 -9 -9 -10 -9 -9 -10 -11 -11 -12 -12 -13 -14 -14 -14 -13 -14 -14 -14 -14 -14 -14 -13
-11 -11 -11 -11 -11 -11 -10 -10 -10 -10 -10 -10 -10 -9 -9 -9 -9 -9 -9 -9 -9 -9 -9 -9 -9 -10 -9 -10 -10 -11 -11 -12 -12 -13 -14 -14 -14 -13 -14 -14 -14 -15 -15 -15 -15
-11 -11 -11 -11 -11 -11 -10 -10 -10 -10 -10 -10 -10 -10 -9 -9 -9 -10 -9 -9 -9 -9 -9 -9 -9 -9 -10 -10 -11 -11 -11 -12 -12 -13 -14 -14 -13 -14 -14 -15 -14 -14 -14 -14 -15
-10 -11 -11 -11 -11 -11 -10 -10 -10 -10 -10 -10 -10 -10 -10 -10 -10 -10 -10 -10 -9 -9 -9 -9 -9 -10 -10 -10 -11 -11 -11 -12 -12 -13 -14 -14 -14 -14 -15 -15 -15 -15 -15 -15 -16
-10 -11 -11 -11 -11 -11 -10 -10 -10 -10 -10 -10 -10 -10 -10 -10 -10 -10 -10 -10 -10 -9 -9 -9 -9 -10 -10 -10 -11 -11 -12 -12 -13 -13 -14 -14 -15 -15 -15 -16 -16 -15 -16 -17 -17
-11 -10 -11 -11 -11 -11 -11 -10 -10 -10 -10 -10 -10 -10 -10 -10 -10 -10 -10 -10 -10 -10 -10 -10 -9 -10 -10 -10 -11 -11 -12 -12 -12 -13 -14 -14 -14 -15 -15 -15 -16 -16 -16 -17 -17
-11 -11 -11 -11 -11 -11 -12 -11 -11 -10 -10 -10 -10 -10 -10 -10 -10 -10 -10 -10 -10 -10 -10 -10 -10 -10 -10 -10 -11 -12 -11 -12 -12 -12 -13 -14 -14 -14 -15 -15 -15 -16 -16 -16 -16
-11 -12 -12 -11 -11 -11 -11 -11 -11 -10 -11 -11 -10 -10 -10 -10 -10 -10 -10 -10 -10 -10 -10 -10 -10 -10 -10 -10 -10 -11 -12 -12 -12 -12 -13 -13 -13 -14 -14 -15 -14 -15 -16 -15 -15
-12 -12 -12 -13 -12 -12 -11 -11 -11 -11 -11 -11 -11 -11 -11 -11 -10 -10 -10 -10 -10 -10 -10 -10 -10 -10 -10 -10 -10 -11 -11 -12 -12 -12 -12 -13 -13 -14 -15 -15 -15 -15 -15 -15 -15
-14 -12 -12 -14 -13 -12 -11 -10 -11 -11 -11 -11 -11 -11 -11 -11 -11 -11 -10 -10 -10 -10 -10 -10 -10 -10 -10 -10 -10 -11 -11 -12 -12 -12 -12 -13 -14 -14 -14 -14 -15 -15 -14 -15 -15
-14 -14 -13 -14 -14 -13 -11 -10 -11 -11 -11 -11 -11 -11 -11 -11 -11 -11 -11 -11 -11 -11 -10 -10 -10 -11 -11 -10 -10 -11 -11 -12 -12 -12 -12 -13 -13 -14 -14 -14 -14 -14 -14 -14 -15
-14 -14 -14 -15 -14 -13 -11 -11 -11 -12 -11 -11 -11 -11 -11 -11 -11 -11 -11 -11 -11 -11 -11 -11 -11 -11 -11 -11 -10 -11 -11 -12 -12 -12 -12 -13 -13 -13 -14 -14 -14 -14 -14 -14 -15
-14 -14 -14 -16 -15 -13 -13 -12 -12 -12 -11 -11 -11 -11 -11 -11 -11 -11 -11 -11 -11 -11 -11 -11 -11 -11 -11 -11 -11 -11 -11 -11 -12 -12 -12 -13 -13 -13 -13 -14 -14 -14 -14 -14 -14
-15 -14 -15 -14 -14 -14 -14 -13 -13 -13 -12 -11 -12 -12 -11 -11 -11 -11 -11 -11 -11 -11 -11 -11 -11 -11 -11 -11 -11 -11 -11 -11 -12 -12 -12 -12 -13 -13 -13 -14 -14 -14 -14 -14 -14
-16 -15 -15 -14 -13 -14 -14 -14 -14 -13 -13 -12 -12 -12 -12 -11 -11 -11 -11 -11 -11 -11 -11 -11 -11 -11 -11 -11 -11 -11 -11 -11 -12 -12 -12 -12 -12 -13 -13 -13 -14 -14 -14 -14 -14
-18 -16 -15 -15 -15 -15 -15 -15 -14 -14 -13 -12 -12 -12 -13 -12 -12 -12 -12 -11 -11 -11 -11 -11 -11 -12 -11 -11 -11 -11 -11 -11 -12 -12 -12 -12 -12 -13 -13 -13 -13 -14 -14 -14 -14
-20 -17 -16 -16 -16 -15 -14 -14 -14 -15 -14 -13 -14 -14 -14 -13 -14 -13 -13 -12 -12 -12 -12 -11 -11 -12 -11 -11 -12 -12 -11 -11 -12 -12 -12 -12 -12 -13 -13 -13 -13 -13 -14 -14 -14

GFSSW_500_temp_126.txt.gz
Temp
-11 -11 -11 -11 -10 -10 -10 -10 -10 -10 -9 -9 -9 -9 -9 -8 -8 -8 -7 -7 -7 -7 -7 -8 -8 -8 -8 -8 -8 -8 -8 -8 -8 -10 -12 -12 -12 -12 -12 -12 -12 -12 -12 -13 -13
-11 -11 -11 -11 -10 -10 -10 -10 -10 -9 -9 -9 -9 -9 -8 -8 -8 -8 -8 -8 -8 -8 -8 -8 -8 -8 -8 -8 -8 -8 -8 -9 -9 -10 -12 -12 -12 -12 -13 -13 -12 -12 -13 -13 -13
-11 -11 -11 -11 -10 -10 -10 -10 -9 -9 -9 -9 -9 -9 -8 -8 -8 -8 -8 -8 -8 -8 -8 -8 -8 -8 -8 -8 -8 -8 -8 -9 -9 -10 -12 -12 -13 -13 -13 -13 -14 -13 -13 -14 -13
-11 -11 -11 -11 -10 -10 -10 -9 -9 -9 -9 -9 -9 -9 -8 -8 -8 -8 -8 -8 -8 -8 -8 -8 -8 -8 -8 -8 -9 -8 -9 -9 -10 -11 -12 -13 -13 -14 -13 -13 -13 -13 -14 -14 -13
-11 -11 -11 -11 -10 -10 -10 -9 -9 -9 -9 -9 -9 -9 -8 -8 -8 -8 -8 -8 -8 -8 -8 -8 -8 -8 -8 -8 -9 -8 -9 -9 -10 -12 -13 -14 -14 -14 -13 -13 -13 -14 -14 -13 -13
-11 -11 -11 -11 -11 -10 -10 -10 -9 -9 -9 -9 -9 -9 -9 -8 -8 -8 -8 -8 -8 -8 -8 -8 -8 -8 -8 -8 -8 -9 -9 -9 -10 -12 -13 -14 -14 -14 -14 -13 -13 -13 -14 -14 -13
-11 -11 -11 -11 -11 -10 -10 -10 -10 -9 -9 -9 -9 -9 -9 -8 -8 -8 -8 -8 -8 -8 -8 -8 -8 -8 -9 -9 -8 -9 -9 -9 -11 -13 -13 -13 -13 -14 -14 -14 -13 -13 -13 -14 -14
-10 -11 -10 -11 -11 -11 -10 -10 -10 -9 -9 -9 -9 -9 -9 -9 -9 -8 -8 -8 -8 -8 -8 -8 -8 -9 -9 -9 -8 -9 -9 -10 -10 -11 -12 -13 -14 -14 -14 -14 -14 -13 -13 -13 -14
-10 -10 -11 -11 -11 -11 -11 -10 -10 -9 -9 -9 -9 -9 -9 -9 -9 -8 -9 -8 -8 -8 -8 -8 -9 -9 -9 -9 -9 -9 -9 -10 -10 -12 -13 -13 -14 -14 -14 -14 -13 -14 -13 -13 -13
-10 -10 -11 -11 -11 -11 -11 -10 -10 -10 -9 -9 -9 -9 -9 -9 -9 -8 -9 -9 -9 -9 -9 -9 -9 -9 -9 -9 -10 -9 -10 -10 -11 -12 -13 -13 -14 -14 -14 -14 -14 -14 -14 -14 -13
-11 -10 -10 -11 -11 -11 -11 -10 -10 -10 -10 -10 -10 -9 -9 -9 -9 -9 -9 -9 -9 -9 -9 -9 -9 -9 -9 -9 -9 -9 -10 -10 -11 -12 -13 -14 -14 -14 -14 -14 -14 -14 -14 -14 -14
-11 -11 -11 -11 -11 -11 -11 -11 -10 -10 -10 -10 -10 -10 -9 -9 -9 -9 -9 -9 -9 -9 -9 -9 -9 -9 -9 -9 -9 -10 -10 -10 -11 -12 -13 -14 -14 -14 -14 -14 -14 -14 -15 -15 -15
-11 -11 -11 -11 -11 -11 -11 -11 -11 -10 -10 -10 -10 -10 -10 -9 -9 -9 -9 -9 -9 -9 -9 -9 -9 -9 -9 -9 -9 -10 -10 -11 -11 -12 -13 -13 -14 -13 -14 -14 -14 -14 -15 -15 -15
-11 -11 -11 -11 -11 -11 -11 -11 -11 -11 -10 -10 -10 -10 -10 -10 -10 -10 -10 -10 -9 -9 -9 -9 -9 -9 -9 -9 -9 -10 -10 -11 -11 -12 -13 -13 -14 -14 -14 -15 -15 -15 -16 -15 -15
-11 -11 -11 -11 -11 -11 -11 -11 -11 -11 -10 -10 -10 -10 -10 -10 -10 -10 -9 -9 -10 -9 -9 -9 -9 -9 -9 -9 -10 -10 -10 -11 -11 -12 -13 -13 -14 -14 -14 -15 -15 -15 -16 -16 -17
-11 -11 -11 -12 -11 -11 -11 -11 -11 -11 -10 -10 -10 -10 -10 -10 -10 -10 -10 -10 -10 -10 -10 -9 -9 -9 -10 -10 -10 -10 -10 -11 -11 -12 -12 -13 -13 -14 -14 -14 -15 -15 -15 -16 -17
-12 -12 -11 -12 -12 -12 -11 -11 -11 -11 -10 -10 -10 -10 -10 -10 -10 -10 -10 -10 -10 -10 -10 -10 -9 -10 -10 -10 -10 -10 -10 -10 -11 -11 -12 -12 -13 -13 -14 -14 -15 -15 -15 -16 -16
-13 -13 -13 -12 -12 -12 -12 -11 -11 -10 -11 -11 -11 -11 -10 -10 -10 -10 -10 -10 -10 -10 -10 -10 -9 -10 -10 -10 -10 -10 -10 -11 -11 -11 -12 -12 -13 -13 -13 -13 -14 -14 -15 -15 -16
-13 -13 -13 -14 -13 -13 -13 -11 -10 -11 -11 -11 -11 -11 -11 -10 -10 -10 -10 -10 -10 -10 -10 -10 -10 -10 -10 -10 -10 -10 -10 -10 -10 -11 -12 -12 -12 -12 -13 -13 -14 -14 -15 -15 -15
-14 -14 -14 -16 -14 -14 -13 -11 -11 -11 -11 -11 -11 -11 -11 -11 -11 -11 -11 -10 -10 -11 -10 -10 -10 -10 -10 -10 -10 -10 -10 -10 -10 -11 -11 -11 -12 -13 -13 -13 -14 -14 -14 -15 -15
-15 -14 -14 -15 -16 -15 -12 -11 -12 -12 -12 -11 -12 -12 -11 -11 -11 -11 -11 -11 -11 -11 -11 -10 -10 -10 -11 -10 -10 -10 -10 -10 -10 -11 -11 -12 -12 -12 -13 -13 -13 -14 -14 -14 -14
-18 -16 -14 -14 -14 -13 -12 -12 -12 -13 -13 -12 -11 -12 -11 -11 -11 -11 -11 -11 -11 -11 -11 -11 -11 -11 -11 -11 -10 -11 -11 -10 -10 -11 -11 -12 -12 -12 -12 -13 -13 -13 -14 -14 -15
-18 -17 -15 -14 -14 -13 -12 -13 -14 -14 -13 -13 -12 -12 -11 -11 -11 -11 -11 -11 -11 -11 -11 -11 -11 -11 -11 -11 -11 -10 -10 -10 -11 -11 -11 -11 -12 -12 -12 -12 -13 -13 -13 -14 -14
-18 -19 -16 -15 -15 -14 -13 -13 -14 -14 -14 -14 -13 -13 -12 -11 -11 -11 -11 -11 -11 -11 -11 -11 -11 -11 -11 -11 -11 -10 -10 -10 -10 -11 -11 -11 -12 -12 -12 -12 -13 -13 -14 -14 -14
-20 -18 -18 -17 -16 -15 -15 -13 -14 -15 -14 -14 -13 -13 -13 -12 -11 -11 -12 -12 -11 -11 -11 -11 -11 -11 -11 -11 -11 -11 -11 -11 -11 -11 -11 -11 -12 -12 -12 -13 -13 -13 -14 -14 -14
-21 -19 -18 -18 -16 -15 -16 -15 -14 -15 -15 -14 -13 -13 -13 -12 -12 -13 -13 -13 -12 -12 -11 -11 -11 -11 -11 -11 -11 -11 -11 -11 -11 -11 -11 -11 -11 -12 -12 -13 -13 -13 -13 -14 -14
-22 -21 -20 -18 -18 -17 -15 -15 -15 -15 -16 -15 -15 -15 -13 -14 -14 -15 -14 -14 -13 -12 -12 -11 -11 -11 -11 -11 -12 -11 -11 -11 -11 -11 -11 -11 -12 -12 -12 -12 -13 -13 -13 -14 -14

GFSSW_500_temp_132.txt.gz
Temp
-11 -11 -11 -11 -11 -11 -11 -10 -10 -10 -10 -10 -10 -10 -9 -9 -9 -9 -8 -9 -8 -8 -8 -8 -8 -8 -8 -7 -7 -7 -8 -8 -8 -8 -8 -8 -9 -9 -10 -11 -12 -12 -12 -12 -12
-12 -11 -11 -11 -11 -11 -11 -10 -10 -10 -10 -10 -10 -10 -9 -9 -9 -8 -9 -9 -9 -9 -8 -8 -8 -8 -7 -7 -8 -8 -8 -8 -8 -8 -9 -9 -9 -10 -11 -12 -12 -13 -13 -13 -13
-11 -12 -11 -11 -11 -11 -11 -11 -10 -10 -10 -10 -10 -10 -9 -9 -9 -8 -9 -8 -9 -8 -8 -8 -7 -7 -7 -7 -8 -8 -8 -8 -8 -8 -9 -9 -9 -10 -12 -12 -13 -13 -13 -13 -13
-11 -11 -11 -11 -11 -11 -11 -11 -10 -10 -10 -9 -9 -10 -9 -9 -9 -9 -9 -9 -8 -8 -8 -8 -8 -8 -8 -8 -8 -8 -8 -8 -8 -9 -9 -9 -10 -10 -12 -13 -13 -14 -14 -14 -14
-11 -11 -11 -11 -11 -11 -11 -10 -10 -10 -10 -9 -9 -10 -9 -9 -9 -9 -9 -8 -8 -8 -8 -8 -8 -8 -8 -8 -8 -8 -8 -8 -9 -9 -9 -9 -10 -11 -13 -13 -13 -14 -14 -14 -14
-10 -10 -11 -11 -11 -11 -11 -10 -10 -10 -10 -9 -9 -9 -9 -9 -9 -9 -9 -9 -8 -8 -8 -8 -8 -8 -8 -8 -8 -8 -8 -9 -9 -9 -9 -9 -10 -11 -12 -14 -14 -14 -14 -14 -14
-10 -10 -10 -11 -11 -11 -11 -11 -10 -10 -10 -9 -9 -9 -9 -9 -9 -9 -9 -8 -8 -8 -8 -8 -8 -8 -8 -8 -8 -8 -9 -9 -9 -9 -10 -10 -11 -11 -13 -14 -14 -14 -14 -14 -14
-9 -10 -10 -10 -10 -11 -11 -10 -11 -10 -10 -10 -10 -9 -9 -9 -9 -9 -9 -8 -8 -8 -8 -8 -8 -8 -8 -9 -9 -9 -9 -9 -9 -9 -9 -10 -11 -12 -13 -14 -14 -14 -14 -14 -14
-9 -9 -10 -10 -10 -10 -11 -11 -10 -10 -10 -10 -10 -10 -9 -9 -9 -9 -9 -8 -8 -9 -8 -9 -9 -9 -8 -9 -9 -9 -9 -9 -9 -9 -9 -10 -11 -12 -13 -13 -14 -14 -14 -14 -14
-10 -10 -10 -10 -10 -10 -10 -11 -11 -10 -10 -10 -10 -10 -10 -9 -9 -9 -9 -9 -9 -9 -9 -9 -9 -9 -9 -9 -9 -9 -9 -9 -9 -9 -9 -10 -11 -12 -13 -14 -14 -14 -14 -15 -15
-10 -10 -10 -10 -10 -10 -10 -10 -11 -11 -10 -10 -10 -10 -10 -10 -9 -9 -9 -9 -9 -9 -9 -9 -9 -9 -9 -9 -9 -9 -9 -9 -9 -9 -10 -10 -11 -12 -13 -14 -14 -14 -14 -15 -15
-11 -10 -10 -10 -10 -11 -11 -11 -10 -11 -11 -10 -10 -10 -10 -10 -10 -9 -9 -9 -9 -9 -9 -9 -10 -9 -9 -9 -9 -9 -9 -9 -9 -9 -10 -10 -11 -12 -13 -13 -13 -13 -14 -14 -15
-11 -11 -11 -11 -11 -11 -11 -11 -11 -11 -11 -11 -11 -11 -10 -10 -10 -10 -9 -9 -9 -10 -10 -10 -9 -9 -9 -9 -9 -9 -10 -10 -10 -9 -10 -10 -11 -12 -13 -13 -13 -13 -14 -15 -16
-11 -11 -11 -11 -11 -11 -11 -11 -11 -11 -11 -11 -11 -11 -10 -10 -10 -10 -10 -10 -10 -10 -9 -9 -9 -9 -9 -9 -9 -9 -10 -10 -10 -10 -10 -10 -11 -12 -13 -13 -14 -14 -15 -16 -16
-11 -11 -11 -12 -12 -12 -11 -11 -11 -12 -10 -10 -11 -10 -11 -11 -11 -10 -10 -10 -10 -10 -10 -10 -10 -10 -10 -10 -9 -10 -10 -10 -10 -10 -10 -10 -10 -11 -13 -13 -14 -14 -14 -15 -15
-11 -11 -12 -12 -12 -12 -12 -12 -12 -12 -10 -10 -11 -11 -11 -11 -11 -11 -10 -10 -10 -10 -10 -10 -10 -10 -10 -10 -10 -10 -10 -10 -10 -10 -10 -10 -11 -11 -12 -12 -13 -13 -14 -15 -15
-11 -12 -12 -12 -13 -13 -13 -13 -13 -11 -11 -10 -11 -11 -11 -11 -11 -11 -11 -11 -11 -10 -10 -10 -10 -10 -10 -10 -10 -10 -10 -10 -10 -11 -10 -11 -11 -11 -12 -12 -13 -13 -14 -14 -15
-12 -13 -13 -13 -14 -14 -14 -15 -14 -11 -11 -12 -12 -11 -11 -11 -11 -11 -11 -11 -11 -11 -10 -10 -10 -10 -10 -10 -10 -10 -10 -10 -10 -10 -10 -11 -11 -11 -11 -12 -12 -13 -13 -14 -15
-14 -14 -14 -15 -15 -15 -16 -14 -11 -11 -12 -12 -13 -12 -12 -12 -11 -11 -11 -11 -11 -11 -11 -10 -10 -10 -10 -10 -10 -10 -10 -10 -10 -11 -11 -11 -11 -11 -11 -12 -12 -12 -13 -14 -14
-15 -15 -15 -17 -16 -16 -16 -14 -13 -13 -13 -13 -13 -13 -12 -12 -12 -12 -11 -11 -11 -11 -11 -11 -10 -10 -11 -10 -10 -10 -10 -10 -11 -10 -11 -11 -11 -11 -11 -12 -11 -12 -12 -13 -14
-16 -16 -16 -18 -18 -17 -16 -14 -13 -14 -14 -14 -13 -13 -13 -13 -13 -12 -12 -12 -12 -11 -11 -11 -11 -11 -11 -10 -10 -10 -10 -11 -10 -11 -11 -11 -11 -11 -11 -11 -12 -12 -12 -12 -13
-18 -17 -16 -18 -19 -18 -17 -16 -15 -15 -15 -15 -15 -14 -14 -13 -13 -13 -12 -12 -12 -12 -12 -11 -11 -11 -11 -11 -11 -11 -11 -11 -10 -11 -10 -10 -11 -11 -11 -11 -12 -12 -12 -12 -12
-20 -19 -18 -19 -19 -19 -18 -17 -16 -16 -16 -15 -15 -15 -14 -14 -13 -14 -13 -13 -12 -12 -12 -12 -11 -11 -11 -11 -11 -11 -11 -11 -11 -11 -10 -10 -11 -11 -11 -12 -12 -12 -12 -12 -12
-22 -20 -20 -20 -19 -20 -19 -18 -17 -16 -16 -16 -15 -16 -16 -15 -14 -14 -14 -13 -13 -12 -12 -12 -11 -11 -11 -11 -11 -11 -11 -10 -10 -11 -11 -10 -10 -11 -11 -11 -12 -12 -12 -12 -12
-25 -22 -21 -21 -21 -20 -20 -19 -18 -17 -16 -16 -15 -15 -16 -15 -15 -15 -14 -14 -14 -13 -12 -12 -12 -11 -11 -11 -11 -11 -11 -10 -10 -11 -11 -10 -10 -10 -11 -11 -12 -12 -12 -12 -12
-27 -25 -24 -22 -23 -23 -22 -20 -19 -18 -17 -16 -16 -15 -16 -16 -15 -15 -15 -15 -15 -14 -13 -12 -12 -12 -12 -11 -11 -11 -11 -11 -10 -10 -10 -10 -10 -10 -11 -11 -12 -12 -12 -12 -12
-27 -27 -27 -25 -24 -24 -22 -21 -20 -19 -18 -16 -16 -16 -16 -16 -16 -15 -16 -16 -16 -15 -15 -13 -12 -12 -12 -11 -11 -10 -12 -11 -11 -11 -10 -10 -11 -11 -11 -11 -11 -12 -12 -12 -12

GFSSW_500_temp_138.txt.gz
Temp
-9 -9 -10 -10 -11 -11 -11 -11 -11 -11 -11 -10 -11 -11 -10 -10 -10 -10 -9 -9 -9 -9 -9 -9 -9 -8 -8 -8 -8 -8 -7 -7 -7 -7 -7 -7 -7 -7 -7 -8 -8 -9 -9 -9 -10
-8 -9 -9 -10 -10 -11 -11 -11 -11 -10 -10 -10 -10 -10 -10 -10 -10 -10 -9 -9 -9 -9 -9 -9 -8 -9 -9 -8 -8 -7 -7 -7 -7 -7 -7 -7 -7 -7 -7 -8 -8 -9 -9 -10 -11
-8 -8 -9 -9 -10 -11 -11 -11 -11 -10 -10 -10 -10 -10 -10 -10 -10 -10 -9 -9 -9 -9 -9 -9 -9 -9 -9 -8 -8 -8 -8 -8 -8 -8 -7 -7 -7 -7 -8 -8 -8 -9 -9 -10 -11
-8 -8 -9 -9 -10 -10 -11 -11 -10 -10 -10 -10 -10 -10 -10 -10 -10 -10 -9 -9 -9 -9 -9 -9 -9 -9 -9 -8 -8 -8 -8 -8 -8 -8 -7 -7 -7 -8 -8 -8 -9 -9 -10 -10 -11
-9 -9 -9 -9 -9 -10 -10 -10 -11 -10 -10 -10 -10 -9 -9 -10 -10 -10 -10 -9 -9 -9 -9 -9 -9 -9 -9 -8 -8 -8 -8 -8 -8 -8 -8 -8 -8 -8 -8 -8 -9 -10 -10 -11 -12
-9 -9 -9 -9 -9 -9 -9 -10 -10 -10 -10 -10 -10 -10 -9 -9 -10 -10 -10 -9 -9 -9 -9 -9 -9 -9 -9 -9 -8 -8 -8 -8 -8 -8 -8 -8 -8 -8 -8 -9 -9 -10 -11 -12 -12
-8 -9 -9 -9 -9 -9 -9 -9 -10 -10 -10 -10 -10 -10 -10 -9 -9 -9 -10 -9 -9 -9 -9 -9 -9 -9 -9 -9 -9 -8 -8 -8 -8 -8 -8 -8 -8 -8 -8 -9 -10 -11 -11 -12 -12
-9 -9 -9 -9 -9 -9 -10 -10 -9 -10 -10 -10 -10 -10 -10 -9 -9 -9 -9 -10 -10 -9 -9 -9 -9 -9 -9 -9 -9 -9 -8 -8 -8 -8 -8 -9 -9 -8 -9 -9 -10 -11 -12 -12 -12
-9 -9 -9 -9 -9 -9 -9 -10 -10 -10 -10 -10 -10 -10 -10 -10 -9 -9 -9 -10 -10 -9 -9 -10 -10 -9 -9 -9 -9 -9 -8 -8 -8 -8 -9 -9 -9 -9 -9 -10 -10 -11 -12 -12 -13
-9 -10 -10 -9 -10 -10 -10 -10 -10 -10 -10 -10 -10 -10 -10 -10 -9 -9 -10 -9 -9 -9 -10 -10 -10 -9 -9 -9 -9 -9 -9 -9 -8 -9 -9 -9 -9 -9 -10 -10 -11 -11 -12 -13 -14
-10 -10 -10 -10 -10 -10 -10 -10 -10 -10 -10 -10 -10 -10 -10 -10 -10 -9 -9 -10 -10 -10 -10 -10 -10 -10 -9 -9 -9 -9 -9 -9 -9 -9 -9 -9 -9 -9 -10 -10 -11 -11 -12 -13 -14
-10 -10 -10 -10 -10 -10 -10 -10 -10 -10 -10 -10 -10 -10 -10 -11 -10 -10 -10 -10 -10 -10 -10 -10 -10 -9 -9 -9 -9 -9 -9 -9 -9 -9 -9 -9 -10 -10 -10 -10 -11 -11 -12 -13 -14
-11 -10 -10 -10 -10 -10 -10 -10 -10 -10 -10 -10 -10 -10 -11 -11 -11 -10 -10 -10 -10 -10 -10 -10 -10 -10 -10 -10 -9 -9 -9 -9 -9 -9 -9 -9 -10 -10 -10 -10 -11 -11 -12 -13 -14
-11 -11 -11 -11 -11 -11 -10 -11 -10 -10 -10 -9 -10 -10 -10 -10 -10 -10 -11 -10 -10 -11 -10 -10 -10 -10 -10 -10 -10 -10 -10 -9 -9 -9 -9 -10 -10 -10 -10 -10 -11 -11 -12 -13 -14
-11 -11 -11 -12 -12 -11 -11 -11 -11 -11 -10 -9 -9 -10 -10 -10 -10 -11 -11 -11 -11 -11 -11 -10 -10 -10 -10 -10 -10 -10 -10 -10 -10 -10 -9 -10 -10 -10 -10 -10 -11 -11 -12 -13 -14
-11 -12 -11 -12 -12 -13 -12 -12 -12 -12 -10 -10 -10 -10 -11 -11 -11 -11 -11 -11 -11 -11 -11 -11 -11 -10 -10 -10 -10 -10 -10 -10 -10 -10 -10 -10 -10 -10 -10 -10 -11 -11 -12 -13 -14
-11 -12 -12 -13 -13 -13 -14 -13 -13 -12 -11 -10 -11 -11 -12 -11 -11 -11 -11 -11 -11 -11 -11 -11 -11 -11 -11 -10 -10 -10 -10 -10 -10 -10 -10 -10 -10 -10 -10 -10 -11 -11 -12 -12 -13
-13 -13 -13 -13 -13 -14 -15 -15 -14 -12 -12 -12 -12 -12 -12 -13 -12 -12 -11 -11 -11 -11 -11 -12 -11 -11 -11 -11 -10 -10 -10 -10 -10 -10 -10 -10 -10 -10 -10 -10 -11 -11 -12 -12 -13
-13 -14 -14 -14 -14 -15 -16 -16 -14 -14 -13 -13 -14 -13 -13 -14 -14 -13 -12 -12 -12 -12 -12 -12 -12 -11 -11 -11 -11 -11 -10 -10 -10 -10 -10 -10 -10 -10 -10 -10 -11 -11 -11 -12 -12
-14 -14 -15 -15 -16 -17 -17 -16 -15 -15 -15 -14 -14 -15 -14 -15 -15 -15 -14 -13 -12 -12 -12 -12 -12 -12 -12 -11 -11 -11 -11 -10 -10 -10 -10 -10 -10 -10 -10 -10 -11 -11 -11 -12 -12
-16 -15 -16 -17 -18 -18 -18 -18 -17 -17 -17 -16 -16 -16 -15 -15 -16 -15 -16 -14 -14 -13 -13 -13 -12 -12 -12 -11 -11 -11 -10 -10 -10 -10 -10 -10 -10 -10 -10 -10 -11 -11 -11 -11 -12
-19 -18 -18 -19 -20 -19 -19 -20 -19 -18 -18 -18 -18 -17 -17 -17 -16 -16 -15 -16 -15 -14 -13 -13 -13 -12 -12 -12 -12 -11 -10 -10 -10 -10 -10 -10 -10 -10 -10 -10 -11 -11 -11 -11 -11
-21 -20 -20 -21 -21 -21 -21 -20 -21 -19 -19 -20 -19 -18 -18 -18 -16 -16 -16 -15 -17 -15 -14 -13 -13 -13 -13 -12 -12 -11 -11 -10 -10 -10 -10 -10 -10 -10 -10 -10 -11 -11 -11 -11 -11
-25 -22 -22 -23 -23 -23 -23 -22 -21 -21 -20 -21 -21 -20 -19 -18 -17 -16 -16 -15 -17 -17 -15 -15 -14 -14 -13 -12 -12 -11 -12 -11 -10 -10 -10 -11 -10 -10 -10 -10 -11 -11 -11 -11 -11
-26 -25 -24 -25 -26 -26 -26 -24 -23 -22 -22 -22 -22 -21 -20 -19 -19 -17 -16 -16 -16 -18 -16 -15 -14 -14 -13 -13 -12 -12 -12 -11 -11 -11 -10 -10 -11 -11 -10 -10 -10 -11 -11 -11 -11
-26 -26 -26 -27 -27 -27 -26 -25 -25 -24 -23 -23 -24 -22 -21 -19 -18 -18 -17 -17 -17 -18 -17 -16 -15 -14 -14 -13 -13 -12 -12 -11 -11 -11 -11 -11 -11 -10 -10 -10 -10 -11 -11 -11 -11
-26 -27 -27 -27 -27 -27 -26 -26 -26 -26 -25 -24 -25 -23 -21 -20 -20 -19 -18 -17 -17 -17 -17 -16 -16 -15 -14 -14 -13 -12 -11 -11 -11 -11 -11 -11 -11 -11 -10 -10 -10 -10 -11 -11 -11

GFSSW_500_temp_141.txt.gz
Temp
-8 -8 -8 -9 -9 -10 -10 -11 -11 -11 -11 -10 -10 -10 -10 -10 -10 -10 -10 -10 -9 -9 -9 -9 -9 -9 -9 -9 -9 -8 -8 -8 -8 -7 -7 -7 -7 -7 -7 -7 -7 -7 -7 -8 -8
-7 -8 -8 -9 -9 -9 -10 -10 -10 -10 -11 -10 -10 -10 -10 -10 -10 -10 -10 -10 -9 -9 -9 -9 -9 -9 -9 -9 -9 -9 -8 -8 -8 -7 -7 -7 -8 -7 -7 -7 -7 -7 -8 -8 -9
-7 -7 -8 -8 -8 -9 -9 -10 -10 -10 -10 -10 -10 -10 -10 -10 -10 -9 -10 -10 -10 -10 -9 -9 -9 -9 -9 -9 -9 -9 -8 -8 -8 -7 -7 -8 -8 -7 -7 -7 -7 -7 -8 -8 -9
-8 -8 -8 -8 -8 -8 -9 -9 -10 -10 -10 -10 -10 -10 -9 -9 -9 -9 -9 -10 -10 -10 -9 -9 -9 -9 -9 -9 -9 -9 -8 -8 -8 -7 -8 -8 -8 -7 -7 -7 -8 -8 -8 -9 -9
-8 -8 -8 -8 -8 -8 -9 -9 -9 -10 -10 -10 -10 -10 -10 -9 -9 -9 -9 -9 -10 -10 -9 -9 -9 -9 -9 -9 -9 -8 -8 -8 -8 -8 -8 -8 -8 -8 -7 -8 -8 -8 -9 -9 -9
-8 -8 -8 -8 -8 -8 -8 -9 -9 -9 -10 -10 -10 -10 -10 -9 -9 -10 -9 -9 -9 -9 -9 -9 -9 -9 -9 -9 -9 -8 -8 -8 -8 -8 -8 -8 -8 -8 -8 -8 -8 -9 -9 -9 -10
-9 -9 -9 -9 -9 -9 -9 -9 -9 -9 -9 -10 -10 -10 -10 -10 -10 -9 -9 -9 -9 -10 -9 -9 -9 -9 -9 -9 -9 -8 -8 -8 -8 -8 -8 -8 -8 -8 -8 -8 -8 -9 -9 -9 -10
-9 -9 -9 -9 -9 -9 -9 -9 -9 -9 -9 -9 -10 -10 -10 -10 -10 -9 -9 -9 -9 -9 -9 -9 -9 -9 -9 -9 -9 -8 -9 -8 -8 -8 -8 -8 -8 -7 -8 -9 -9 -9 -9 -9 -10
-9 -9 -9 -9 -9 -9 -9 -9 -9 -9 -9 -9 -9 -10 -10 -10 -10 -10 -10 -9 -9 -9 -10 -9 -9 -9 -9 -9 -9 -9 -9 -9 -8 -8 -8 -8 -8 -8 -9 -9 -9 -9 -9 -10 -10
-10 -10 -9 -9 -9 -9 -9 -9 -9 -9 -9 -9 -9 -9 -10 -10 -10 -10 -10 -10 -9 -9 -9 -10 -9 -9 -9 -9 -9 -9 -9 -9 -9 -8 -9 -8 -8 -9 -9 -9 -9 -9 -10 -10 -10
-10 -10 -10 -10 -10 -10 -9 -9 -9 -9 -10 -9 -9 -9 -9 -10 -10 -10 -10 -10 -10 -9 -9 -9 -10 -10 -9 -9 -10 -9 -9 -9 -9 -9 -9 -9 -9 -9 -9 -9 -9 -9 -10 -10 -11
-11 -11 -11 -10 -10 -10 -10 -10 -9 -9 -9 -10 -9 -9 -10 -10 -10 -10 -10 -10 -10 -10 -10 -9 -10 -10 -9 -10 -9 -9 -9 -10 -9 -9 -9 -9 -9 -9 -9 -9 -9 -10 -10 -10 -12
-11 -11 -11 -11 -11 -11 -10 -10 -10 -9 -9 -9 -10 -9 -11 -10 -10 -10 -10 -10 -10 -10 -11 -10 -10 -10 -10 -10 -10 -9 -9 -10 -9 -9 -9 -9 -9 -10 -9 -9 -9 -10 -10 -10 -12
-11 -11 -12 -12 -12 -11 -11 -11 -11 -10 -10 -9 -10 -10 -10 -10 -9 -10 -10 -10 -10 -10 -11 -10 -11 -10 -10 -10 -10 -9 -9 -10 -10 -10 -10 -9 -9 -9 -9 -9 -9 -10 -10 -10 -12
-12 -12 -12 -12 -12 -12 -12 -12 -12 -11 -11 -10 -9 -10 -10 -10 -10 -10 -11 -11 -11 -11 -11 -11 -11 -10 -10 -10 -10 -10 -10 -10 -10 -10 -10 -10 -9 -9 -9 -9 -10 -10 -10 -10 -12
-12 -12 -12 -12 -12 -12 -13 -13 -12 -13 -11 -11 -10 -11 -11 -11 -11 -11 -11 -11 -11 -11 -11 -11 -10 -11 -11 -10 -10 -10 -10 -10 -10 -10 -9 -10 -10 -10 -9 -10 -10 -10 -10 -10 -11
-12 -12 -12 -12 -12 -13 -14 -14 -14 -12 -12 -12 -11 -12 -12 -12 -12 -11 -11 -11 -11 -11 -11 -12 -11 -11 -11 -11 -10 -10 -10 -10 -10 -10 -10 -10 -10 -10 -10 -10 -10 -10 -10 -10 -11
-13 -13 -13 -13 -13 -13 -14 -15 -13 -12 -12 -14 -13 -13 -12 -12 -12 -12 -12 -12 -11 -11 -12 -12 -11 -11 -11 -11 -11 -11 -10 -10 -10 -10 -10 -10 -9 -10 -10 -10 -10 -10 -10 -10 -11
-13 -13 -13 -14 -14 -15 -15 -14 -12 -13 -13 -15 -14 -14 -14 -14 -14 -13 -13 -13 -12 -12 -12 -12 -12 -12 -12 -12 -11 -11 -11 -11 -10 -10 -10 -10 -10 -10 -10 -10 -10 -10 -10 -11 -11
-15 -14 -14 -15 -15 -15 -16 -13 -13 -14 -15 -15 -16 -15 -14 -15 -15 -16 -15 -14 -13 -13 -13 -13 -13 -12 -12 -12 -12 -11 -11 -11 -10 -10 -10 -10 -10 -9 -10 -10 -10 -10 -10 -11 -11
-17 -16 -16 -16 -17 -17 -15 -15 -16 -15 -17 -17 -16 -17 -17 -16 -16 -16 -15 -15 -15 -14 -15 -14 -14 -13 -12 -12 -12 -11 -11 -11 -11 -11 -10 -10 -10 -10 -10 -10 -10 -10 -10 -11 -11
-19 -18 -18 -18 -19 -18 -17 -18 -18 -17 -18 -18 -17 -18 -18 -18 -17 -17 -15 -16 -16 -15 -16 -16 -15 -14 -13 -12 -12 -12 -12 -11 -11 -11 -11 -10 -10 -10 -10 -10 -10 -10 -10 -11 -11
-21 -20 -20 -19 -19 -20 -20 -20 -19 -19 -20 -21 -20 -19 -19 -20 -19 -17 -16 -17 -17 -17 -16 -16 -16 -15 -14 -13 -12 -12 -12 -11 -11 -11 -11 -10 -10 -10 -10 -10 -10 -10 -10 -11 -11
-23 -24 -23 -21 -21 -22 -22 -22 -22 -22 -22 -22 -21 -21 -20 -20 -20 -18 -17 -18 -18 -18 -17 -17 -16 -16 -15 -13 -13 -12 -12 -12 -11 -11 -11 -10 -10 -10 -10 -10 -10 -11 -10 -11 -11
-24 -23 -25 -25 -24 -24 -25 -24 -24 -24 -24 -24 -23 -22 -22 -21 -21 -20 -20 -19 -19 -18 -17 -16 -16 -16 -15 -15 -14 -13 -12 -12 -12 -11 -11 -11 -10 -10 -10 -10 -11 -11 -11 -11 -11
-25 -25 -26 -26 -26 -25 -26 -26 -26 -26 -26 -26 -25 -24 -24 -23 -22 -21 -21 -19 -18 -18 -17 -16 -15 -16 -15 -15 -14 -13 -13 -12 -12 -11 -11 -11 -10 -10 -10 -11 -11 -11 -11 -11 -11
-27 -26 -26 -26 -26 -26 -26 -26 -26 -27 -26 -26 -26 -26 -25 -24 -23 -22 -21 -20 -19 -18 -18 -16 -16 -17 -15 -16 -15 -14 -12 -12 -12 -12 -11 -11 -11 -10 -10 -11 -11 -10 -11 -11 -11